[[{"header":{"parameterUnit":"m.s-1","parameterCategory":1,"la1":31.0,"la2":29.5877,"lo1":-88.7671,"lo2":-86.6584,"dy":0.0162,"dx":0.0185,"nx":115,"ny":88,"refTime":"2026-05-08T00:00:00:Z","depth":0,"parameterNumber":2,"parameterNumberName":"U-component_of_WINDS"},"data":[0.0,0.0,0.0,0.0,0.0,0.0,0.0,0.0,0.0,0.0,0.0,0.0,0.0,0.0,0.0,0.0,0.0,0.0,0.0,0.0,0.0,0.0,0.0,0.0,0.0,0.0,0.0,0.0,0.0,0.0,0.0,0.0,0.0,0.0,0.0,0.0,0.0,0.0,0.0,0.0,0.0,0.0,0.0,0.0,0.0,0.0,0.0,0.0,0.0,0.0,0.0,0.0,0.0,0.0,0.0,0.0,0.0,0.0,0.0,0.0,0.0,0.0,0.0,0.0,0.0,0.0,0.0,0.0,0.0,0.0,0.0,0.0,0.0,0.0,0.0,0.0,0.0,0.0,0.0,0.0,0.0,0.0,0.0,0.0,0.0,0.0,0.0,0.0,0.0,0.0,0.0,0.0,0.0,0.0,0.0,0.0,0.0,0.0,0.0,0.0,0.0,0.0,0.0,0.0,0.0,0.0,0.0,0.0,0.0,0.0,0.0,0.0,0.0,0.0,0.0,0.0,0.0,0.0,0.0,0.0,0.0,0.0,0.0,0.0,0.0,0.0,0.0,0.0,0.0,0.0,0.0,0.0,0.0,0.0,0.0,0.0,0.0,0.0,0.0,0.0,0.0,0.0,0.0,0.0,0.0,0.0,0.0,0.0,0.0,0.0,0.0,0.0,0.0,0.0,0.0,0.0,0.0,0.0,0.0,0.0,0.0,0.0,0.0,0.0,0.0,0.0,0.0,0.0,0.0,0.0,0.0,0.0,0.0,0.0,0.0,0.0,0.0,0.0,0.0,0.0,0.0,0.0,0.0,0.0,0.0,0.0,0.0,0.0,0.0,0.0,0.0,0.0,0.0,0.0,0.0,0.0,0.0,0.0,0.0,0.0,0.0,0.0,0.0,0.0,0.0,0.0,0.0,0.0,0.0,0.0,0.0,0.0,0.0,0.0,0.0,0.0,0.0,0.0,0.0,0.0,0.0,0.0,0.0,0.0,0.0,0.0,0.0,0.0,0.0,0.0,0.0,0.0,0.0,0.0,0.0,0.0,0.0,0.0,0.0,0.0,0.0,0.0,0.0,0.0,0.0,0.0,0.0,0.0,0.0,0.0,0.0,0.0,0.0,0.0,0.0,0.0,0.0,0.0,0.0,0.0,0.0,0.0,0.0,0.0,0.0,0.0,0.0,0.0,0.0,0.0,0.0,0.0,0.0,0.0,0.0,0.0,0.0,0.0,0.0,0.0,0.0,0.0,0.0,0.0,0.0,0.0,0.0,0.0,0.0,0.0,0.0,0.0,0.0,0.0,0.0,0.0,0.0,0.0,0.0,0.0,0.0,0.0,0.0,0.0,0.0,0.0,0.0,0.0,0.0,0.0,0.0,0.0,0.0,0.0,0.0,0.0,0.0,0.0,0.0,0.0,0.0,0.0,0.0,0.0,0.0,0.0,0.0,0.0,0.0,0.0,0.0,0.0,0.0,0.0,0.0,0.0,0.0,0.0,0.0,0.0,0.0,0.0,0.0,0.0,0.0,0.0,0.0,0.0,0.0,0.0,0.0,0.0,0.0,0.0,0.0,0.0,0.0,0.0,0.0,0.0,0.0,0.0,0.0,0.0,0.0,0.0,0.0,0.0,0.0,0.0,0.0,0.0,0.0,0.0,0.0,0.0,0.0,0.0,0.0,0.0,0.0,0.0,0.0,0.0,0.0,0.0,0.0,0.0,0.0,0.0,0.0,0.0,0.0,0.0,0.0,0.0,0.0,0.0,0.0,0.0,0.0,0.0,0.0,0.0,0.0,0.0,0.0,0.0,0.0,0.0,0.0,0.0,0.0,0.0,0.0,0.0,0.0,0.0,0.0,0.0,0.0,0.0,0.0,0.0,0.0,0.0,0.0,0.0,0.0,0.0,0.0,0.0,0.0,0.0,0.0,0.0,0.0,0.0,0.0,0.0,0.0,0.0,0.0,0.0,0.0,0.0,0.0,0.0,0.0,0.0,0.0,0.0,0.0,0.0,0.0,0.0,0.0,0.0,0.0,0.0,0.0,0.0,0.0,0.0,0.0,0.0,0.0,0.0,0.0,0.0,0.0,0.0,0.0,0.0,0.0,0.0,0.0,0.0,0.0,0.0,0.0,0.0,0.0,0.0,0.0,0.0,0.0,0.0,0.0,0.0,0.0,0.0,0.0,0.0,0.0,0.0,0.0,0.0,0.0,0.0,0.0,0.0,0.0,0.0,0.0,0.0,0.0,0.0,0.0,0.0,0.0,0.0,0.0,0.0,0.0,0.0,0.0,0.0,0.0,0.0,0.0,0.0,0.0,0.0,0.0,0.0,0.0,0.0,0.0,0.0,0.0,0.0,0.0,0.0,0.0,0.0,0.0,0.0,0.0,0.0,0.0,0.0,0.0,0.0,0.0,0.0,0.0,0.0,0.0,0.0,0.0,0.0,0.0,0.0,0.0,0.0,0.0,0.0,0.0,0.0,0.0,0.0,0.0,0.0,0.0,0.0,0.0,0.0,0.0,0.0,0.0,0.0,0.0,0.0,0.0,0.0,0.0,0.0,0.0,0.0,0.0,0.0,0.0,0.0,0.0,0.0,0.0,0.0,0.0,0.0,0.0,0.0,0.0,0.0,0.0,0.0,0.0,0.0,0.0,0.0,0.0,0.0,0.0,0.0,0.0,0.0,0.0,0.0,0.0,0.0,0.0,0.0,0.0,0.0,0.0,0.0,0.0,0.0,0.0,0.0,0.0,0.0,0.0,0.0,0.0,0.0,0.0,0.0,0.0,0.0,0.0,0.0,0.0,0.0,0.0,0.0,0.0,0.0,0.0,0.0,0.0,0.0,0.0,0.0,0.0,0.0,0.0,0.0,0.0,0.0,0.0,0.0,0.0,0.0,0.0,0.0,0.0,0.0,0.0,0.0,0.0,0.0,0.0,0.0,0.0,0.0,0.0,0.0,0.0,0.0,0.0,0.0,0.0,0.0,0.0,0.0,0.0,0.0,0.0,0.0,0.0,0.0,0.0,0.0,0.0,0.0,0.0,0.0,0.0,0.0,0.0,0.0,0.0,0.0,0.0,0.0,0.0,0.0,0.0,0.0,0.0,0.0,0.0,0.0,0.0,0.0,0.0,0.0,0.0,0.0,0.0,0.0,0.0,0.0,0.0,0.0,0.0,0.0,0.0,0.0,0.0,0.0,0.0,0.0,0.0,0.0,0.0,0.0,0.0,0.0,0.0,0.0,0.0,0.0,0.0,0.0,0.0,0.0,0.0,0.0,0.0,0.0,0.0,0.0,0.0,0.0,0.0,0.0,0.0,0.0,0.0,0.0,0.0,0.0,0.0,0.0,0.0,0.0,0.0,0.0,0.0,0.0,0.0,0.0,0.0,0.0,0.0,0.0,0.0,0.0,0.0,0.0,0.0,0.0,0.0,0.0,0.0,0.0,0.0,0.0,0.0,0.0,0.0,0.0,0.0,0.0,0.0,0.0,0.0,0.0,0.0,0.0,0.0,0.0,0.0,0.0,0.0,0.0,0.0,0.0,0.0,0.0,0.0,0.0,0.0,0.0,0.0,0.0,0.0,0.0,0.0,0.0,0.0,0.0,0.0,0.0,0.0,0.0,0.0,0.0,0.0,0.0,0.0,0.0,0.0,0.0,0.0,0.0,0.0,0.0,0.0,0.0,0.0,0.0,0.0,0.0,0.0,0.0,0.0,0.0,0.0,0.0,0.0,0.0,0.0,0.0,0.0,0.0,0.0,0.0,0.0,0.0,0.0,0.0,0.0,0.0,0.0,0.0,0.0,0.0,0.0,0.0,0.0,0.0,0.0,0.0,0.0,0.0,0.0,0.0,0.0,0.0,0.0,0.0,0.0,0.0,0.0,0.0,0.0,0.0,0.0,0.0,0.0,0.0,0.0,0.0,0.0,0.0,0.0,0.0,0.0,0.0,0.0,0.0,0.0,0.0,0.0,0.0,0.0,0.0,0.0,0.0,0.0,0.0,0.0,0.0,0.0,0.0,0.0,0.0,0.0,0.0,0.0,0.0,0.0,0.0,0.0,0.0,0.0,0.0,0.0,0.0,0.0,0.0,0.0,0.0,0.0,0.0,0.0,0.0,0.0,0.0,0.0,0.0,0.0,0.0,0.0,0.0,0.0,0.0,0.0,0.0,0.0,0.0,0.0,0.0,0.0,0.0,0.0,0.0,0.0,0.0,0.0,0.0,0.0,0.0,0.0,0.0,0.0,0.0,0.0,0.0,0.0,0.0,0.0,0.0,-2.3971,0.0,0.0,0.0,0.0,0.0,0.0,0.0,0.0,0.0,0.0,0.0,0.0,0.0,0.0,0.0,0.0,0.0,0.0,0.0,0.0,0.0,0.0,0.0,0.0,0.0,0.0,0.0,0.0,0.0,0.0,0.0,0.0,0.0,0.0,0.0,0.0,0.0,0.0,0.0,0.0,0.0,0.0,0.0,0.0,0.0,0.0,0.0,0.0,0.0,0.0,0.0,0.0,0.0,0.0,0.0,0.0,0.0,0.0,0.0,0.0,0.0,0.0,0.0,0.0,0.0,0.0,0.0,0.0,0.0,0.0,0.0,0.0,0.0,0.0,0.0,0.0,0.0,0.0,0.0,0.0,0.0,0.0,0.0,0.0,0.0,0.0,0.0,0.0,0.0,0.0,0.0,0.0,0.0,0.0,0.0,0.0,0.0,0.0,0.0,0.0,0.0,0.0,0.0,0.0,0.0,0.0,0.0,0.0,0.0,0.0,-2.6526,-2.6888,-2.6609,-2.5829,-2.45,0.0,0.0,0.0,0.0,0.0,0.0,0.0,0.0,0.0,0.0,0.0,0.0,0.0,0.0,0.0,0.0,0.0,0.0,0.0,0.0,0.0,0.0,0.0,0.0,0.0,0.0,0.0,0.0,0.0,0.0,0.0,0.0,0.0,0.0,0.0,0.0,0.0,0.0,0.0,0.0,0.0,0.0,0.0,0.0,0.0,0.0,0.0,0.0,0.0,0.0,0.0,0.0,0.0,0.0,0.0,0.0,0.0,0.0,0.0,0.0,0.0,0.0,0.0,0.0,0.0,0.0,0.0,0.0,0.0,0.0,0.0,0.0,0.0,0.0,0.0,0.0,0.0,0.0,0.0,0.0,0.0,0.0,0.0,0.0,0.0,0.0,0.0,0.0,0.0,0.0,0.0,0.0,0.0,0.0,0.0,0.0,0.0,0.0,0.0,0.0,0.0,0.0,0.0,0.0,0.0,0.0,0.0,0.0,0.0,0.0,0.0,0.0,-2.846,-2.752,-2.5132,0.0,0.0,0.0,0.0,0.0,0.0,0.0,0.0,0.0,0.0,0.0,0.0,0.0,0.0,0.0,0.0,0.0,0.0,0.0,0.0,0.0,0.0,0.0,0.0,0.0,0.0,0.0,0.0,0.0,0.0,0.0,0.0,0.0,0.0,0.0,0.0,0.0,0.0,0.0,0.0,0.0,0.0,0.0,0.0,0.0,0.0,0.0,0.0,0.0,0.0,0.0,0.0,0.0,0.0,0.0,0.0,0.0,0.0,0.0,0.0,0.0,0.0,0.0,0.0,0.0,0.0,0.0,0.0,0.0,0.0,0.0,0.0,0.0,0.0,0.0,0.0,0.0,0.0,0.0,0.0,0.0,0.0,0.0,0.0,0.0,0.0,0.0,0.0,0.0,0.0,0.0,0.0,0.0,0.0,0.0,0.0,0.0,0.0,0.0,0.0,0.0,0.0,0.0,0.0,0.0,0.0,0.0,0.0,0.0,0.0,-2.9153,-3.1548,-3.0785,0.0,-2.6795,0.0,0.0,0.0,0.0,0.0,0.0,0.0,0.0,0.0,0.0,0.0,0.0,0.0,0.0,0.0,0.0,0.0,0.0,0.0,0.0,0.0,0.0,0.0,0.0,0.0,0.0,0.0,0.0,0.0,0.0,0.0,0.0,0.0,0.0,0.0,0.0,0.0,0.0,0.0,0.0,0.0,0.0,0.0,0.0,0.0,0.0,0.0,0.0,0.0,0.0,0.0,0.0,0.0,0.0,0.0,0.0,0.0,0.0,0.0,0.0,0.0,0.0,0.0,0.0,0.0,0.0,0.0,0.0,0.0,0.0,0.0,0.0,0.0,0.0,0.0,0.0,0.0,0.0,0.0,0.0,0.0,0.0,0.0,0.0,0.0,0.0,0.0,0.0,0.0,0.0,0.0,0.0,0.0,0.0,0.0,0.0,0.0,0.0,0.0,0.0,0.0,0.0,0.0,0.0,0.0,0.0,0.0,0.0,0.0,0.0,-3.0556,-3.2241,-3.0847,-2.9306,0.0,0.0,0.0,0.0,0.0,0.0,0.0,0.0,0.0,0.0,0.0,0.0,0.0,0.0,0.0,0.0,0.0,0.0,0.0,0.0,0.0,0.0,0.0,0.0,0.0,0.0,0.0,0.0,0.0,0.0,0.0,0.0,0.0,0.0,0.0,0.0,0.0,0.0,0.0,0.0,0.0,0.0,0.0,0.0,0.0,0.0,0.0,0.0,0.0,0.0,0.0,0.0,0.0,0.0,0.0,0.0,0.0,0.0,0.0,0.0,0.0,0.0,0.0,0.0,0.0,0.0,0.0,0.0,0.0,0.0,0.0,0.0,0.0,0.0,0.0,0.0,0.0,0.0,0.0,0.0,0.0,0.0,0.0,0.0,0.0,0.0,0.0,0.0,0.0,0.0,0.0,0.0,0.0,0.0,0.0,0.0,0.0,0.0,0.0,0.0,0.0,0.0,0.0,0.0,0.0,0.0,0.0,0.0,0.0,0.0,-3.0949,-3.19,-3.2891,-3.1551,-3.0039,-2.8506,0.0,0.0,0.0,0.0,0.0,0.0,0.0,0.0,0.0,0.0,0.0,0.0,0.0,0.0,0.0,0.0,0.0,0.0,0.0,0.0,0.0,0.0,0.0,0.0,0.0,0.0,0.0,0.0,0.0,0.0,0.0,0.0,0.0,0.0,0.0,0.0,0.0,0.0,0.0,0.0,0.0,0.0,0.0,0.0,0.0,0.0,0.0,0.0,0.0,0.0,0.0,0.0,0.0,0.0,0.0,0.0,0.0,0.0,0.0,0.0,0.0,0.0,0.0,0.0,0.0,0.0,0.0,0.0,0.0,0.0,0.0,0.0,0.0,0.0,0.0,0.0,0.0,0.0,0.0,0.0,0.0,0.0,0.0,0.0,0.0,0.0,0.0,0.0,0.0,0.0,0.0,0.0,0.0,0.0,0.0,0.0,0.0,0.0,0.0,0.0,0.0,0.0,0.0,0.0,0.0,0.0,0.0,0.0,-3.4037,-3.3051,-3.3143,-3.4562,-3.379,-3.208,0.0,0.0,0.0,0.0,0.0,0.0,0.0,0.0,0.0,0.0,0.0,0.0,0.0,0.0,0.0,0.0,0.0,0.0,0.0,0.0,0.0,0.0,0.0,0.0,0.0,0.0,0.0,0.0,0.0,0.0,0.0,0.0,0.0,0.0,0.0,0.0,0.0,0.0,0.0,0.0,0.0,0.0,0.0,0.0,0.0,0.0,0.0,0.0,0.0,0.0,0.0,0.0,0.0,0.0,0.0,0.0,0.0,0.0,0.0,0.0,0.0,0.0,0.0,0.0,0.0,0.0,0.0,0.0,0.0,0.0,0.0,0.0,0.0,0.0,0.0,0.0,0.0,0.0,0.0,0.0,0.0,0.0,0.0,0.0,0.0,0.0,0.0,0.0,0.0,0.0,0.0,0.0,0.0,0.0,0.0,0.0,0.0,0.0,0.0,0.0,0.0,0.0,0.0,0.0,0.0,0.0,0.0,0.0,0.0,-3.1816,-3.2977,-3.4762,-3.6979,-3.3856,-3.1675,0.0,0.0,0.0,0.0,0.0,0.0,0.0,0.0,0.0,0.0,0.0,0.0,0.0,0.0,0.0,0.0,0.0,0.0,0.0,0.0,0.0,0.0,0.0,0.0,0.0,0.0,0.0,0.0,0.0,0.0,0.0,0.0,0.0,0.0,0.0,0.0,0.0,0.0,0.0,0.0,0.0,0.0,0.0,0.0,0.0,0.0,0.0,0.0,0.0,0.0,0.0,0.0,0.0,0.0,0.0,0.0,0.0,0.0,0.0,0.0,0.0,0.0,0.0,0.0,0.0,0.0,0.0,0.0,0.0,0.0,0.0,0.0,0.0,0.0,0.0,0.0,0.0,0.0,0.0,0.0,0.0,0.0,0.0,0.0,0.0,0.0,0.0,0.0,0.0,0.0,0.0,0.0,0.0,0.0,0.0,0.0,0.0,0.0,0.0,0.0,0.0,0.0,0.0,0.0,0.0,0.0,0.0,0.0,0.0,-3.2033,0.0,-3.6136,-3.731,-3.3945,-3.1466,0.0,0.0,0.0,0.0,0.0,0.0,0.0,0.0,0.0,0.0,0.0,0.0,0.0,0.0,0.0,0.0,0.0,0.0,0.0,0.0,0.0,0.0,0.0,0.0,0.0,0.0,0.0,0.0,0.0,0.0,0.0,0.0,0.0,0.0,0.0,0.0,0.0,0.0,0.0,0.0,0.0,0.0,0.0,0.0,0.0,0.0,0.0,0.0,0.0,0.0,0.0,0.0,0.0,0.0,0.0,0.0,0.0,0.0,0.0,0.0,0.0,0.0,0.0,0.0,0.0,0.0,0.0,0.0,0.0,0.0,0.0,0.0,0.0,0.0,0.0,0.0,0.0,0.0,0.0,0.0,0.0,0.0,0.0,0.0,0.0,0.0,0.0,0.0,0.0,0.0,0.0,0.0,0.0,0.0,0.0,0.0,0.0,0.0,0.0,0.0,0.0,0.0,0.0,0.0,0.0,0.0,0.0,0.0,-3.1975,-3.5373,-3.703,-3.7098,-3.5435,-3.4215,-3.1606,0.0,0.0,0.0,0.0,0.0,0.0,0.0,0.0,0.0,0.0,0.0,0.0,0.0,0.0,0.0,0.0,0.0,0.0,0.0,0.0,0.0,0.0,0.0,0.0,0.0,0.0,0.0,0.0,0.0,0.0,0.0,0.0,0.0,0.0,0.0,0.0,0.0,0.0,0.0,0.0,0.0,0.0,0.0,0.0,0.0,0.0,0.0,0.0,0.0,0.0,0.0,0.0,0.0,0.0,0.0,0.0,0.0,0.0,0.0,0.0,0.0,0.0,0.0,0.0,0.0,0.0,0.0,0.0,0.0,0.0,0.0,0.0,0.0,0.0,0.0,0.0,0.0,0.0,0.0,0.0,0.0,0.0,0.0,0.0,0.0,0.0,0.0,0.0,0.0,0.0,0.0,0.0,0.0,0.0,0.0,0.0,0.0,0.0,0.0,0.0,0.0,0.0,0.0,0.0,0.0,0.0,0.0,0.0,0.0,-3.3845,-3.6016,-3.7367,-3.7651,-3.4566,-3.2408,0.0,0.0,0.0,0.0,0.0,0.0,0.0,0.0,0.0,0.0,0.0,0.0,0.0,0.0,0.0,0.0,0.0,0.0,0.0,0.0,0.0,0.0,0.0,0.0,0.0,0.0,0.0,0.0,0.0,0.0,0.0,0.0,0.0,0.0,0.0,0.0,0.0,0.0,0.0,0.0,0.0,0.0,0.0,0.0,0.0,0.0,0.0,0.0,0.0,0.0,0.0,0.0,0.0,0.0,0.0,0.0,0.0,0.0,0.0,0.0,0.0,0.0,0.0,0.0,0.0,0.0,0.0,0.0,0.0,0.0,0.0,0.0,0.0,0.0,0.0,0.0,0.0,0.0,0.0,0.0,0.0,0.0,0.0,0.0,0.0,0.0,0.0,0.0,0.0,0.0,0.0,0.0,0.0,0.0,0.0,0.0,0.0,0.0,0.0,0.0,0.0,0.0,0.0,0.0,0.0,0.0,0.0,0.0,0.0,-3.4558,-3.7196,-3.8785,-3.9059,-3.5391,-3.3019,-3.208,0.0,0.0,0.0,0.0,0.0,0.0,0.0,0.0,0.0,0.0,0.0,0.0,0.0,0.0,0.0,0.0,0.0,0.0,0.0,0.0,0.0,0.0,0.0,0.0,0.0,0.0,0.0,0.0,0.0,0.0,0.0,0.0,0.0,0.0,0.0,0.0,0.0,0.0,0.0,0.0,0.0,0.0,0.0,0.0,0.0,0.0,0.0,0.0,0.0,0.0,0.0,0.0,0.0,0.0,0.0,0.0,0.0,0.0,0.0,0.0,0.0,0.0,0.0,0.0,0.0,0.0,0.0,0.0,0.0,0.0,0.0,0.0,0.0,0.0,0.0,0.0,0.0,0.0,0.0,0.0,0.0,0.0,0.0,0.0,0.0,0.0,0.0,0.0,0.0,0.0,0.0,0.0,0.0,0.0,0.0,0.0,0.0,0.0,0.0,0.0,0.0,0.0,0.0,0.0,0.0,0.0,0.0,0.0,-3.7017,-4.0235,-4.1115,-3.9446,-3.6596,-3.3536,0.0,0.0,0.0,0.0,0.0,0.0,0.0,0.0,0.0,0.0,0.0,0.0,0.0,0.0,0.0,0.0,0.0,0.0,0.0,0.0,0.0,0.0,0.0,0.0,0.0,0.0,0.0,0.0,0.0,0.0,0.0,0.0,0.0,0.0,0.0,0.0,0.0,0.0,0.0,0.0,0.0,0.0,0.0,0.0,0.0,0.0,0.0,0.0,0.0,0.0,0.0,0.0,0.0,0.0,0.0,0.0,0.0,0.0,0.0,0.0,0.0,0.0,0.0,0.0,0.0,0.0,0.0,0.0,0.0,0.0,0.0,0.0,0.0,0.0,0.0,0.0,0.0,0.0,0.0,0.0,0.0,0.0,0.0,0.0,0.0,0.0,0.0,0.0,0.0,0.0,0.0,0.0,0.0,0.0,0.0,0.0,0.0,0.0,0.0,0.0,0.0,0.0,0.0,0.0,0.0,0.0,0.0,0.0,0.0,-3.9569,-4.2228,-4.2776,-4.0928,-3.7661,-3.5126,0.0,0.0,0.0,0.0,0.0,0.0,0.0,0.0,0.0,0.0,0.0,0.0,0.0,0.0,0.0,0.0,0.0,0.0,0.0,0.0,0.0,0.0,0.0,0.0,0.0,0.0,0.0,0.0,0.0,0.0,0.0,0.0,0.0,0.0,0.0,0.0,0.0,0.0,0.0,0.0,0.0,0.0,0.0,0.0,0.0,0.0,0.0,0.0,0.0,0.0,0.0,0.0,0.0,0.0,0.0,0.0,0.0,0.0,0.0,0.0,0.0,0.0,0.0,0.0,0.0,0.0,0.0,0.0,0.0,0.0,0.0,0.0,0.0,0.0,0.0,0.0,0.0,0.0,0.0,0.0,0.0,0.0,0.0,0.0,0.0,0.0,0.0,0.0,0.0,0.0,0.0,0.0,0.0,0.0,0.0,0.0,0.0,0.0,0.0,0.0,0.0,0.0,0.0,0.0,0.0,0.0,0.0,0.0,-3.9364,-4.1035,-4.3528,-4.4122,-4.2584,-3.9775,-3.6984,0.0,0.0,0.0,0.0,0.0,0.0,0.0,0.0,0.0,0.0,0.0,0.0,0.0,0.0,0.0,0.0,0.0,0.0,0.0,0.0,0.0,0.0,0.0,0.0,0.0,0.0,0.0,0.0,0.0,0.0,0.0,0.0,0.0,0.0,0.0,0.0,0.0,0.0,0.0,0.0,0.0,0.0,0.0,0.0,0.0,0.0,0.0,0.0,0.0,0.0,0.0,0.0,0.0,0.0,0.0,0.0,0.0,0.0,0.0,0.0,0.0,0.0,0.0,0.0,0.0,0.0,0.0,0.0,0.0,0.0,0.0,0.0,0.0,0.0,0.0,0.0,0.0,0.0,0.0,0.0,0.0,0.0,0.0,0.0,0.0,0.0,0.0,0.0,0.0,0.0,0.0,0.0,0.0,0.0,0.0,0.0,0.0,0.0,0.0,0.0,0.0,0.0,0.0,0.0,0.0,0.0,0.0,0.0,-4.0185,-4.1788,-4.4278,-4.5062,-4.3905,-4.2011,-3.876,0.0,0.0,0.0,0.0,0.0,0.0,0.0,0.0,0.0,0.0,0.0,0.0,0.0,0.0,0.0,0.0,0.0,0.0,0.0,0.0,0.0,0.0,0.0,0.0,0.0,0.0,0.0,0.0,0.0,0.0,0.0,0.0,0.0,0.0,0.0,0.0,0.0,0.0,0.0,0.0,0.0,0.0,0.0,0.0,0.0,0.0,0.0,0.0,0.0,0.0,0.0,0.0,0.0,0.0,0.0,0.0,0.0,0.0,0.0,0.0,0.0,0.0,0.0,0.0,0.0,0.0,0.0,0.0,0.0,0.0,0.0,0.0,0.0,0.0,0.0,0.0,0.0,0.0,0.0,0.0,0.0,0.0,0.0,0.0,0.0,0.0,0.0,0.0,0.0,0.0,0.0,0.0,0.0,0.0,0.0,0.0,0.0,0.0,0.0,0.0,0.0,0.0,0.0,0.0,0.0,0.0,0.0,0.0,-4.0746,-4.1808,-4.4278,-4.4865,-4.3323,-4.1264,-3.8679,0.0,0.0,0.0,0.0,0.0,0.0,0.0,0.0,0.0,0.0,0.0,0.0,0.0,0.0,0.0,0.0,0.0,0.0,0.0,0.0,0.0,0.0,0.0,0.0,0.0,0.0,0.0,0.0,0.0,0.0,0.0,0.0,0.0,0.0,0.0,0.0,0.0,0.0,0.0,0.0,0.0,0.0,0.0,0.0,0.0,0.0,0.0,0.0,-3.3504,0.0,0.0,0.0,0.0,0.0,0.0,0.0,0.0,0.0,0.0,0.0,0.0,0.0,0.0,0.0,0.0,0.0,0.0,0.0,0.0,0.0,0.0,0.0,0.0,0.0,0.0,0.0,0.0,0.0,0.0,0.0,0.0,0.0,0.0,0.0,0.0,0.0,0.0,0.0,0.0,0.0,0.0,0.0,0.0,0.0,0.0,0.0,0.0,0.0,0.0,0.0,0.0,0.0,0.0,0.0,0.0,0.0,0.0,0.0,-4.0746,-4.2393,-4.3739,-4.4147,-4.3482,-4.1519,-3.8879,0.0,0.0,0.0,0.0,0.0,0.0,0.0,0.0,0.0,0.0,0.0,0.0,0.0,0.0,0.0,0.0,0.0,0.0,0.0,0.0,0.0,0.0,0.0,0.0,0.0,0.0,0.0,0.0,0.0,0.0,0.0,0.0,0.0,0.0,0.0,0.0,0.0,0.0,0.0,0.0,0.0,0.0,0.0,0.0,0.0,0.0,0.0,0.0,0.0,0.0,0.0,0.0,0.0,0.0,0.0,0.0,0.0,0.0,0.0,0.0,0.0,0.0,0.0,0.0,0.0,0.0,0.0,0.0,0.0,0.0,0.0,0.0,0.0,0.0,0.0,0.0,0.0,0.0,0.0,0.0,0.0,0.0,0.0,0.0,0.0,0.0,0.0,0.0,0.0,0.0,0.0,0.0,0.0,0.0,0.0,0.0,0.0,0.0,0.0,0.0,0.0,0.0,0.0,0.0,0.0,0.0,0.0,-3.8003,-4.0335,-4.2777,-4.3028,-4.3269,-4.3569,-4.1988,-3.9136,-3.5069,0.0,0.0,0.0,0.0,0.0,0.0,0.0,0.0,0.0,0.0,0.0,0.0,0.0,0.0,0.0,0.0,0.0,0.0,0.0,0.0,0.0,0.0,0.0,0.0,0.0,0.0,0.0,0.0,0.0,0.0,0.0,0.0,0.0,0.0,0.0,0.0,0.0,0.0,-2.9646,-3.1756,0.0,0.0,0.0,0.0,0.0,0.0,0.0,0.0,-3.3439,0.0,0.0,0.0,0.0,0.0,0.0,0.0,0.0,0.0,0.0,0.0,0.0,0.0,0.0,0.0,0.0,0.0,0.0,0.0,0.0,0.0,0.0,0.0,0.0,0.0,0.0,0.0,0.0,0.0,0.0,0.0,0.0,0.0,0.0,0.0,0.0,0.0,0.0,0.0,0.0,0.0,0.0,0.0,0.0,0.0,0.0,0.0,0.0,0.0,0.0,0.0,0.0,0.0,0.0,0.0,0.0,-3.7514,-3.8007,-3.945,-4.195,-4.272,-4.2693,-4.1867,-4.135,-3.908,-3.4944,0.0,0.0,0.0,0.0,0.0,0.0,0.0,0.0,0.0,0.0,0.0,0.0,0.0,0.0,0.0,0.0,0.0,0.0,0.0,0.0,0.0,0.0,0.0,0.0,0.0,0.0,0.0,0.0,0.0,0.0,0.0,0.0,0.0,0.0,0.0,0.0,0.0,0.0,0.0,-3.3891,-3.5173,0.0,0.0,0.0,0.0,0.0,0.0,0.0,0.0,-3.2693,0.0,0.0,0.0,0.0,0.0,0.0,0.0,0.0,0.0,0.0,0.0,0.0,0.0,0.0,0.0,0.0,0.0,0.0,0.0,0.0,0.0,0.0,0.0,0.0,0.0,0.0,0.0,0.0,0.0,0.0,0.0,0.0,0.0,0.0,0.0,0.0,0.0,0.0,0.0,0.0,0.0,0.0,0.0,0.0,0.0,0.0,0.0,0.0,0.0,0.0,0.0,0.0,0.0,0.0,0.0,-3.6565,-3.7546,-3.9238,-4.1692,-4.1667,-4.1475,-4.1201,-3.9783,-3.7521,0.0,0.0,0.0,0.0,0.0,0.0,0.0,0.0,0.0,0.0,0.0,0.0,0.0,0.0,0.0,0.0,0.0,0.0,0.0,0.0,0.0,0.0,0.0,0.0,0.0,0.0,0.0,0.0,0.0,0.0,0.0,0.0,0.0,0.0,0.0,0.0,0.0,0.0,0.0,0.0,-3.4007,-3.4981,-3.5395,0.0,0.0,0.0,0.0,0.0,0.0,-3.24,-3.241,0.0,0.0,0.0,0.0,0.0,0.0,0.0,0.0,0.0,0.0,0.0,0.0,0.0,0.0,0.0,0.0,0.0,0.0,0.0,0.0,0.0,0.0,0.0,0.0,0.0,0.0,0.0,0.0,0.0,0.0,0.0,0.0,0.0,0.0,0.0,0.0,0.0,0.0,0.0,0.0,0.0,0.0,0.0,0.0,0.0,0.0,0.0,0.0,0.0,0.0,0.0,0.0,0.0,0.0,0.0,-3.5481,-3.6981,-3.8988,-4.1365,-4.0496,-4.0148,-4.052,-3.8275,-3.6031,0.0,0.0,0.0,0.0,0.0,0.0,0.0,0.0,0.0,0.0,0.0,0.0,0.0,0.0,0.0,0.0,0.0,0.0,0.0,0.0,0.0,0.0,0.0,0.0,0.0,0.0,0.0,0.0,0.0,0.0,0.0,0.0,0.0,0.0,0.0,0.0,0.0,0.0,0.0,0.0,0.0,-3.507,-3.5362,-3.4959,0.0,0.0,0.0,0.0,-3.2646,-3.2777,0.0,0.0,0.0,0.0,0.0,0.0,0.0,0.0,0.0,0.0,0.0,0.0,0.0,0.0,0.0,0.0,0.0,0.0,0.0,0.0,0.0,0.0,0.0,0.0,0.0,0.0,0.0,0.0,0.0,0.0,0.0,0.0,0.0,0.0,0.0,0.0,0.0,0.0,0.0,0.0,0.0,0.0,0.0,0.0,0.0,0.0,0.0,0.0,0.0,0.0,0.0,0.0,0.0,0.0,0.0,0.0,-3.5423,-3.6385,-3.8065,-4.045,-3.967,-3.9042,-3.8881,-3.7672,-3.5799,0.0,0.0,0.0,0.0,0.0,0.0,0.0,0.0,0.0,0.0,0.0,0.0,0.0,0.0,0.0,0.0,0.0,0.0,0.0,0.0,0.0,0.0,0.0,0.0,0.0,0.0,0.0,0.0,0.0,0.0,0.0,0.0,0.0,0.0,0.0,0.0,0.0,0.0,0.0,0.0,0.0,-3.7065,-3.5685,-3.6022,-3.6085,0.0,0.0,-3.4841,-3.4312,-3.4932,0.0,0.0,0.0,0.0,0.0,0.0,0.0,0.0,0.0,0.0,0.0,0.0,0.0,0.0,0.0,0.0,0.0,0.0,0.0,0.0,0.0,0.0,0.0,0.0,0.0,0.0,0.0,0.0,0.0,0.0,0.0,0.0,0.0,0.0,0.0,0.0,0.0,0.0,0.0,0.0,0.0,0.0,0.0,0.0,0.0,0.0,0.0,0.0,0.0,0.0,0.0,0.0,0.0,0.0,0.0,-3.2699,-3.4718,-3.6045,-3.7469,-3.8981,-3.794,-3.7291,-3.7193,-3.516,-3.3295,0.0,0.0,0.0,0.0,0.0,0.0,0.0,0.0,0.0,0.0,0.0,0.0,0.0,0.0,0.0,0.0,0.0,0.0,0.0,0.0,0.0,0.0,0.0,0.0,0.0,0.0,0.0,0.0,0.0,0.0,0.0,0.0,0.0,0.0,0.0,0.0,0.0,0.0,0.0,0.0,0.0,0.0,-3.6154,-3.6469,0.0,0.0,0.0,-3.5096,-3.5216,0.0,0.0,0.0,0.0,0.0,0.0,0.0,0.0,0.0,0.0,0.0,0.0,0.0,0.0,0.0,0.0,0.0,0.0,0.0,0.0,0.0,0.0,0.0,0.0,0.0,0.0,0.0,0.0,0.0,0.0,0.0,0.0,0.0,0.0,0.0,0.0,0.0,0.0,0.0,0.0,0.0,0.0,0.0,0.0,0.0,0.0,0.0,0.0,0.0,0.0,0.0,0.0,0.0,0.0,0.0,0.0,0.0,-3.3564,-3.5218,-3.6474,-3.7225,-3.6117,-3.5457,-3.5381,-3.3061,0.0,0.0,0.0,0.0,0.0,0.0,0.0,0.0,0.0,0.0,0.0,0.0,0.0,0.0,0.0,0.0,0.0,0.0,0.0,0.0,0.0,0.0,0.0,0.0,0.0,0.0,0.0,-2.5273,0.0,0.0,0.0,0.0,0.0,0.0,0.0,0.0,0.0,0.0,0.0,0.0,0.0,0.0,-3.5977,-3.6546,-3.7015,-3.7256,0.0,0.0,-3.5825,-3.5732,-3.5401,-3.4674,0.0,0.0,0.0,0.0,0.0,0.0,0.0,0.0,0.0,0.0,0.0,0.0,0.0,0.0,0.0,0.0,0.0,0.0,0.0,0.0,0.0,0.0,0.0,0.0,0.0,0.0,0.0,0.0,0.0,0.0,0.0,0.0,0.0,0.0,0.0,0.0,0.0,0.0,0.0,0.0,0.0,0.0,0.0,0.0,0.0,0.0,0.0,0.0,0.0,0.0,0.0,0.0,0.0,0.0,-3.0942,-3.1891,-3.3506,-3.4721,-3.5323,-3.4323,-3.3696,-3.3568,-3.2414,-3.1069,0.0,0.0,0.0,0.0,0.0,0.0,0.0,0.0,0.0,0.0,0.0,0.0,0.0,0.0,0.0,0.0,0.0,0.0,0.0,0.0,0.0,0.0,0.0,0.0,0.0,0.0,0.0,0.0,0.0,0.0,0.0,0.0,0.0,0.0,0.0,0.0,0.0,0.0,0.0,0.0,0.0,-3.6566,-3.6672,-3.798,-3.8837,0.0,-3.8488,-3.7783,-3.5836,-3.6708,-3.6278,-3.2231,0.0,0.0,0.0,0.0,0.0,0.0,0.0,0.0,0.0,0.0,0.0,0.0,0.0,0.0,0.0,0.0,0.0,0.0,0.0,0.0,0.0,0.0,0.0,0.0,0.0,0.0,0.0,0.0,0.0,0.0,0.0,0.0,0.0,0.0,0.0,0.0,0.0,0.0,0.0,0.0,0.0,0.0,0.0,0.0,0.0,0.0,0.0,0.0,0.0,0.0,0.0,0.0,0.0,-3.0056,-3.0904,-3.2545,-3.3728,-3.4308,-3.2868,-3.2467,-3.331,-3.1395,-2.9787,0.0,0.0,0.0,0.0,0.0,0.0,0.0,0.0,0.0,0.0,0.0,0.0,0.0,0.0,0.0,0.0,0.0,0.0,0.0,0.0,0.0,0.0,0.0,0.0,0.0,0.0,0.0,0.0,-2.8624,-2.9283,-2.9563,0.0,0.0,0.0,0.0,0.0,0.0,0.0,0.0,0.0,0.0,-3.6792,-3.7313,-3.8226,0.0,0.0,-3.8757,-3.8103,-3.7778,-3.727,-3.6007,-3.3301,-3.2711,0.0,0.0,0.0,0.0,0.0,0.0,0.0,0.0,0.0,0.0,0.0,0.0,0.0,0.0,0.0,0.0,0.0,0.0,0.0,0.0,0.0,0.0,0.0,0.0,0.0,0.0,0.0,0.0,0.0,0.0,0.0,0.0,0.0,0.0,0.0,0.0,0.0,0.0,0.0,0.0,0.0,0.0,0.0,0.0,0.0,0.0,0.0,0.0,0.0,0.0,0.0,0.0,-2.9091,-2.966,-3.1295,-3.2345,-3.2683,-3.1428,-3.1183,-3.2033,-3.0346,-2.8988,0.0,0.0,0.0,0.0,0.0,0.0,0.0,0.0,0.0,0.0,0.0,0.0,0.0,0.0,0.0,0.0,0.0,0.0,0.0,0.0,0.0,0.0,0.0,0.0,0.0,0.0,0.0,0.0,-2.9538,-2.994,-3.0164,0.0,0.0,0.0,0.0,0.0,0.0,0.0,0.0,0.0,0.0,-3.6835,-3.7589,-3.828,-3.8866,-3.9307,-3.8346,-3.7636,-3.7848,-3.6763,-3.5334,-3.3683,0.0,0.0,0.0,0.0,0.0,0.0,0.0,0.0,0.0,0.0,0.0,0.0,0.0,0.0,0.0,0.0,0.0,0.0,0.0,0.0,0.0,0.0,0.0,0.0,0.0,0.0,0.0,-3.1792,0.0,0.0,-3.0636,0.0,0.0,0.0,0.0,0.0,0.0,0.0,0.0,0.0,0.0,0.0,0.0,0.0,0.0,0.0,0.0,0.0,0.0,0.0,0.0,0.0,0.0,-2.7955,-2.7992,-2.966,-3.0336,-3.007,-2.9951,-2.9819,-2.9624,-2.9425,-2.8988,-2.8096,0.0,0.0,0.0,0.0,0.0,0.0,0.0,0.0,0.0,0.0,0.0,0.0,0.0,0.0,0.0,0.0,0.0,0.0,0.0,0.0,0.0,0.0,0.0,0.0,0.0,0.0,-3.0753,-3.0435,-3.0178,0.0,0.0,0.0,0.0,0.0,0.0,0.0,0.0,0.0,0.0,-3.4936,-3.6715,-3.7328,-3.8152,-3.852,-3.8044,-3.7301,-3.6398,-3.5368,-3.5096,-3.4491,0.0,0.0,0.0,0.0,0.0,0.0,0.0,0.0,0.0,0.0,0.0,0.0,0.0,0.0,0.0,0.0,0.0,0.0,0.0,0.0,0.0,0.0,0.0,0.0,0.0,0.0,0.0,-3.2654,-3.1874,0.0,0.0,0.0,0.0,0.0,0.0,0.0,0.0,0.0,0.0,0.0,-3.1831,-3.1835,0.0,0.0,0.0,0.0,0.0,0.0,0.0,0.0,0.0,0.0,0.0,0.0,-2.7893,-2.7972,-2.9558,-3.0502,-3.069,-3.0178,-3.0244,-3.0961,-2.9973,-2.8728,-2.7334,0.0,0.0,0.0,0.0,0.0,0.0,0.0,0.0,0.0,0.0,0.0,0.0,0.0,0.0,0.0,0.0,0.0,0.0,0.0,0.0,0.0,0.0,0.0,0.0,0.0,-3.0594,0.0,0.0,0.0,0.0,0.0,0.0,0.0,0.0,0.0,0.0,0.0,-3.3268,-3.3578,-3.5136,-3.6502,-3.723,-3.7811,-3.8109,0.0,0.0,0.0,0.0,0.0,0.0,0.0,0.0,0.0,0.0,0.0,0.0,0.0,0.0,-3.2981,-3.1641,-3.1182,-3.1072,-3.136,0.0,0.0,0.0,0.0,0.0,0.0,0.0,0.0,0.0,0.0,0.0,0.0,0.0,0.0,-3.2557,0.0,-3.2836,0.0,0.0,0.0,0.0,0.0,0.0,0.0,0.0,-3.361,-3.3847,-3.3552,-3.3557,-3.3093,0.0,-3.1139,-2.9742,0.0,0.0,0.0,0.0,0.0,0.0,0.0,0.0,-2.7729,-2.7476,-2.9044,-2.9975,-3.0122,-2.9395,-2.9465,-3.0448,-2.9211,-2.8152,-2.7334,-2.6535,-2.5866,0.0,0.0,0.0,0.0,0.0,0.0,0.0,0.0,0.0,0.0,0.0,0.0,0.0,0.0,0.0,0.0,0.0,0.0,0.0,0.0,0.0,0.0,0.0,-3.071,0.0,0.0,0.0,0.0,0.0,0.0,0.0,0.0,0.0,-3.1305,-3.2735,-3.3766,-3.3766,-3.504,-3.6243,-3.6975,0.0,0.0,0.0,0.0,0.0,0.0,0.0,-3.5826,-3.4449,-3.3775,-3.3353,-3.3073,-3.3458,-3.3807,-3.3807,0.0,0.0,-3.2425,-3.2008,-3.1812,-3.1781,-3.1523,-3.1137,-3.0594,-3.0183,-2.9766,0.0,0.0,0.0,0.0,0.0,0.0,0.0,0.0,-3.2085,-3.2503,0.0,-3.3165,0.0,0.0,0.0,0.0,0.0,-3.2623,0.0,0.0,-3.5206,-3.5226,-3.4452,-3.4432,-3.4002,-3.3223,-3.3146,-3.2237,-3.0636,-2.8977,0.0,0.0,0.0,0.0,0.0,0.0,-2.7379,-2.6497,-2.8026,-2.8703,-2.8385,-2.7624,-2.751,-2.805,-2.7334,-2.7278,-2.7966,-2.7278,-2.6869,-2.6869,-2.5917,0.0,0.0,0.0,0.0,0.0,0.0,0.0,0.0,0.0,0.0,0.0,0.0,0.0,0.0,0.0,0.0,0.0,0.0,0.0,0.0,-3.0628,0.0,0.0,0.0,0.0,0.0,0.0,0.0,0.0,0.0,0.0,-3.1286,-3.2504,-3.336,-3.3419,0.0,0.0,0.0,0.0,-3.6941,-3.7426,-3.6886,-3.6395,-3.6321,-3.6321,-3.6046,-3.5188,0.0,0.0,-3.3917,-3.3807,-3.3807,-3.3807,-3.3807,-3.377,-3.3697,-3.3096,-3.2606,-3.2475,-3.1832,-3.1294,-3.1115,-3.0327,-2.9771,-3.5684,0.0,0.0,0.0,0.0,-3.2773,-3.3086,-3.3821,-3.4422,-3.4424,-3.4021,-3.4026,0.0,0.0,0.0,0.0,0.0,0.0,-3.2977,-3.4374,-3.4665,-3.4955,-3.5317,-3.5336,-3.5201,-3.493,-3.4331,-3.346,-3.2372,-3.1275,-2.9355,-2.676,0.0,0.0,0.0,0.0,-2.6757,-2.655,-2.7478,-2.783,-2.7554,-2.732,-2.7218,-2.7251,-2.7018,-2.6999,-2.7241,-2.7018,-2.6888,-2.6888,-2.5935,0.0,0.0,0.0,0.0,0.0,0.0,0.0,0.0,0.0,0.0,0.0,0.0,0.0,0.0,0.0,0.0,0.0,0.0,0.0,-2.9671,-3.035,-3.0534,0.0,0.0,0.0,0.0,0.0,0.0,0.0,0.0,0.0,-3.2411,-3.3914,-3.5022,0.0,0.0,-3.6416,-3.658,-3.698,-3.7319,-3.747,-3.779,0.0,-3.6468,-3.6795,-3.6886,-3.6064,-3.5408,-3.4729,-3.3935,-3.3807,-3.3807,-3.3807,-3.3807,-3.3642,-3.3078,-3.3203,-3.3158,-3.2614,-3.1767,-3.0977,-3.0368,-2.9577,-2.9,-3.7519,-3.6172,-3.5137,-3.459,-3.4355,-3.369,-3.4028,-3.5063,-3.5251,-3.5359,-3.5413,-3.5059,-3.4313,-3.3267,-3.1758,0.0,0.0,0.0,-3.3262,-3.4916,-3.4911,-3.5187,-3.5684,-3.5704,-3.5704,-3.5646,-3.48,-3.4118,-3.3615,-3.2391,-3.0612,-2.8292,0.0,0.0,-2.5459,-2.6135,-2.6316,-2.5968,-2.6631,-2.6892,-2.6641,-2.6633,-2.6584,-2.646,-2.6135,-2.6237,-2.6869,-2.66,-2.6721,-2.7334,-2.6476,-2.5825,0.0,0.0,0.0,0.0,0.0,0.0,0.0,0.0,0.0,0.0,0.0,-2.5986,-2.595,0.0,0.0,0.0,-2.8145,-2.874,-2.9324,-2.9878,0.0,0.0,0.0,0.0,0.0,0.0,0.0,-3.2289,-3.2625,-3.3013,-3.366,-3.4717,-3.5411,-3.5429,-3.6033,-3.6592,-3.6906,0.0,-3.7254,-3.7863,-3.812,-3.7991,-3.7367,-3.7643,-3.7603,-3.6468,-3.5293,-3.4412,-3.3917,-3.3807,-3.3697,-3.3458,-3.3587,-3.344,-3.2339,-3.2983,-3.3204,-3.1845,-3.1104,-3.0443,-2.9597,-2.9002,-2.8637,-3.9531,-3.8574,-3.6152,-3.5547,-3.6055,-3.4485,-3.4691,-3.6016,-3.5182,-3.5635,-3.6927,-3.6021,-3.5562,-3.5352,-3.2996,0.0,-3.3204,-3.3223,-3.4093,-3.5704,-3.5704,-3.5704,-3.5704,-3.5704,-3.5665,-3.5593,-3.4858,-3.4394,-3.4104,-3.2648,-3.1429,-3.0482,-2.8823,-2.7166,-2.5629,-2.6174,-2.6014,-2.5032,-2.5759,-2.5973,-2.5728,-2.5701,-2.5721,-2.5686,-2.4922,-2.5231,-2.6693,-2.6098,-2.6433,-2.7873,-2.7287,-2.6665,-2.6245,0.0,0.0,0.0,0.0,0.0,0.0,0.0,0.0,0.0,0.0,0.0,0.0,0.0,0.0,0.0,-2.8361,0.0,-2.92,-2.9355,0.0,0.0,0.0,-3.0058,-3.0769,-3.0764,-3.1247,-3.2708,0.0,0.0,-3.4711,-3.4968,-3.5027,-3.5096,-3.5807,-3.656,-3.7309,-3.6758,-3.6835,-3.8175,-3.786,-3.7676,-3.8083,-3.8267,-3.779,-3.634,-3.489,-3.399,-3.3825,-3.3807,-3.3495,-3.2931,-3.333,-3.3348,-3.1782,-3.2708,-3.2907,-3.0723,-3.0259,-2.9929,-2.9004,-2.8718,-2.8657,-4.0762,-4.0469,-3.9199,-3.8418,-3.7949,-3.7539,-3.7553,-3.7791,-3.6964,-3.6762,-3.6985,-3.5521,-3.4471,-3.377,-3.3088,-3.3262,-3.4098,-3.4104,-3.4659,-3.5684,-3.5704,-3.5704,-3.5704,-3.5704,-3.5361,-3.4781,-3.5187,-3.4369,-3.2512,-3.2662,-3.1695,-2.9631,-2.8533,-2.7441,-2.6442,-2.6497,-2.6088,-2.5086,-2.5804,-2.5774,-2.4992,-2.4914,-2.4879,-2.487,-2.4684,-2.5051,-2.5995,-2.5883,-2.6219,-2.7111,-2.6853,-2.661,-2.6497,-2.5403,0.0,0.0,0.0,0.0,0.0,0.0,0.0,0.0,0.0,-2.5132,-2.4538,0.0,-2.5373,0.0,-2.8361,-2.9302,-2.928,-2.9817,0.0,0.0,-3.0779,-3.1269,-3.1258,-3.1895,-3.242,-3.2643,-3.3167,-3.366,-3.4064,-3.4619,-3.5261,-3.5899,-3.6156,-3.6358,-3.6541,-3.6431,-3.6413,-3.6798,-3.6725,-3.6652,-3.6872,-3.6872,-3.6541,-3.5481,-3.4968,-3.4527,-3.3917,-3.3807,-3.3733,-3.355,-3.366,-3.3385,-3.2449,-3.2643,-3.2441,-3.1359,-3.0965,-3.0418,-2.9033,-2.8662,-2.8612,-4.0625,-4.0586,-4.0098,-3.9629,-3.916,-3.8769,-3.8573,-3.847,-3.7629,-3.7208,-3.7056,-3.5729,-3.4433,-3.3249,-3.3204,-3.3218,-3.3295,-3.3291,-3.3732,-3.4543,-3.4955,-3.5129,-3.5148,-3.551,-3.5458,-3.4993,-3.5085,-3.4374,-3.2996,-3.2662,-3.1816,-3.0404,-2.9186,-2.8335,-2.7808,-2.6636,-2.573,-2.5206,-2.5488,-2.5359,-2.4802,-2.4692,-2.4629,-2.465,-2.465,-2.4839,-2.5237,-2.5256,-2.5611,-2.6358,-2.6312,-2.6196,-2.6058,-2.5389,-2.4798,0.0,0.0,0.0,0.0,0.0,0.0,0.0,0.0,0.0,0.0,0.0,-2.5875,-2.7836,-2.9142,-2.999,-3.0305,-3.0704,-3.0916,-3.0796,-3.129,-3.1708,-3.1911,-3.2416,-3.2877,-3.3104,-3.3532,-3.3807,-3.3807,-3.4192,-3.4784,-3.5587,-3.5422,-3.5605,-3.6593,-3.6556,-3.6285,-3.6285,-3.5973,-3.5881,-3.6211,-3.5973,-3.5573,-3.5096,-3.4711,-3.4289,-3.388,-3.3807,-3.3697,-3.3385,-3.355,-3.3403,-3.2357,-3.2706,-3.2779,-3.1744,-3.1432,-3.0862,-2.9419,-2.9011,-2.8864,-3.9785,-3.9883,-3.9883,-3.9961,-4.0,-3.9121,-3.8769,-3.8711,-3.7851,-3.7302,-3.6992,-3.6079,-3.4847,-3.3463,-3.3358,-3.2842,-3.2096,-3.2066,-3.2449,-3.3146,-3.3891,-3.4239,-3.4258,-3.5007,-3.5298,-3.5162,-3.4529,-3.4123,-3.3871,-3.2474,-3.1753,-3.1579,-3.008,-2.9306,-2.9186,-2.6863,-2.5587,-2.5442,-2.5088,-2.4933,-2.5026,-2.4821,-2.4748,-2.4848,-2.4765,-2.4655,-2.4634,-2.4615,-2.4943,-2.5589,-2.5738,-2.5679,-2.5465,-2.5417,-2.4915,0.0,-2.3625,0.0,0.0,0.0,0.0,0.0,0.0,0.0,0.0,-2.5745,-2.6832,-2.9202,-3.0111,-3.0854,-3.1535,-3.1708,-3.1715,-3.1587,-3.1666,-3.2003,-3.2669,-3.2748,-3.3005,-3.3715,-3.3807,-3.3807,-3.3807,-3.3807,-3.4087,-3.4839,-3.4564,-3.489,-3.6541,-3.6372,-3.5844,-3.5973,-3.5349,-3.5078,-3.5624,-3.5279,-3.4839,-3.4747,-3.4302,-3.3825,-3.3825,-3.3807,-3.3587,-3.3054,-3.3385,-3.333,-3.1947,-3.2889,-3.3275,-3.2082,-3.1987,-3.1524,-2.9962,-2.9349,-2.8991,-3.9254,-3.9879,-3.9879,-4.0269,-4.0797,-4.0015,-3.9647,-3.959,-3.873,-3.7558,-3.619,-3.5235,-3.4674,-3.4302,-3.3602,-3.3204,-3.3034,-3.2981,-3.3021,-3.318,-3.3297,-3.3339,-3.3339,-3.3513,-3.3223,-3.2604,-3.3073,-3.2643,-3.1313,-3.1637,-3.1463,-3.081,-2.9805,-2.9306,-2.9248,0.0,0.0,0.0,-2.5336,-2.518,-2.5747,-2.508,-2.5027,-2.5702,-2.5056,0.0,-2.4693,-2.4693,-2.4733,-2.4841,-2.5439,0.0,0.0,0.0,0.0,0.0,0.0,0.0,0.0,0.0,0.0,0.0,-2.4592,-2.4574,-2.4741,-2.5912,-2.7436,-2.9211,-3.0078,-3.0832,-3.1624,-3.2212,-3.2539,-3.2495,-3.3035,-3.3487,-3.3563,-3.355,-3.366,-3.377,-3.3807,-3.3807,-3.377,-3.3807,-3.4087,-3.4802,-3.4857,-3.4968,-3.5389,-3.489,-3.4321,-3.4247,-3.4211,-3.41,-3.4247,-3.4174,-3.4119,-3.4009,-3.3935,-3.3807,-3.3807,-3.3807,-3.3807,-3.355,-3.3678,-3.3733,-3.3348,-3.3623,-3.366,-3.3366,-3.3106,-3.2288,-3.0139,-2.9298,-2.8747,-3.8217,0.0,-3.9076,-3.9252,0.0,-3.9701,-3.941,-3.8573,-3.8143,-3.7225,-3.5975,-3.5507,-3.4821,-3.398,-3.3539,-3.2877,-3.2058,-3.2014,-3.1988,-3.1978,-3.2372,-3.2543,-3.252,-3.2947,-3.29,-3.2449,-3.2449,-3.2024,-3.1217,-3.1197,-3.1004,-3.0578,-3.0172,-2.994,-2.9901,-2.8649,-2.7503,-2.6513,-2.5438,-2.5095,-2.542,-2.4979,-2.4895,-2.5316,-2.4951,0.0,0.0,0.0,0.0,0.0,0.0,0.0,0.0,0.0,0.0,-2.4807,-2.4296,-2.4029,-2.4097,-2.4116,-2.422,-2.4482,-2.45,-2.4834,-2.5615,-2.6795,-2.8189,-2.9805,-3.0349,-3.1021,-3.2154,-3.2649,-3.2988,-3.3283,-3.3318,-3.3311,-3.3217,-3.2878,-3.2627,-3.2708,-3.2976,-3.3201,-3.3259,-3.36,-3.3935,-3.4289,-3.405,-3.3995,-3.4325,-3.4417,-3.427,-3.3899,-3.3807,-3.3807,-3.3807,-3.3807,-3.3807,-3.3807,-3.3807,-3.3807,-3.3807,-3.3807,-3.3807,-3.3807,-3.3807,-3.3807,-3.377,-3.3495,-3.329,-3.335,-3.2596,-3.1476,-3.0068,-2.9559,-2.8881,-3.7161,-3.7376,-3.8078,-3.8058,-3.7629,-3.8899,-3.8547,-3.7083,0.0,0.0,0.0,-3.5837,-3.49,-3.3416,-3.3378,-3.2441,-3.0867,-3.0961,-3.0908,-3.0743,-3.1449,-3.1752,-3.1718,-3.2419,-3.2706,-3.2614,-3.1937,-3.1584,-3.156,-3.0907,-3.0617,-3.0617,-3.0617,-3.0617,-3.0482,-2.8844,-2.7585,-2.679,-2.5594,-2.5005,-2.511,-2.4877,-2.4794,-2.4933,-2.4782,-2.4681,-2.4681,-2.4681,-2.4681,-2.4681,-2.4681,-2.4684,-2.469,-2.469,-2.4584,-2.4293,-2.4266,-2.4238,-2.4183,-2.4173,-2.4257,-2.4482,-2.463,-2.528,-2.6609,-2.7427,-2.8579,-3.0251,-3.0511,-3.1177,-3.2548,-3.2696,-3.2932,-3.3524,-3.2945,-3.2557,-3.2655,-3.1955,-3.1667,-3.1906,-3.2439,-3.272,-3.2992,-3.3482,-3.3755,-3.359,-3.3314,-3.297,-3.3576,-3.4243,-3.4435,-3.3935,-3.3807,-3.3807,-3.3807,-3.3807,-3.3807,-3.3807,-3.3807,-3.3807,-3.3807,-3.3807,-3.3807,-3.3807,-3.3807,-3.3807,-3.3752,-3.3201,-3.2747,-3.302,-3.1637,-3.0239,-2.9871,-2.9581,-2.8833,-3.6621,-3.7304,-3.7442,-3.7852,-3.8379,-3.7872,-3.7109,-3.6191,-3.6184,-3.6108,-3.5952,-3.521,-3.4351,-3.3394,-3.3394,-3.2478,-3.0956,-3.1598,-3.1511,-3.0804,-3.0847,-3.0879,-3.0872,-3.0934,-3.0959,-3.094,-3.0832,-3.0772,-3.0752,-3.0656,-3.0617,-3.0617,-3.0617,-3.0617,-3.0458,-2.8762,-2.7768,-2.7598,-2.6056,-2.5465,-2.5899,-2.5234,-2.5189,-2.5756,-2.5083,-2.4681,-2.4681,-2.4681,-2.4681,-2.4681,-2.4681,-2.4684,-2.469,-2.469,-2.465,-2.4557,-2.4486,-2.4461,-2.4434,-2.4464,-2.4446,-2.4528,-2.5132,-2.5643,-2.5856,-2.6619,-2.7761,-2.9396,-3.0177,-3.0946,-3.1819,-3.1957,-3.199,-3.2061,-3.1927,-3.2088,-3.2601,-3.1979,-3.1949,-3.3173,-3.3105,-3.3019,-3.3566,-3.3862,-3.372,-3.324,-3.332,-3.3548,-3.308,-3.3537,-3.3894,-3.3825,-3.3807,-3.3807,-3.3807,-3.3807,-3.3807,-3.3807,-3.3807,-3.3807,-3.3807,-3.3807,-3.3807,-3.3807,-3.3807,-3.3807,-3.3788,-3.3151,-3.2597,-3.2367,-3.1224,-3.0056,-2.9253,-2.8704,-2.8065,-3.6179,-3.659,-3.7099,-3.7262,-3.7145,-3.6753,-3.6383,-3.6012,-3.6019,-3.6002,-3.5963,-3.5577,-3.4933,-3.4132,-3.4095,-3.3159,-3.1578,-3.1933,-3.166,-3.0879,-3.0816,-3.0788,-3.0756,-3.0741,-3.0676,-3.0639,-3.0613,-3.0607,-3.0614,-3.0606,-3.0617,-3.0617,-3.0617,-3.0617,-3.0477,-2.8801,-2.7909,-2.787,-2.6119,-2.5323,-2.552,-2.5132,-2.5057,-2.5389,-2.4941,-2.4681,-2.4681,-2.4681,-2.4681,-2.4681,-2.4681,-2.4692,-2.4676,-2.4695,-2.4679,-2.4658,-2.4623,-2.458,-2.4555,-2.4513,-2.4515,-2.4515,-2.4824,-2.5262,-2.5671,-2.6832,-2.8059,-2.9248,-2.975,-3.0288,-3.105,-3.1143,-3.1318,-3.1711,-3.1343,-3.1198,-3.1385,-3.0808,-3.0789,-3.1873,-3.2157,-3.2477,-3.3309,-3.3746,-3.3906,-3.3499,-3.3481,-3.2908,-3.1763,-3.2527,-3.3237,-3.323,-3.3548,-3.381,-3.382,-3.3807,-3.3807,-3.3807,-3.3807,-3.3807,-3.3807,-3.3807,-3.3807,-3.3807,-3.3807,-3.3807,-3.377,-3.2642,-3.1979,-3.1769,-3.0225,-2.8994,-2.8551,-2.8074,-2.7415,-3.5846,-3.593,-3.6638,-3.6559,-3.5981,-3.5981,-3.5986,-3.6012,-3.6012,-3.6012,-3.6013,-3.6018,-3.5534,-3.4753,-3.4892,-3.3937,-3.2297,-3.2317,-3.1849,-3.0971,-3.0914,-3.0878,-3.0819,-3.0818,-3.0768,-3.0719,-3.0653,-3.0613,-3.0639,-3.0618,-3.0601,-3.0602,-3.0617,-3.052,-3.0288,-2.8784,-2.7894,-2.7615,-2.6048,-2.5176,-2.5143,-2.505,-2.4955,-2.4902,-2.4808,-2.4719,-2.4707,-2.4681,-2.4681,-2.4681,-2.4681,-2.4681,-2.4681,-2.4681,-2.4692,-2.4687,-2.469,-2.4666,-2.4607,-2.4555,-2.4512,-2.4522,-2.485,-2.5326,-2.6005,-2.7464,-2.8579,-2.9043,-2.9285,-2.9704,-3.0196,-3.0326,-3.0586,-3.1143,-3.0672,-3.052,-3.0676,-3.0032,-3.0039,-3.1073,-3.1686,-3.2279,-3.3006,-3.35,-3.3586,-3.3346,-3.2816,-3.1781,-3.0856,-3.1718,-3.2459,-3.2674,-3.3263,-3.3845,-3.3834,-3.382,-3.3807,-3.3807,-3.3807,-3.3807,-3.3788,-3.3697,-3.3532,-3.3458,-3.3275,-3.3146,-3.3078,-3.1905,-3.1016,-3.0858,-2.9322,-2.7925,-2.8,-2.7597,-2.7088,-3.5729,-3.5729,-3.5842,-3.5882,-3.5914,-3.5916,-3.594,-3.5988,-3.601,-3.6012,-3.5991,-3.6012,-3.5525,-3.4882,-3.5507,-3.4453,-3.2288,-3.2916,-3.2411,-3.1007,-3.0913,-3.0875,-3.0877,-3.082,-3.0796,-3.0793,-3.0711,-3.0694,-3.0686,-3.0594,-3.0599,-3.0612,-3.0617,-3.0177,-2.9399,-2.8474,-2.7619,-2.6822,-2.5916,-2.5406,-2.5279,-2.5283,-2.5162,-2.4908,-2.4888,-2.4811,-2.4712,-2.4681,-2.4681,-2.4681,-2.4681,-2.4681,-2.4681,-2.4681,-2.4681,-2.47,-2.4687,-2.4674,-2.4615,-2.4599,-2.4564,-2.4623,-2.5863,-2.6684,-2.6851,-2.8283,-2.8932,-2.8636,-2.9008,-2.9444,-2.95,-2.9556,-2.9675,-2.9909,-2.9768,-3.0036,-3.1233,-3.0946,-3.1336,-3.3628,-3.3059,-3.3145,-3.3684,-3.343,-3.2799,-3.2175,-3.1544,-3.0932,-3.0609,-3.1229,-3.1807,-3.196,-3.2883,-3.3766,-3.3868,-3.3829,-3.382,-3.382,-3.3807,-3.377,-3.3623,-3.317,-3.2711,-3.2669,-3.221,-3.1892,-3.1695,-3.0688,-2.9981,-2.9887,-2.8838,-2.7635,-2.7349,-2.7203,-2.7085,-3.5655,-3.5641,-3.5676,-3.5737,-3.5787,-3.579,-3.5804,-3.5833,-3.5926,-3.594,-3.5945,-3.5985,-3.5797,-3.5447,-3.533,-3.4353,-3.291,-3.2717,-3.2016,-3.0902,-3.0846,-3.0847,-3.0849,-3.0814,-3.0818,-3.0839,-3.0797,-3.0765,-3.0647,-3.0185,-2.9911,-2.9823,-2.9349,-2.8889,-2.8494,-2.7677,-2.7039,-2.6687,-2.5913,-2.5472,-2.541,-2.5337,-2.5248,-2.5143,-2.5068,-2.4987,-2.4942,-2.4879,-2.4811,-2.4804,-2.4761,-2.4681,-2.4681,-2.4681,-2.4681,-2.4681,-2.4692,-2.4687,-2.466,-2.4655,-2.4856,-2.5269,-2.6016,-2.6837,-2.7751,-2.8563,-2.8991,-2.9183,-2.9315,-2.9429,-2.9511,-2.946,-2.9593,-2.9991,-3.0121,-3.0549,-3.1626,-3.1515,-3.1942,-3.3231,-3.3213,-3.3113,-3.3287,-3.2797,-3.1998,-3.1273,-3.0772,-3.0493,-3.0065,-3.0586,-3.101,-3.1214,-3.2322,-3.3376,-3.3773,-3.3881,-3.3855,-3.3855,-3.3855,-3.3768,-3.3146,-3.2894,-3.2472,-3.199,-3.1531,-3.1513,-3.2161,-3.1062,-3.0123,-2.9618,-2.8514,-2.7434,-2.7446,-2.7324,-2.7294,-3.5575,-3.5574,-3.563,-3.5655,-3.5659,-3.5659,-3.5696,-3.5702,-3.5801,-3.5852,-3.5894,-3.5947,-3.5828,-3.5563,-3.4959,-3.412,-3.3046,-3.2383,-3.1641,-3.0859,-3.08,-3.08,-3.08,-3.08,-3.0823,-3.0849,-3.0838,-3.0664,-3.0405,-2.9798,-2.9301,-2.8988,-2.8365,-2.7892,-2.7625,-2.7021,-2.6594,-2.6339,-2.5758,-2.5507,-2.5499,-2.5406,-2.5337,-2.5284,-2.5198,-2.5143,-2.509,-2.5,-2.4961,-2.4961,-2.4861,-2.4823,-2.4797,-2.4779,-2.4734,-2.4734,-2.4987,-2.5096,-2.5103,-2.5352,-2.5737,-2.6313,-2.6639,-2.7312,-2.8323,-2.8848,-2.93,-2.9813,-2.9708,-2.9579,-2.958,-2.9522,-2.971,-3.0217,-3.0437,-3.092,-3.1663,-3.1961,-3.2462,-3.3175,-3.3447,-3.3101,-3.2692,-3.2165,-3.1496,-3.0511,-3.0437,-3.0307,-2.9723,-3.0103,-3.0631,-3.062,-3.1751,-3.2748,-3.3474,-3.3823,-3.3865,-3.3821,-3.3766,-3.3267,-3.259,-3.2362,-3.1885,-3.1091,-3.0944,-3.0699,-3.0635,-3.0157,-2.9816,-2.9402,-2.8461,-2.7436,-2.7481,-2.7436,-2.745,-3.5488,-3.5494,-3.5501,-3.5547,-3.5612,-3.5612,-3.565,-3.5681,-3.5698,-3.5783,-3.5878,-3.5914,-3.5492,-3.4763,-3.4645,-3.3749,-3.2325,-3.2091,-3.1602,-3.0839,-3.08,-3.08,-3.08,-3.08,-3.0801,-3.0803,-3.0727,-3.0327,-2.9588,-2.9453,-2.904,-2.8188,-2.8006,-2.7607,-2.6967,-2.6756,-2.6362,-2.5704,-2.5569,-2.5507,-2.5507,-2.5484,-2.5419,-2.5327,-2.5303,-2.5238,-2.5132,-2.509,-2.5084,-2.5084,-2.5061,-2.5061,-2.5055,-2.4942,-2.4851,-2.4817,-2.5596,-2.6117,-2.6195,-2.6822,-2.7396,-2.7593,-2.8094,-2.866,-2.8827,-2.9429,-2.9884,-3.0143,-3.0004,-2.9828,-2.9662,-2.9711,-2.97,-2.9744,-3.0251,-3.0995,-3.1812,-3.2518,-3.325,-3.3863,-3.3893,-3.328,-3.2091,-3.1831,-3.0976,-3.0095,-3.0113,-3.0251,-2.9731,-3.0065,-3.0471,-3.0591,-3.1179,-3.2031,-3.2797,-3.3377,-3.3788,-3.3878,-3.3521,-3.2838,-3.2156,-3.1531,-3.087,-3.0228,-2.9831,-2.9424,-2.8923,-2.8613,-2.8457,-2.825,-2.8135,-2.7617,-2.7733,-2.7659,-2.7627,-3.55,-3.55,-3.55,-3.5515,-3.5522,-3.5541,-3.5566,-3.5575,-3.5614,-3.5665,-3.572,-3.5833,-3.5139,-3.3791,-3.3836,-3.3222,-3.211,-3.1524,-3.1094,-3.08,-3.08,-3.08,-3.08,-3.08,-3.08,-3.0722,-3.0255,-2.9577,-2.8745,-2.8183,-2.7709,-2.731,-2.6759,-2.633,-2.6076,-2.599,-2.5786,-2.5546,-2.5515,-2.5507,-2.5511,-2.5507,-2.5472,-2.5427,-2.5419,-2.5387,-2.536,-2.5274,-2.5233,-2.5233,-2.5149,-2.509,-2.5084,-2.5068,-2.5019,-2.5057,-2.5825,-2.6333,-2.6435,-2.7109,-2.7867,-2.8396,-2.8772,-2.9231,-2.9673,-3.0068,-3.0303,-3.0322,-3.0266,-3.011,-3.0014,-3.0166,-3.0515,-3.0908,-3.1199,-3.1812,-3.2878,-3.3187,-3.3305,-3.3826,-3.3392,-3.237,-3.1812,-3.092,-3.0076,-2.9564,-2.9657,-2.9665,-2.9638,-3.0084,-3.0361,-2.995,-3.0623,-3.152,-3.1519,-3.2594,-3.3346,-3.3727,-3.3652,-3.3176,-3.2573,-3.1745,-3.1054,-3.0797,-2.9989,-2.9795,-2.9833,-2.962,-2.9068,-2.8313,-2.811,-2.7918,-2.8087,-2.789,-2.7786,-3.55,-3.55,-3.55,-3.55,-3.55,-3.55,-3.55,-3.5494,-3.5547,-3.5568,-3.5614,-3.5736,-3.4996,-3.3776,-3.3457,-3.2893,-3.2035,-3.1185,-3.08,-3.08,-3.08,-3.08,-3.08,-3.08,-3.08,-3.0665,-2.9982,-2.9162,-2.8285,-2.7417,-2.6854,-2.6484,-2.5877,-2.5607,-2.5589,-2.5553,-2.5536,-2.551,-2.5511,-2.5519,-2.5519,-2.5515,-2.5507,-2.5507,-2.5507,-2.5507,-2.5507,-2.541,-2.5355,-2.5351,-2.5274,-2.5222,-2.5171,-2.5165,-2.5149,-2.5216,-2.6213,-2.6849,-2.7014,-2.7906,-2.8831,-2.9369,-2.9534,-2.9855,-3.0348,-3.0441,-3.0451,-3.0449,-3.0422,-3.0315,-3.0275,-3.0579,-3.0959,-3.1152,-3.128,-3.1812,-3.2841,-3.2748,-3.2853,-3.3027,-3.224,-3.1533,-3.1273,-3.0196,-2.9532,-2.9294,-2.9254,-2.9262,-2.9241,-2.9731,-2.9973,-2.9167,-2.9954,-3.0567,-3.0683,-3.1302,-3.2671,-3.3233,-3.3362,-3.3066,-3.2831,-3.1997,-3.1458,-3.1231,-3.109,-3.0978,-3.0815,-3.0638,-2.9929,-2.9002,-2.8481,-2.8197,-2.8151,-2.7996,-2.7883,-3.55,-3.55,-3.55,-3.55,-3.55,-3.55,-3.55,-3.5488,-3.5494,-3.5528,-3.5585,-3.5604,-3.5122,-3.4319,-3.3595,-3.2825,-3.1958,-3.1173,-3.0798,-3.08,-3.08,-3.08,-3.08,-3.08,-3.0722,-3.0644,-2.9963,-2.9123,-2.8167,-2.7369,-2.6609,-2.5871,-2.5701,-2.5626,-2.5601,-2.5588,-2.5573,-2.5522,-2.5517,-2.5518,-2.5515,-2.5519,-2.5511,-2.5507,-2.5507,-2.5507,-2.5507,-2.5484,-2.5499,-2.5499,-2.5499,-2.5423,-2.5322,-2.5308,-2.5268,-2.5502,-2.6814,-2.7694,-2.7979,-2.9395,-3.0279,-3.0414,-3.053,-3.0487,-3.0535,-3.0545,-3.0496,-3.0481,-3.0449,-3.0352,-3.0324,-3.0666,-3.0729,-2.9936,-3.0433,-3.0827,-3.1032,-3.1422,-3.1819,-3.1849,-3.1236,-3.0689,-3.0474,-2.9885,-2.9291,-2.9112,-2.9003,-2.8959,-2.8949,-2.9555,-2.9399,-2.9047,-2.9541,-3.0225,-3.0048,-3.0005,-3.1483,-3.2657,-3.2669,-3.2575,-3.2702,-3.2205,-3.1947,-3.1715,-3.1874,-3.1709,-3.064,-3.0406,-2.984,-2.908,-2.8729,-2.8432,-2.8326,-2.8206,-2.7929,-3.55,-3.55,-3.55,-3.55,-3.55,-3.55,-3.55,-3.55,-3.55,-3.5527,-3.5541,-3.5568,-3.512,-3.4304,-3.3557,-3.2785,-3.1963,-3.1148,-3.0742,-3.0777,-3.08,-3.08,-3.08,-3.08,-3.0509,-3.0021,-2.9729,-2.8812,-2.7621,-2.7113,-2.6547,-2.5868,-2.5683,-2.5682,-2.566,-2.5634,-2.5598,-2.5571,-2.5518,-2.5517,-2.5522,-2.5511,-2.5523,-2.5511,-2.5507,-2.5507,-2.5507,-2.5507,-2.5507,-2.5507,-2.5507,-2.5476,-2.5455,-2.5447,-2.5689,-2.6246,-2.7272,-2.826,-2.8878,-2.9863,-3.0617,-3.0617,-3.0617,-3.0617,-3.0617,-3.0588,-3.0554,-3.0501,-3.0481,-3.0444,-3.0441,-3.042,-3.0421,-3.0424,-3.0526,-3.0782,-3.1143,-3.1533,-3.1775,-3.1701,-3.1087,-3.066,-3.0423,-2.9765,-2.9089,-2.8968,-2.8803,-2.8724,-2.9251,-2.9836,-3.0359,-3.0022,-3.0245,-3.008,-2.998,-2.9839,-3.0514,-3.1765,-3.212,-3.2299,-3.2421,-3.2327,-3.2131,-3.2117,-3.231,-3.1923,-3.0866,-3.0154,-2.9682,-2.9244,-2.8896,-2.8709,-2.861,-2.8383,-2.811,-3.55,-3.55,-3.55,-3.55,-3.55,-3.55,-3.55,-3.55,-3.55,-3.55,-3.5501,-3.5534,-3.5282,-3.4604,-3.3621,-3.2858,-3.2278,-3.1206,-3.0677,-3.0728,-3.0795,-3.0795,-3.0767,-3.0765,-3.0552,-2.997,-2.9412,-2.8557,-2.7504,-2.6821,-2.6235,-2.5789,-2.5702,-2.5703,-2.5703,-2.5624,-2.5609,-2.5609,-2.5568,-2.5544,-2.5547,-2.5526,-2.5511,-2.5523,-2.5511,-2.5507,-2.5507,-2.5507,-2.5507,-2.5507,-2.5507,-2.5507,-2.5526,-2.5778,-2.6184,-2.6783,-2.7789,-2.8741,-2.9321,-3.0075,-3.0617,-3.0617,-3.0617,-3.0617,-3.0617,-3.0617,-3.0588,-3.0554,-3.052,-3.049,-3.0406,-3.0215,-3.022,-3.033,-3.0243,-3.0429,-3.086,-3.092,-3.0883,-3.0694,-3.0324,-3.0087,-2.981,-2.9412,-2.8779,-2.8682,-2.8484,-2.8375,-2.9093,-2.9866,-3.011,-3.0234,-3.0133,-3.0008,-3.0025,-2.9902,-2.9753,-3.0663,-3.1589,-3.1904,-3.2176,-3.1899,-3.1654,-3.1779,-3.1931,-3.1638,-3.0704,-3.0294,-2.9849,-2.9458,-2.9052,-2.8742,-2.8563,-2.8482,-2.8273,-3.55,-3.55,-3.55,-3.55,-3.55,-3.55,-3.55,-3.55,-3.55,-3.55,-3.5488,-3.5501,-3.5475,-3.5091,-3.373,-3.2952,-3.2701,-3.1309,-3.06,-3.0639,-3.0715,-3.0735,-3.0689,-3.0704,-3.065,-3.0408,-2.9302,-2.8514,-2.8087,-2.6898,-2.5765,-2.5728,-2.5703,-2.5703,-2.5703,-2.5638,-2.5601,-2.5619,-2.5619,-2.5608,-2.557,-2.5534,-2.5506,-2.5518,-2.5523,-2.5511,-2.5507,-2.5507,-2.5507,-2.5507,-2.5507,-2.5507,-2.5642,-2.6242,-2.6513,-2.6721,-2.8296,-2.8992,-2.9418,-3.0095,-3.0598,-3.0617,-3.0617,-3.0617,-3.0617,-3.0617,-3.0617,-3.0593,-3.0554,-3.0465,-3.034,-3.0136,-2.9961,-2.9744,-2.9748,-2.9708,-2.9465,-2.9537,-2.9675,-2.9569,-2.9197,-2.9021,-2.9125,-2.8743,-2.8433,-2.8237,-2.8125,-2.8099,-2.8399,-2.915,-2.9539,-2.9804,-3.0147,-3.0315,-3.0443,-3.0152,-2.9998,-3.0249,-3.113,-3.1568,-3.1912,-3.166,-3.1433,-3.1541,-3.1376,-3.107,-3.0794,-3.0324,-2.9967,-2.9633,-2.9207,-2.8757,-2.857,-2.8545,-2.8495,-3.55,-3.55,-3.55,-3.55,-3.55,-3.55,-3.55,-3.55,-3.55,-3.55,-3.55,-3.55,-3.55,-3.5295,-3.3731,-3.2949,-3.2589,-3.1313,-3.056,-3.0593,-3.0626,-3.0642,-3.0626,-3.0643,-3.0647,-3.0585,-3.0016,-2.9471,-2.8359,-2.7676,-2.6877,-2.5726,-2.5772,-2.5734,-2.5697,-2.5703,-2.5682,-2.5658,-2.5645,-2.5598,-2.5595,-2.5581,-2.5537,-2.5522,-2.5515,-2.5507,-2.5511,-2.5507,-2.5507,-2.5507,-2.5507,-2.5507,-2.5526,-2.5797,-2.6261,-2.688,-2.7735,-2.8711,-2.9345,-3.008,-3.0564,-3.0617,-3.0616,-3.0617,-3.0617,-3.0617,-3.0617,-3.0617,-3.0588,-3.0535,-3.0485,-3.0291,-3.0032,-2.9742,-2.957,-2.946,-2.9399,-2.9388,-2.9388,-2.9357,-2.9186,-2.9099,-2.8953,-2.865,-2.8295,-2.816,-2.7993,-2.7956,-2.831,-2.878,-2.9358,-3.0192,-3.061,-3.0806,-3.0823,-3.0506,-3.0301,-3.0214,-3.0717,-3.1268,-3.1556,-3.1642,-3.147,-3.1445,-3.0849,-3.0477,-3.0469,-3.0261,-2.9998,-2.9554,-2.93,-2.8828,-2.8779,-2.8737,-2.8731,-3.55,-3.55,-3.55,-3.55,-3.55,-3.55,-3.55,-3.55,-3.55,-3.55,-3.55,-3.55,-3.55,-3.5327,-3.4064,-3.3236,-3.28,-3.1609,-3.0868,-3.0491,-3.05,-3.0522,-3.0552,-3.0564,-3.0591,-3.0494,-2.9925,-2.9102,-2.8296,-2.7915,-2.7142,-2.6468,-2.6235,-2.6254,-2.6255,-2.5853,-2.5702,-2.5684,-2.5661,-2.563,-2.5602,-2.5614,-2.5578,-2.5551,-2.5554,-2.5553,-2.5511,-2.5531,-2.5525,-2.5511,-2.5507,-2.5507,-2.5584,-2.6227,-2.6749,-2.7271,-2.8068,-2.8956,-2.9648,-3.0059,-3.025,-3.0548,-3.0633,-3.0614,-3.0614,-3.0617,-3.0613,-3.0602,-3.0617,-3.0559,-3.043,-3.0222,-2.9977,-2.9724,-2.9512,-2.9407,-2.9407,-2.9388,-2.9388,-2.941,-2.9474,-2.944,-2.9332,-2.8917,-2.8633,-2.8383,-2.8009,-2.8044,-2.826,-2.8757,-2.9344,-3.0176,-3.0688,-3.0779,-3.1004,-3.0828,-3.1279,-3.1197,-3.0601,-3.1107,-3.0894,-3.1091,-3.0699,-3.0387,-3.0119,-2.9952,-2.995,-2.9831,-2.9468,-2.9125,-2.9033,-2.899,-2.8858,-2.8875,-2.887,-3.55,-3.55,-3.55,-3.55,-3.55,-3.55,-3.55,-3.55,-3.55,-3.55,-3.55,-3.55,-3.55,-3.5442,-3.4468,-3.3705,-3.2859,-3.1986,-3.1172,-3.065,-3.0425,-3.0444,-3.0477,-3.0482,-3.039,-3.0131,-2.8842,-2.8417,-2.8111,-2.7465,-2.7082,-2.6865,-2.6873,-2.6859,-2.6507,-2.6021,-2.5735,-2.5702,-2.5683,-2.5683,-2.5634,-2.5628,-2.562,-2.5588,-2.559,-2.5563,-2.5539,-2.5549,-2.5559,-2.5522,-2.5515,-2.561,-2.5797,-2.7133,-2.7718,-2.7978,-2.8571,-2.9346,-3.0162,-2.9881,-2.9917,-3.0514,-3.0675,-3.0653,-3.0618,-3.0611,-3.061,-3.0602,-3.0656,-3.0824,-3.0831,-3.0387,-3.0294,-3.0279,-2.9944,-2.9758,-2.9611,-2.9489,-2.9415,-2.9535,-2.9961,-2.9997,-2.994,-2.9647,-2.9362,-2.8919,-2.8553,-2.8559,-2.8757,-2.9157,-2.9636,-3.014,-3.0471,-3.0613,-3.0912,-3.1143,-3.1928,-3.2324,-3.1201,-3.088,-3.0079,-2.9921,-2.9439,-2.9155,-2.9411,-2.943,-2.929,-2.9089,-2.8961,-2.8949,-2.9007,-2.8888,-2.8767,-2.8905,-2.894,-3.55,-3.55,-3.55,-3.55,-3.55,-3.55,-3.55,-3.55,-3.55,-3.55,-3.55,-3.55,-3.55,-3.5462,-3.4622,-3.3725,-3.2852,-3.2025,-3.1237,-3.0481,-3.0404,-3.0416,-3.0411,-3.0417,-3.0094,-2.9573,-2.918,-2.8636,-2.8126,-2.7762,-2.7493,-2.6969,-2.688,-2.6619,-2.6094,-2.592,-2.5688,-2.5694,-2.5694,-2.57,-2.5683,-2.5663,-2.5659,-2.5627,-2.5611,-2.5595,-2.5582,-2.56,-2.5591,-2.5576,-2.561,-2.5824,-2.6364,-2.64,-2.6962,-2.7937,-2.8349,-2.8863,-2.9535,-3.0036,-3.0393,-3.0558,-3.0649,-3.0613,-3.0619,-3.0662,-3.063,-3.0733,-3.1154,-3.1713,-3.2056,-3.2173,-3.184,-3.1536,-3.144,-3.1368,-3.1145,-3.0188,-2.9861,-3.0171,-3.0312,-3.0411,-3.0912,-3.0508,-3.0069,-2.9525,-2.9298,-2.9224,-2.9415,-2.9663,-3.0073,-3.0525,-3.074,-3.1052,-3.1709,-3.2023,-3.257,-3.2965,-3.2017,-3.1053,-3.0251,-2.9504,-2.9308,-2.9138,-2.9044,-2.8994,-2.9005,-2.914,-2.9173,-2.9092,-2.9078,-2.9093,-2.9113,-2.9122,-2.9152,-3.55,-3.55,-3.55,-3.55,-3.55,-3.55,-3.55,-3.55,-3.55,-3.55,-3.55,-3.55,-3.55,-3.5462,-3.4968,-3.416,-3.2833,-3.1641,-3.0865,-3.0462,-3.0404,-3.0404,-3.0404,-3.0327,-2.9982,-2.9231,-2.8714,-2.8186,-2.7644,-2.7464,-2.7184,-2.6887,-2.6853,-2.6706,-2.6211,-2.5866,-2.5676,-2.5686,-2.5687,-2.5693,-2.5699,-2.57,-2.5702,-2.5663,-2.5641,-2.5636,-2.5638,-2.5667,-2.5642,-2.5636,-2.5658,-2.6025,-2.6819,-2.685,-2.7338,-2.7981,-2.8626,-2.8889,-2.9513,-2.9844,-3.025,-3.071,-3.0708,-3.0934,-3.1126,-3.1235,-3.1452,-3.1729,-3.2174,-3.2598,-3.2929,-3.2852,-3.2685,-3.2511,-3.2324,-3.2135,-3.1871,-3.11,-3.0641,-3.1117,-3.1315,-3.1556,-3.1652,-3.14,-3.1073,-3.0636,-2.9918,-2.9834,-3.0015,-3.0277,-3.0694,-3.1052,-3.1239,-3.1685,-3.249,-3.297,-3.3259,-3.3284,-3.273,-3.1838,-3.1041,-3.0268,-2.9568,-2.9331,-2.9028,-2.9017,-2.9035,-2.92,-2.9427,-2.9629,-2.9677,-2.9592,-2.9482,-2.939,-2.95,-3.55,-3.55,-3.55,-3.55,-3.55,-3.55,-3.55,-3.55,-3.55,-3.55,-3.55,-3.55,-3.55,-3.5481,-3.5462,-3.4481,-3.2852,-3.1288,-3.0442,-3.0423,-3.0404,-3.0404,-3.0404,-3.0327,-2.9948,-2.9083,-2.858,-2.7841,-2.7251,-2.6876,-2.7056,-2.6825,-2.678,-2.6596,-2.6461,-2.6024,-2.5609,-2.5655,-2.5658,-2.5684,-2.5689,-2.5689,-2.5693,-2.5696,-2.5698,-2.5683,-2.5682,-2.5683,-2.5683,-2.5694,-2.5702,-2.6224,-2.7003,-2.7374,-2.8191,-2.8273,-2.8886,-2.9287,-2.9747,-2.9886,-3.0163,-3.0858,-3.0825,-3.1053,-3.1498,-3.1748,-3.2035,-3.256,-3.2972,-3.3416,-3.3464,-3.3604,-3.3436,-3.3226,-3.2917,-3.2675,-3.253,-3.2345,-3.2266,-3.1994,-3.2156,-3.2379,-3.2525,-3.2423,-3.2093,-3.1714,-3.0987,-3.0537,-3.0767,-3.1135,-3.1674,-3.1874,-3.209,-3.2084,-3.2778,-3.3062,-3.3469,-3.3599,-3.3192,-3.2514,-3.1679,-3.078,-2.9986,-2.9358,-2.9085,-2.9062,-2.9083,-2.9225,-2.9555,-3.0026,-3.0136,-2.9953,-2.9806,-2.9659,-2.9898,-3.55,-3.55,-3.55,-3.55,-3.55,-3.55,-3.55,-3.55,-3.55,-3.55,-3.55,-3.55,-3.55,-3.5481,-3.5481,-3.4481,-3.2718,-3.1173,-3.0404,-3.0404,-3.0404,-3.0404,-3.0404,-3.0385,-2.9948,-2.93,-2.8896,-2.8489,-2.7806,-2.7676,-2.7257,-2.685,-2.6711,-2.6481,-2.5951,-2.5579,-2.5544,-2.5607,-2.5614,-2.5647,-2.5681,-2.5706,-2.5687,-2.5689,-2.5691,-2.5697,-2.5721,-2.5702,-2.5703,-2.5703,-2.5703,-2.6582,-2.7324,-2.6914,-2.748,-2.873,-2.8984,-2.9394,-3.0156,-3.0518,-3.063,-3.0782,-3.0768,-3.0827,-3.1169,-3.1631,-3.2264,-3.2729,-3.3606,-3.4432,-3.5201,-3.4969,-3.5027,-3.4901,-3.4599,-3.4418,-3.4156,-3.3872,-3.3508,-3.2939,-3.2993,-3.3068,-3.3143,-3.3127,-3.2776,-3.2549,-3.2203,-3.1832,-3.1877,-3.2429,-3.309,-3.3119,-3.305,-3.2932,-3.2978,-3.3067,-3.3302,-3.3685,-3.3463,-3.3037,-3.2187,-3.1194,-3.0405,-2.9776,-2.9277,-2.9067,-2.9143,-2.9329,-2.9794,-3.0356,-3.0338,-3.0283,-3.043,-3.0558,-3.0503,-3.55,-3.55,-3.55,-3.55,-3.55,-3.55,-3.55,-3.55,-3.55,-3.55,-3.55,-3.55,-3.55,-3.5385,-3.4968,-3.3872,-3.2295,-3.1038,-3.0442,-3.0404,-3.0404,-3.0404,-3.0404,-3.0404,-3.0173,-2.9871,-2.9737,-2.9069,-2.8011,-2.7876,-2.7479,-2.6848,-2.6651,-2.6236,-2.5645,-2.5469,-2.5508,-2.5554,-2.5587,-2.5607,-2.5648,-2.5679,-2.5706,-2.5687,-2.5687,-2.5688,-2.5742,-2.6174,-2.6063,-2.593,-2.6517,-2.7127,-2.7363,-2.7578,-2.7793,-2.9238,-2.957,-2.9648,-3.0293,-3.0525,-3.0856,-3.0834,-3.0798,-3.1269,-3.188,-3.2533,-3.2924,-3.3814,-3.4275,-3.5224,-3.5599,-3.5709,-3.5614,-3.547,-3.5296,-3.5032,-3.4784,-3.4545,-3.4094,-3.3596,-3.3531,-3.3579,-3.3765,-3.3645,-3.3369,-3.3276,-3.3226,-3.3116,-3.2958,-3.3336,-3.3868,-3.3819,-3.363,-3.3561,-3.3436,-3.3418,-3.3419,-3.3704,-3.3802,-3.3364,-3.2895,-3.2011,-3.1043,-3.0239,-2.9776,-2.9455,-2.9453,-2.9731,-3.0203,-3.0723,-3.1127,-3.1403,-3.1421,-3.1439,-3.1403,-3.55,-3.55,-3.55,-3.55,-3.55,-3.55,-3.55,-3.55,-3.55,-3.55,-3.55,-3.5481,-3.5385,-3.5,-3.4083,-3.291,-3.1621,-3.0808,-3.0442,-3.0404,-3.0404,-3.0404,-3.0404,-3.0404,-3.0346,-3.0269,-3.0269,-2.9621,-2.8511,-2.8236,-2.7678,-2.7189,-2.6895,-2.6593,-2.6142,-2.5927,-2.5747,-2.569,-2.5546,-2.5554,-2.5576,-2.5618,-2.5672,-2.5672,-2.5653,-2.5623,-2.5646,-2.6353,-2.6421,-2.6487,-2.7119,-2.7969,-2.771,-2.8164,-2.8926,-2.9745,-3.0371,-3.0215,-3.0293,-3.0469,-3.0996,-3.125,-3.1152,-3.1961,-3.2867,-3.3425,-3.4065,-3.5349,-3.5663,-3.5631,-3.5681,-3.5704,-3.5662,-3.5527,-3.5277,-3.4997,-3.4832,-3.4601,-3.4374,-3.4074,-3.3985,-3.3921,-3.3972,-3.4005,-3.3713,-3.362,-3.3588,-3.3697,-3.3569,-3.3642,-3.3998,-3.4111,-3.4092,-3.4092,-3.3999,-3.3919,-3.3907,-3.3963,-3.4025,-3.3771,-3.3413,-3.2936,-3.2004,-3.1128,-3.0528,-3.026,-3.0192,-3.0104,-3.0491,-3.1091,-3.1977,-3.2326,-3.2087,-3.2192,-3.2302,-3.55,-3.55,-3.55,-3.55,-3.55,-3.55,-3.55,-3.55,-3.55,-3.55,-3.55,-3.5442,-3.5077,-3.416,-3.275,-3.1981,-3.1436,-3.0797,-3.0336,-3.0336,-3.0355,-3.0361,-3.0398,-3.0404,-3.0404,-3.0404,-3.0404,-2.9852,-2.9159,-2.8967,-2.8549,-2.7909,-2.7717,-2.7598,-2.7228,-2.6738,-2.6496,-2.6435,-2.5847,-2.5518,-2.5568,-2.5587,-2.5534,-2.5534,-2.5534,-2.5534,-2.567,-2.64,-2.6744,-2.6773,-2.7582,-2.845,-2.8989,-2.9249,-2.9826,-3.0185,-3.0234,-3.0059,-3.0547,-3.0801,-3.125,-3.1699,-3.1914,-3.2519,-3.3354,-3.4149,-3.479,-3.5527,-3.5703,-3.5707,-3.5701,-3.5709,-3.5656,-3.5534,-3.5348,-3.5102,-3.4908,-3.4559,-3.434,-3.4245,-3.4086,-3.3959,-3.3934,-3.4011,-3.4061,-3.3985,-3.3965,-3.4036,-3.4099,-3.4074,-3.4074,-3.4161,-3.4216,-3.4216,-3.4197,-3.4173,-3.4173,-3.4191,-3.4142,-3.4074,-3.3808,-3.3479,-3.3108,-3.2286,-3.164,-3.0824,-3.0374,-3.0378,-3.0729,-3.1439,-3.237,-3.2596,-3.2546,-3.2748,-3.3036,-3.55,-3.55,-3.55,-3.55,-3.55,-3.55,-3.55,-3.55,-3.55,-3.55,-3.55,-3.55,-3.4769,-3.3385,-3.2077,-3.1263,-3.0803,-3.0347,-3.0126,-3.0161,-3.0195,-3.0235,-3.0254,-3.0349,-3.0404,-3.0367,-3.0385,-3.0308,-2.9865,-2.9712,-2.941,-2.8703,-2.8549,-2.8261,-2.8102,-2.7568,-2.7397,-2.7157,-2.6642,-2.6223,-2.6104,-2.5812,-2.552,-2.552,-2.5517,-2.5502,-2.5774,-2.6819,-2.7123,-2.7275,-2.8342,-2.9369,-2.9589,-2.9847,-3.0404,-3.0581,-3.0455,-3.0488,-3.082,-3.0918,-3.1387,-3.1953,-3.2324,-3.2773,-3.3887,-3.4836,-3.5366,-3.5717,-3.576,-3.5735,-3.5711,-3.5709,-3.5662,-3.5566,-3.5333,-3.5136,-3.4879,-3.4545,-3.4281,-3.4233,-3.4204,-3.4086,-3.3998,-3.4074,-3.4136,-3.4099,-3.408,-3.4111,-3.4161,-3.4161,-3.4161,-3.4204,-3.4216,-3.4216,-3.4197,-3.4166,-3.4185,-3.4204,-3.4204,-3.4148,-3.4129,-3.3863,-3.351,-3.3145,-3.2523,-3.1668,-3.0778,-3.104,-3.1734,-3.2261,-3.275,-3.2921,-3.3091,-3.3256,-3.3476,-3.5446,-3.55,-3.55,-3.55,-3.55,-3.55,-3.55,-3.55,-3.55,-3.55,-3.5339,-3.4973,-3.3909,-3.2609,-3.1503,-3.066,-3.0147,-2.9973,-2.9918,-2.995,-2.9985,-3.0044,-3.008,-3.0202,-3.0254,-3.0273,-3.0286,-3.0241,-3.0279,-3.0251,-2.9962,-2.9429,-2.9429,-2.9159,-2.8684,-2.8319,-2.8132,-2.7738,-2.7272,-2.7041,-2.6916,-2.623,-2.5924,-2.5734,-2.5598,-2.5522,-2.5916,-2.7062,-2.7493,-2.8024,-2.928,-3.0136,-2.9978,-3.0281,-3.055,-3.0675,-3.0572,-3.0838,-3.1022,-3.1152,-3.1406,-3.1992,-3.2851,-3.3633,-3.4785,-3.5683,-3.5928,-3.5811,-3.5775,-3.5741,-3.5703,-3.5679,-3.5656,-3.5483,-3.5235,-3.5047,-3.486,-3.4591,-3.4349,-3.4252,-3.4216,-3.4216,-3.4148,-3.4191,-3.4216,-3.4216,-3.4216,-3.4216,-3.4216,-3.4216,-3.4216,-3.4216,-3.4216,-3.4216,-3.4197,-3.4197,-3.4197,-3.4234,-3.4234,-3.4234,-3.4234,-3.4141,-3.39,-3.3542,-3.3202,-3.2968,-3.237,-3.257,-3.2729,-3.2814,-3.2959,-3.3466,-3.371,-3.382,-3.3802,-3.5331,-3.55,-3.5493,-3.5481,-3.55,-3.55,-3.55,-3.55,-3.5462,-3.5378,-3.4985,-3.3767,-3.2572,-3.1704,-3.0852,-3.0247,-3.0118,-2.9965,-2.9983,-2.9967,-2.991,-2.9891,-2.9923,-2.9958,-2.9973,-2.9996,-3.0085,-3.0122,-3.0157,-3.0305,-3.0297,-3.0308,-3.0077,-3.0192,-2.9885,-2.9275,-2.878,-2.8376,-2.7941,-2.7825,-2.7595,-2.7075,-2.6569,-2.6372,-2.588,-2.5693,-2.6496,-2.7542,-2.827,-2.8719,-2.9891,-3.0572,-3.0401,-3.0521,-3.062,-3.063,-3.0661,-3.1028,-3.1426,-3.1226,-3.1342,-3.2285,-3.3437,-3.4512,-3.5332,-3.5742,-3.5884,-3.5821,-3.5781,-3.5732,-3.5674,-3.5643,-3.562,-3.549,-3.5277,-3.5075,-3.4908,-3.4741,-3.4503,-3.4289,-3.429,-3.442,-3.4216,-3.4216,-3.4216,-3.4216,-3.4216,-3.4216,-3.4216,-3.4216,-3.4216,-3.4216,-3.4216,-3.4216,-3.4216,-3.4234,-3.429,-3.4346,-3.4376,-3.4364,-3.4346,-3.4234,-3.4098,-3.403,-3.3764,-3.3869,-3.3888,-3.3494,-3.3185,-3.3018,-3.3182,-3.3647,-3.3855,-3.386,-3.386,-3.5166,-3.5141,-3.5258,-3.5376,-3.55,-3.55,-3.55,-3.5385,-3.4949,-3.4299,-3.3734,-3.2348,-3.1588,-3.121,-3.0865,-3.0478,-3.0495,-3.0377,-3.033,-3.0152,-3.0001,-2.9764,-2.9732,-2.9828,-2.991,-2.9902,-2.9946,-3.0037,-3.0115,-3.0196,-3.0299,-3.0355,-3.0398,-3.0385,-3.0192,-3.0038,-2.9673,-2.9352,-2.8896,-2.8646,-2.8453,-2.7871,-2.739,-2.7332,-2.7198,-2.7024,-2.7497,-2.8255,-2.8777,-2.9337,-3.0149,-3.0458,-3.0617,-3.0604,-3.0617,-3.0602,-3.063,-3.1121,-3.1701,-3.1371,-3.126,-3.2285,-3.3672,-3.4902,-3.5391,-3.5644,-3.5859,-3.5838,-3.5768,-3.5741,-3.5692,-3.5643,-3.5589,-3.5509,-3.534,-3.5127,-3.504,-3.4918,-3.4831,-3.471,-3.4753,-3.4878,-3.455,-3.4216,-3.4216,-3.4216,-3.4216,-3.4216,-3.4216,-3.4216,-3.4216,-3.4216,-3.4216,-3.4346,-3.4364,-3.4383,-3.4401,-3.4525,-3.463,-3.4599,-3.4592,-3.4284,-3.4172,-3.4197,-3.4245,-3.4188,-3.4083,-3.3857,-3.3673,-3.3524,-3.3585,-3.3854,-3.3921,-3.3881,-3.3921,-3.4982,-3.4927,-3.5054,-3.5201,-3.5324,-3.5324,-3.5324,-3.5178,-3.4411,-3.3505,-3.2572,-3.195,-3.1605,-3.1456,-3.1204,-3.1154,-3.1069,-3.0827,-3.0639,-3.0325,-2.9922,-2.9607,-2.9589,-2.9654,-2.9727,-2.977,-2.9811,-2.9867,-2.9912,-3.0052,-3.0169,-3.0286,-3.0361,-3.0398,-3.0404,-3.0404,-3.0404,-3.0212,-2.989,-2.9467,-2.9371,-2.8703,-2.8242,-2.8165,-2.7928,-2.7997,-2.8263,-2.8819,-2.9269,-2.9714,-3.0221,-3.0554,-3.0617,-3.0617,-3.0617,-3.0617,-3.0704,-3.1079,-3.1763,-3.2016,-3.2019,-3.3203,-3.3926,-3.4746,-3.5176,-3.5644,-3.5898,-3.5829,-3.5805,-3.5778,-3.5722,-3.5656,-3.5628,-3.5541,-3.5338,-3.5149,-3.5275,-3.5254,-3.5222,-3.5147,-3.5345,-3.5659,-3.5547,-3.5219,-3.4717,-3.455,-3.4216,-3.4216,-3.4216,-3.4216,-3.4216,-3.4216,-3.4216,-3.4383,-3.4569,-3.4476,-3.4525,-3.5306,-3.5311,-3.5042,-3.4911,-3.4589,-3.4416,-3.4502,-3.4513,-3.4424,-3.4379,-3.4311,-3.419,-3.4049,-3.4043,-3.3985,-3.3972,-3.3959,-3.4049,-3.473,-3.4898,-3.4889,-3.4917,-3.4927,-3.4908,-3.4945,-3.485,-3.4015,-3.3162,-3.2521,-3.2684,-3.2617,-3.2194,-3.1811,-3.1806,-3.1626,-3.1062,-3.066,-3.044,-2.9828,-2.9494,-2.9429,-2.9451,-2.9521,-2.948,-2.956,-2.9635,-2.9662,-2.9888,-3.0052,-3.0182,-3.0305,-3.0404,-3.0404,-3.0404,-3.0404,-3.0385,-3.0288,-3.0231,-3.0038,-2.9429,-2.9165,-2.8967,-2.8621,-2.8703,-2.9102,-2.9307,-2.9718,-3.0201,-3.0405,-3.0593,-3.0617,-3.0617,-3.0617,-3.0617,-3.0617,-3.14,-3.2798,-3.3134,-3.3651,-3.4022,-3.4394,-3.4883,-3.5605,-3.5957,-3.5957,-3.5829,-3.5789,-3.5783,-3.5704,-3.5722,-3.5751,-3.5766,-3.5606,-3.5621,-3.58,-3.6245,-3.6355,-3.5902,-3.6259,-3.6662,-3.6625,-3.6383,-3.5572,-3.5033,-3.442,-3.4253,-3.4383,-3.429,-3.4309,-3.4773,-3.4791,-3.4736,-3.4866,-3.4531,-3.4705,-3.5609,-3.5844,-3.5378,-3.5184,-3.5015,-3.4891,-3.4849,-3.4772,-3.467,-3.4762,-3.486,-3.462,-3.436,-3.4093,-3.3979,-3.4011,-3.4049,-3.4136,-3.4539,-3.4446,-3.4618,-3.4615,-3.4491,-3.4753,-3.4908,-3.4737,-3.3856,-3.2966,-3.2324,-3.2337,-3.2235,-3.2086,-3.2426,-3.2396,-3.1908,-3.1722,-3.1273,-3.053,-2.9787,-2.9481,-2.9388,-2.9388,-2.9388,-2.9399,-2.9461,-2.9522,-2.9626,-2.9775,-2.9927,-3.0087,-3.028,-3.0373,-3.0404,-3.0404,-3.0404,-3.0404,-3.0385,-3.0385,-3.0365,-3.0096,-2.991,-2.9904,-2.9577,-2.9619,-2.9897,-2.9915,-3.0167,-3.0462,-3.0564,-3.0598,-3.0617,-3.0617,-3.0617,-3.0617,-3.066,-3.1432,-3.3075,-3.3997,-3.4486,-3.4438,-3.4531,-3.4941,-3.5156,-3.5742,-3.582,-3.5901,-3.5933,-3.5877,-3.5698,-3.6242,-3.6452,-3.6633,-3.6591,-3.6652,-3.6888,-3.759,-3.7832,-3.694,-3.6795,-3.7001,-3.7054,-3.7127,-3.6538,-3.5962,-3.5436,-3.5126,-3.5163,-3.4699,-3.455,-3.5398,-3.5714,-3.5442,-3.5213,-3.4878,-3.5018,-3.5829,-3.578,-3.5243,-3.5145,-3.5305,-3.5116,-3.4945,-3.4936,-3.4908,-3.4973,-3.5001,-3.486,-3.4622,-3.4386,-3.422,-3.4227,-3.4227,-3.4239,-3.4351,-3.4221,-3.4374,-3.4363,-3.4269,-3.4524,-3.4519,-3.4216,-3.3752,-3.317,-3.2585,-3.2557,-3.2704,-3.2853,-3.3064,-3.3243,-3.2593,-3.1961,-3.1682,-3.0846,-2.9842,-2.9508,-2.9388,-2.9388,-2.9388,-2.9388,-2.9399,-2.9451,-2.9513,-2.958,-2.979,-3.0066,-3.0241,-3.0311,-3.0361,-3.0404,-3.0404,-3.0404,-3.0404,-3.0404,-3.0385,-3.0346,-3.0346,-3.0346,-3.03,-3.0361,-3.0414,-3.0479,-3.0525,-3.055,-3.0583,-3.0617,-3.0617,-3.0617,-3.0617,-3.0617,-3.1366,-3.2027,-3.3297,-3.4815,-3.5019,-3.4683,-3.4899,-3.5117,-3.5195,-3.5742,-3.6133,-3.6233,-3.6177,-3.616,-3.6178,-3.6795,-3.6767,-3.6903,-3.6717,-3.6734,-3.6817,-3.7428,-3.7745,-3.6957,-3.7219,-3.7372,-3.7584,-3.7562,-3.7448,-3.6959,-3.6476,-3.6266,-3.6,-3.5491,-3.5213,-3.5974,-3.6322,-3.5944,-3.5572,-3.5204,-3.5504,-3.6126,-3.5752,-3.518,-3.5486,-3.5689,-3.5356,-3.5107,-3.5141,-3.5185,-3.516,-3.5107,-3.5072,-3.4954,-3.4774,-3.4614,-3.4502,-3.4469,-3.445,-3.416,-3.4216,-3.4191,-3.4153,-3.4191,-3.4245,-3.3836,-3.3199,-3.3887,-3.3719,-3.3076,-3.3757,-3.39,-3.4048,-3.416,-3.3974,-3.3633,-3.2432,-3.1849,-3.1255,-3.0177,-2.9741,-2.9425,-2.9388,-2.9388,-2.9388,-2.9388,-2.9399,-2.9419,-2.9541,-2.9784,-2.9988,-3.0109,-3.0202,-3.0305,-3.0373,-3.0398,-3.0404,-3.0404,-3.0404,-3.0404,-3.0404,-3.039,-3.0396,-3.0394,-3.0428,-3.0455,-3.0481,-3.0525,-3.0564,-3.0617,-3.0617,-3.0617,-3.0617,-3.0617,-3.1004,-3.2063,-3.28,-3.3423,-3.4865,-3.565,-3.5451,-3.572,-3.5937,-3.5918,-3.5918,-3.6133,-3.6433,-3.6489,-3.6648,-3.6824,-3.673,-3.6618,-3.6433,-3.6132,-3.608,-3.6024,-3.6324,-3.6668,-3.6882,-3.7643,-3.8037,-3.8465,-3.8494,-3.8302,-3.8072,-3.7704,-3.7642,-3.7281,-3.6483,-3.6359,-3.6768,-3.6855,-3.6323,-3.5987,-3.5813,-3.5561,-3.6037,-3.5676,-3.5252,-3.5668,-3.5886,-3.5538,-3.5339,-3.5432,-3.5439,-3.5346,-3.5331,-3.5365,-3.5223,-3.5077,-3.487,-3.4723,-3.4754,-3.4755,-3.3689,-3.4123,-3.3584,-3.3658,-3.4179,-3.4216,-3.4048,-3.3918,-3.4141,-3.4011,-3.3863,-3.4098,-3.4197,-3.4216,-3.4197,-3.3863,-3.3361,-3.276,-3.1868,-3.1106,-3.0392,-2.9898,-2.9564,-2.9388,-2.9388,-2.9388,-2.9388,-2.9388,-2.9429,-2.9541,-2.9608,-2.9741,-2.9981,-3.0115,-3.0235,-3.0336,-3.0367,-3.0404,-3.0404,-3.0404,-3.0404,-3.0404,-3.0396,-3.0394,-3.0411,-3.0444,-3.0476,-3.0491,-3.0535,-3.0574,-3.0598,-3.0617,-3.0617,-3.0617,-3.0636,-3.0791,-3.2005,-3.3164,-3.3514,-3.4831,-3.5828,-3.5918,-3.5996,-3.5996,-3.6016,-3.6035,-3.6152,-3.657,-3.6765,-3.6881,-3.7029,-3.6991,-3.6804,-3.6549,-3.6344,-3.6331,-3.6334,-3.6534,-3.681,-3.6935,-3.7701,-3.8282,-3.8766,-3.9267,-3.9077,-3.8971,-3.8834,-3.8649,-3.8383,-3.7561,-3.748,-3.7853,-3.7574,-3.7117,-3.685,-3.6674,-3.6147,-3.5807,-3.5588,-3.5503,-3.5776,-3.5885,-3.5621,-3.5538,-3.5615,-3.5577,-3.5467,-3.5537,-3.5696,-3.5491,-3.5327,-3.5132,-3.4992,-3.5094,-3.516,-3.3001,-3.3633,-3.3194,-3.3466,-3.4123,-3.4216,-3.4216,-3.4216,-3.4216,-3.4216,-3.4216,-3.4197,-3.4216,-3.4216,-3.4179,-3.3968,-3.354,-3.2685,-3.1905,-3.1385,-3.0456,-2.9861,-2.9489,-2.9388,-2.9388,-2.9388,-2.9407,-2.9388,-2.9456,-2.9481,-2.9551,-2.9777,-2.9962,-3.0092,-3.0228,-3.0349,-3.0398,-3.0404,-3.0404,-3.0404,-3.0404,-3.0404,-3.0408,-3.0411,-3.0428,-3.046,-3.051,-3.0525,-3.0564,-3.0593,-3.0617,-3.0617,-3.0617,-3.0617,-3.0617,-3.083,-3.1686,-3.2722,-3.3357,-3.4469,-3.5362,-3.5859,-3.6016,-3.6016,-3.6016,-3.6035,-3.6523,-3.7015,-3.7016,-3.7037,-3.7214,-3.7323,-3.7067,-3.6852,-3.6852,-3.6871,-3.6991,-3.7161,-3.7164,-3.7101,-3.7538,-3.8163,-3.8757,-3.9412,-3.9437,-3.868,-3.8391,-3.8444,-3.8486,-3.8326,-3.8462,-3.8924,-3.8481,-3.7966,-3.771,-3.736,-3.6853,-3.6387,-3.6135,-3.6074,-3.6147,-3.5923,-3.5692,-3.5712,-3.5808,-3.5769,-3.575,-3.5942,-3.6051,-3.5788,-3.5519,-3.5392,-3.5417,-3.5712,-3.5733,-3.2198,-3.3027,-3.299,-3.3484,-3.416,-3.4216,-3.4216,-3.4216,-3.4216,-3.4216,-3.4216,-3.4216,-3.4216,-3.4179,-3.4011,-3.3937,-3.3373,-3.2544,-3.1831,-3.1645,-3.0456,-2.9712,-2.9481,-2.9388,-2.9388,-2.9396,-2.9545,-2.9741,-2.9545,-2.9524,-2.9579,-2.988,-2.9902,-3.0034,-3.0248,-3.0355,-3.0398,-3.0404,-3.039,-3.0396,-3.039,-3.039,-3.0402,-3.0422,-3.0449,-3.05,-3.052,-3.0559,-3.0617,-3.0617,-3.0617,-3.0617,-3.0617,-3.0617,-3.0617,-3.0868,-3.1521,-3.2384,-3.3254,-3.426,-3.5128,-3.5684,-3.6016,-3.6016,-3.6016,-3.6016,-3.6484,-3.6934,-3.6947,-3.7269,-3.7497,-3.7381,-3.7145,-3.6735,-3.6498,-3.6633,-3.6836,-3.7135,-3.7448,-3.7518,-3.7974,-3.8536,-3.8823,-3.9433,-3.9452,-3.8403,-3.7905,-3.8133,-3.8397,-3.8579,-3.9105,-3.9637,-3.9342,-3.874,-3.8164,-3.7814,-3.7446,-3.7086,-3.683,-3.6887,-3.7096,-3.6565,-3.5808,-3.6192,-3.6642,-3.6231,-3.6154,-3.6308,-3.6231,-3.575,-3.5558,-3.5577,-3.578,-3.6139,-3.6036,-3.1575,-3.2971,-3.299,-3.3473,-3.416,-3.4216,-3.4216,-3.4216,-3.4216,-3.4216,-3.4216,-3.4216,-3.4216,-3.416,-3.3677,-3.3491,-3.3083,-3.2388,-3.1515,-3.1069,-3.0288,-2.9731,-2.9481,-2.9388,-2.9425,-2.9619,-2.988,-3.0288,-3.0214,-2.9884,-2.9528,-2.9727,-2.983,-3.0026,-3.0209,-3.0317,-3.0398,-3.039,-3.0402,-3.0408,-3.0416,-3.0419,-3.0422,-3.0449,-3.0495,-3.052,-3.0559,-3.0593,-3.0617,-3.0617,-3.0617,-3.0617,-3.0617,-3.0617,-3.0617,-3.0752,-3.1294,-3.2148,-3.3056,-3.3958,-3.4833,-3.5586,-3.5957,-3.5996,-3.6016,-3.6016,-3.6211,-3.6621,-3.7066,-3.7479,-3.7662,-3.7464,-3.717,-3.6632,-3.6138,-3.6376,-3.6661,-3.7224,-3.7716,-3.8116,-3.8535,-3.881,-3.9076,-3.9152,-3.9139,-3.8697,-3.8029,-3.7945,-3.8313,-3.8622,-3.9209,-3.9706,-4.0004,-3.9547,-3.8821,-3.8522,-3.8309,-3.7974,-3.7701,-3.7846,-3.8007,-3.7603,-3.7123,-3.7353,-3.7526,-3.7142,-3.6796,-3.6603,-3.6385,-3.5942,-3.5865,-3.6,-3.6173,-3.6491,-3.6204,-3.0604,-3.1968,-3.2711,-3.3454,-3.4123,-3.4216,-3.4216,-3.4216,-3.4216,-3.4216,-3.4216,-3.4216,-3.4216,-3.4216,-3.3696,-3.3138,-3.289,-3.2165,-3.1403,-3.0801,-3.0196,-2.9768,-2.9508,-2.9444,-2.976,-3.002,-3.0716,-3.1087,-3.0995,-3.0451,-3.006,-3.0179,-3.0191,-3.0068,-3.024,-3.0368,-3.0435,-3.0389,-3.0406,-3.0411,-3.0444,-3.0447,-3.0449,-3.0495,-3.051,-3.053,-3.0588,-3.0617,-3.0617,-3.0617,-3.0617,-3.0617,-3.0617,-3.0617,-3.0617,-3.0694,-3.1066,-3.1693,-3.2667,-3.3555,-3.444,-3.5098,-3.5898,-3.5937,-3.6016,-3.6055,-3.6328,-3.6785,-3.7587,-3.8047,-3.7976,-3.7812,-3.7351,-3.6832,-3.6331,-3.6196,-3.7112,-3.8084,-3.8423,-3.8723,-3.8977,-3.9073,-3.9253,-3.9253,-3.9192,-3.9031,-3.8375,-3.8178,-3.8454,-3.8689,-3.9284,-3.9794,-4.0079,-3.994,-3.9216,-3.9191,-3.9392,-3.9019,-3.8507,-3.8373,-3.8334,-3.8507,-3.8527,-3.8373,-3.8238,-3.8104,-3.7757,-3.7334,-3.6827,-3.6404,-3.6404,-3.6507,-3.6654,-3.6788,-3.6798,-2.9978,-3.0973,-3.2402,-3.3418,-3.4049,-3.413,-3.4136,-3.4111,-3.4111,-3.4111,-3.4105,-3.4099,-3.4136,-3.4197,-3.4011,-3.3454,-3.2741,-3.1812,-3.1106,-3.0381,-2.9768,-2.9545,-2.9527,-2.9593,-3.0233,-3.0846,-3.1459,-3.1794,-3.1924,-3.1232,-3.0868,-3.1031,-3.0774,-3.0361,-3.051,-3.0595,-3.067,-3.0475,-3.0433,-3.0444,-3.0474,-3.0485,-3.0481,-3.0486,-3.0501,-3.0554,-3.0588,-3.0617,-3.0617,-3.0617,-3.0617,-3.0617,-3.0617,-3.0617,-3.0617,-3.0656,-3.0675,-3.129,-3.2033,-3.2766,-3.361,-3.4434,-3.5351,-3.582,-3.5859,-3.6113,-3.6406,-3.6891,-3.7695,-3.8116,-3.803,-3.8032,-3.7538,-3.7167,-3.6685,-3.6473,-3.7704,-3.8765,-3.8988,-3.9258,-3.9419,-3.9457,-3.9304,-3.9304,-3.9169,-3.9027,-3.8911,-3.8834,-3.8827,-3.8985,-3.9344,-3.9791,-4.0131,-3.9853,-3.9404,-3.9654,-3.9977,-3.9592,-3.9053,-3.8815,-3.8757,-3.9161,-3.9246,-3.8892,-3.8757,-3.8834,-3.8469,-3.7969,-3.7469,-3.6865,-3.6673,-3.6654,-3.6776,-3.6981,-3.7454,-3.107,-3.2028,-3.2729,-3.3284,-3.3688,-3.3881,-3.3868,-3.3739,-3.3726,-3.3712,-3.3766,-3.3766,-3.3855,-3.4141,-3.3454,-3.2841,-3.2202,-3.1385,-3.0474,-2.9619,-2.9638,-2.9518,-2.9704,-3.0355,-3.1292,-3.1879,-3.2225,-3.224,-3.2646,-3.2076,-3.1769,-3.2086,-3.2068,-3.1722,-3.1429,-3.1405,-3.1254,-3.0898,-3.06,-3.0597,-3.0525,-3.053,-3.0491,-3.0501,-3.0535,-3.0588,-3.0617,-3.0617,-3.0617,-3.0617,-3.0617,-3.0617,-3.0617,-3.0617,-3.0617,-3.0684,-3.0665,-3.1223,-3.1927,-3.2571,-3.3418,-3.3984,-3.4785,-3.5293,-3.5469,-3.584,-3.6113,-3.6367,-3.703,-3.755,-3.7656,-3.8039,-3.7846,-3.7726,-3.7398,-3.7795,-3.8606,-3.8996,-3.9207,-3.9611,-3.9977,-3.9727,-3.9304,-3.9207,-3.8988,-3.8815,-3.8546,-3.8527,-3.8854,-3.9123,-3.945,-3.9823,-4.0227,-3.9861,-3.9469,-3.9988,-4.0208,-3.9881,-3.9688,-3.9585,-3.9708,-4.0073,-4.0035,-3.9604,-3.9631,-3.9765,-3.9284,-3.8642,-3.7911,-3.7334,-3.6885,-3.6731,-3.6949,-3.7392,-3.8058]},{"header":{"parameterUnit":"m.s-1","parameterCategory":1,"la1":31.0,"la2":29.5877,"lo1":-88.7671,"lo2":-86.6584,"dy":0.0162,"dx":0.0185,"nx":115,"ny":88,"refTime":"2026-05-08T00:00:00:Z","depth":0,"parameterNumber":3,"parameterNumberName":"V-component_of_WINDS"},"data":[0.0,0.0,0.0,0.0,0.0,0.0,0.0,0.0,0.0,0.0,0.0,0.0,0.0,0.0,0.0,0.0,0.0,0.0,0.0,0.0,0.0,0.0,0.0,0.0,0.0,0.0,0.0,0.0,0.0,0.0,0.0,0.0,0.0,0.0,0.0,0.0,0.0,0.0,0.0,0.0,0.0,0.0,0.0,0.0,0.0,0.0,0.0,0.0,0.0,0.0,0.0,0.0,0.0,0.0,0.0,0.0,0.0,0.0,0.0,0.0,0.0,0.0,0.0,0.0,0.0,0.0,0.0,0.0,0.0,0.0,0.0,0.0,0.0,0.0,0.0,0.0,0.0,0.0,0.0,0.0,0.0,0.0,0.0,0.0,0.0,0.0,0.0,0.0,0.0,0.0,0.0,0.0,0.0,0.0,0.0,0.0,0.0,0.0,0.0,0.0,0.0,0.0,0.0,0.0,0.0,0.0,0.0,0.0,0.0,0.0,0.0,0.0,0.0,0.0,0.0,0.0,0.0,0.0,0.0,0.0,0.0,0.0,0.0,0.0,0.0,0.0,0.0,0.0,0.0,0.0,0.0,0.0,0.0,0.0,0.0,0.0,0.0,0.0,0.0,0.0,0.0,0.0,0.0,0.0,0.0,0.0,0.0,0.0,0.0,0.0,0.0,0.0,0.0,0.0,0.0,0.0,0.0,0.0,0.0,0.0,0.0,0.0,0.0,0.0,0.0,0.0,0.0,0.0,0.0,0.0,0.0,0.0,0.0,0.0,0.0,0.0,0.0,0.0,0.0,0.0,0.0,0.0,0.0,0.0,0.0,0.0,0.0,0.0,0.0,0.0,0.0,0.0,0.0,0.0,0.0,0.0,0.0,0.0,0.0,0.0,0.0,0.0,0.0,0.0,0.0,0.0,0.0,0.0,0.0,0.0,0.0,0.0,0.0,0.0,0.0,0.0,0.0,0.0,0.0,0.0,0.0,0.0,0.0,0.0,0.0,0.0,0.0,0.0,0.0,0.0,0.0,0.0,0.0,0.0,0.0,0.0,0.0,0.0,0.0,0.0,0.0,0.0,0.0,0.0,0.0,0.0,0.0,0.0,0.0,0.0,0.0,0.0,0.0,0.0,0.0,0.0,0.0,0.0,0.0,0.0,0.0,0.0,0.0,0.0,0.0,0.0,0.0,0.0,0.0,0.0,0.0,0.0,0.0,0.0,0.0,0.0,0.0,0.0,0.0,0.0,0.0,0.0,0.0,0.0,0.0,0.0,0.0,0.0,0.0,0.0,0.0,0.0,0.0,0.0,0.0,0.0,0.0,0.0,0.0,0.0,0.0,0.0,0.0,0.0,0.0,0.0,0.0,0.0,0.0,0.0,0.0,0.0,0.0,0.0,0.0,0.0,0.0,0.0,0.0,0.0,0.0,0.0,0.0,0.0,0.0,0.0,0.0,0.0,0.0,0.0,0.0,0.0,0.0,0.0,0.0,0.0,0.0,0.0,0.0,0.0,0.0,0.0,0.0,0.0,0.0,0.0,0.0,0.0,0.0,0.0,0.0,0.0,0.0,0.0,0.0,0.0,0.0,0.0,0.0,0.0,0.0,0.0,0.0,0.0,0.0,0.0,0.0,0.0,0.0,0.0,0.0,0.0,0.0,0.0,0.0,0.0,0.0,0.0,0.0,0.0,0.0,0.0,0.0,0.0,0.0,0.0,0.0,0.0,0.0,0.0,0.0,0.0,0.0,0.0,0.0,0.0,0.0,0.0,0.0,0.0,0.0,0.0,0.0,0.0,0.0,0.0,0.0,0.0,0.0,0.0,0.0,0.0,0.0,0.0,0.0,0.0,0.0,0.0,0.0,0.0,0.0,0.0,0.0,0.0,0.0,0.0,0.0,0.0,0.0,0.0,0.0,0.0,0.0,0.0,0.0,0.0,0.0,0.0,0.0,0.0,0.0,0.0,0.0,0.0,0.0,0.0,0.0,0.0,0.0,0.0,0.0,0.0,0.0,0.0,0.0,0.0,0.0,0.0,0.0,0.0,0.0,0.0,0.0,0.0,0.0,0.0,0.0,0.0,0.0,0.0,0.0,0.0,0.0,0.0,0.0,0.0,0.0,0.0,0.0,0.0,0.0,0.0,0.0,0.0,0.0,0.0,0.0,0.0,0.0,0.0,0.0,0.0,0.0,0.0,0.0,0.0,0.0,0.0,0.0,0.0,0.0,0.0,0.0,0.0,0.0,0.0,0.0,0.0,0.0,0.0,0.0,0.0,0.0,0.0,0.0,0.0,0.0,0.0,0.0,0.0,0.0,0.0,0.0,0.0,0.0,0.0,0.0,0.0,0.0,0.0,0.0,0.0,0.0,0.0,0.0,0.0,0.0,0.0,0.0,0.0,0.0,0.0,0.0,0.0,0.0,0.0,0.0,0.0,0.0,0.0,0.0,0.0,0.0,0.0,0.0,0.0,0.0,0.0,0.0,0.0,0.0,0.0,0.0,0.0,0.0,0.0,0.0,0.0,0.0,0.0,0.0,0.0,0.0,0.0,0.0,0.0,0.0,0.0,0.0,0.0,0.0,0.0,0.0,0.0,0.0,0.0,0.0,0.0,0.0,0.0,0.0,0.0,0.0,0.0,0.0,0.0,0.0,0.0,0.0,0.0,0.0,0.0,0.0,0.0,0.0,0.0,0.0,0.0,0.0,0.0,0.0,0.0,0.0,0.0,0.0,0.0,0.0,0.0,0.0,0.0,0.0,0.0,0.0,0.0,0.0,0.0,0.0,0.0,0.0,0.0,0.0,0.0,0.0,0.0,0.0,0.0,0.0,0.0,0.0,0.0,0.0,0.0,0.0,0.0,0.0,0.0,0.0,0.0,0.0,0.0,0.0,0.0,0.0,0.0,0.0,0.0,0.0,0.0,0.0,0.0,0.0,0.0,0.0,0.0,0.0,0.0,0.0,0.0,0.0,0.0,0.0,0.0,0.0,0.0,0.0,0.0,0.0,0.0,0.0,0.0,0.0,0.0,0.0,0.0,0.0,0.0,0.0,0.0,0.0,0.0,0.0,0.0,0.0,0.0,0.0,0.0,0.0,0.0,0.0,0.0,0.0,0.0,0.0,0.0,0.0,0.0,0.0,0.0,0.0,0.0,0.0,0.0,0.0,0.0,0.0,0.0,0.0,0.0,0.0,0.0,0.0,0.0,0.0,0.0,0.0,0.0,0.0,0.0,0.0,0.0,0.0,0.0,0.0,0.0,0.0,0.0,0.0,0.0,0.0,0.0,0.0,0.0,0.0,0.0,0.0,0.0,0.0,0.0,0.0,0.0,0.0,0.0,0.0,0.0,0.0,0.0,0.0,0.0,0.0,0.0,0.0,0.0,0.0,0.0,0.0,0.0,0.0,0.0,0.0,0.0,0.0,0.0,0.0,0.0,0.0,0.0,0.0,0.0,0.0,0.0,0.0,0.0,0.0,0.0,0.0,0.0,0.0,0.0,0.0,0.0,0.0,0.0,0.0,0.0,0.0,0.0,0.0,0.0,0.0,0.0,0.0,0.0,0.0,0.0,0.0,0.0,0.0,0.0,0.0,0.0,0.0,0.0,0.0,0.0,0.0,0.0,0.0,0.0,0.0,0.0,0.0,0.0,0.0,0.0,0.0,0.0,0.0,0.0,0.0,0.0,0.0,0.0,0.0,0.0,0.0,0.0,0.0,0.0,0.0,0.0,0.0,0.0,0.0,0.0,0.0,0.0,0.0,0.0,0.0,0.0,0.0,0.0,0.0,0.0,0.0,0.0,0.0,0.0,0.0,0.0,0.0,0.0,0.0,0.0,0.0,0.0,0.0,0.0,0.0,0.0,0.0,0.0,0.0,0.0,0.0,0.0,0.0,0.0,0.0,0.0,0.0,0.0,0.0,0.0,0.0,0.0,0.0,0.0,0.0,0.0,0.0,0.0,0.0,0.0,0.0,0.0,0.0,0.0,0.0,0.0,0.0,0.0,0.0,0.0,0.0,0.0,0.0,0.0,0.0,0.0,0.0,0.0,0.0,0.0,0.0,0.0,0.0,0.0,0.0,0.0,0.0,0.0,0.0,0.0,0.0,0.0,0.0,0.0,0.0,0.0,0.0,0.0,0.0,0.0,0.0,0.0,0.0,0.0,0.0,0.0,0.0,0.0,0.0,0.0,0.0,0.0,0.0,0.0,0.0,0.0,0.0,0.0,0.0,0.0,0.0,0.0,0.0,0.0,0.0,0.0,0.0,0.0,0.0,0.0,0.0,0.0,-0.776,0.0,0.0,0.0,0.0,0.0,0.0,0.0,0.0,0.0,0.0,0.0,0.0,0.0,0.0,0.0,0.0,0.0,0.0,0.0,0.0,0.0,0.0,0.0,0.0,0.0,0.0,0.0,0.0,0.0,0.0,0.0,0.0,0.0,0.0,0.0,0.0,0.0,0.0,0.0,0.0,0.0,0.0,0.0,0.0,0.0,0.0,0.0,0.0,0.0,0.0,0.0,0.0,0.0,0.0,0.0,0.0,0.0,0.0,0.0,0.0,0.0,0.0,0.0,0.0,0.0,0.0,0.0,0.0,0.0,0.0,0.0,0.0,0.0,0.0,0.0,0.0,0.0,0.0,0.0,0.0,0.0,0.0,0.0,0.0,0.0,0.0,0.0,0.0,0.0,0.0,0.0,0.0,0.0,0.0,0.0,0.0,0.0,0.0,0.0,0.0,0.0,0.0,0.0,0.0,0.0,0.0,0.0,0.0,0.0,0.0,-0.8555,-0.8704,-0.8614,-0.8361,-0.7901,0.0,0.0,0.0,0.0,0.0,0.0,0.0,0.0,0.0,0.0,0.0,0.0,0.0,0.0,0.0,0.0,0.0,0.0,0.0,0.0,0.0,0.0,0.0,0.0,0.0,0.0,0.0,0.0,0.0,0.0,0.0,0.0,0.0,0.0,0.0,0.0,0.0,0.0,0.0,0.0,0.0,0.0,0.0,0.0,0.0,0.0,0.0,0.0,0.0,0.0,0.0,0.0,0.0,0.0,0.0,0.0,0.0,0.0,0.0,0.0,0.0,0.0,0.0,0.0,0.0,0.0,0.0,0.0,0.0,0.0,0.0,0.0,0.0,0.0,0.0,0.0,0.0,0.0,0.0,0.0,0.0,0.0,0.0,0.0,0.0,0.0,0.0,0.0,0.0,0.0,0.0,0.0,0.0,0.0,0.0,0.0,0.0,0.0,0.0,0.0,0.0,0.0,0.0,0.0,0.0,0.0,0.0,0.0,0.0,0.0,0.0,0.0,-0.911,-0.8909,-0.8105,0.0,0.0,0.0,0.0,0.0,0.0,0.0,0.0,0.0,0.0,0.0,0.0,0.0,0.0,0.0,0.0,0.0,0.0,0.0,0.0,0.0,0.0,0.0,0.0,0.0,0.0,0.0,0.0,0.0,0.0,0.0,0.0,0.0,0.0,0.0,0.0,0.0,0.0,0.0,0.0,0.0,0.0,0.0,0.0,0.0,0.0,0.0,0.0,0.0,0.0,0.0,0.0,0.0,0.0,0.0,0.0,0.0,0.0,0.0,0.0,0.0,0.0,0.0,0.0,0.0,0.0,0.0,0.0,0.0,0.0,0.0,0.0,0.0,0.0,0.0,0.0,0.0,0.0,0.0,0.0,0.0,0.0,0.0,0.0,0.0,0.0,0.0,0.0,0.0,0.0,0.0,0.0,0.0,0.0,0.0,0.0,0.0,0.0,0.0,0.0,0.0,0.0,0.0,0.0,0.0,0.0,0.0,0.0,0.0,0.0,-0.9122,-0.9233,-0.9596,0.0,-0.8674,0.0,0.0,0.0,0.0,0.0,0.0,0.0,0.0,0.0,0.0,0.0,0.0,0.0,0.0,0.0,0.0,0.0,0.0,0.0,0.0,0.0,0.0,0.0,0.0,0.0,0.0,0.0,0.0,0.0,0.0,0.0,0.0,0.0,0.0,0.0,0.0,0.0,0.0,0.0,0.0,0.0,0.0,0.0,0.0,0.0,0.0,0.0,0.0,0.0,0.0,0.0,0.0,0.0,0.0,0.0,0.0,0.0,0.0,0.0,0.0,0.0,0.0,0.0,0.0,0.0,0.0,0.0,0.0,0.0,0.0,0.0,0.0,0.0,0.0,0.0,0.0,0.0,0.0,0.0,0.0,0.0,0.0,0.0,0.0,0.0,0.0,0.0,0.0,0.0,0.0,0.0,0.0,0.0,0.0,0.0,0.0,0.0,0.0,0.0,0.0,0.0,0.0,0.0,0.0,0.0,0.0,0.0,0.0,0.0,0.0,-0.8654,-0.8488,-0.87,-0.889,0.0,0.0,0.0,0.0,0.0,0.0,0.0,0.0,0.0,0.0,0.0,0.0,0.0,0.0,0.0,0.0,0.0,0.0,0.0,0.0,0.0,0.0,0.0,0.0,0.0,0.0,0.0,0.0,0.0,0.0,0.0,0.0,0.0,0.0,0.0,0.0,0.0,0.0,0.0,0.0,0.0,0.0,0.0,0.0,0.0,0.0,0.0,0.0,0.0,0.0,0.0,0.0,0.0,0.0,0.0,0.0,0.0,0.0,0.0,0.0,0.0,0.0,0.0,0.0,0.0,0.0,0.0,0.0,0.0,0.0,0.0,0.0,0.0,0.0,0.0,0.0,0.0,0.0,0.0,0.0,0.0,0.0,0.0,0.0,0.0,0.0,0.0,0.0,0.0,0.0,0.0,0.0,0.0,0.0,0.0,0.0,0.0,0.0,0.0,0.0,0.0,0.0,0.0,0.0,0.0,0.0,0.0,0.0,0.0,0.0,-0.8257,-0.825,-0.8315,-0.827,-0.8543,-0.9159,0.0,0.0,0.0,0.0,0.0,0.0,0.0,0.0,0.0,0.0,0.0,0.0,0.0,0.0,0.0,0.0,0.0,0.0,0.0,0.0,0.0,0.0,0.0,0.0,0.0,0.0,0.0,0.0,0.0,0.0,0.0,0.0,0.0,0.0,0.0,0.0,0.0,0.0,0.0,0.0,0.0,0.0,0.0,0.0,0.0,0.0,0.0,0.0,0.0,0.0,0.0,0.0,0.0,0.0,0.0,0.0,0.0,0.0,0.0,0.0,0.0,0.0,0.0,0.0,0.0,0.0,0.0,0.0,0.0,0.0,0.0,0.0,0.0,0.0,0.0,0.0,0.0,0.0,0.0,0.0,0.0,0.0,0.0,0.0,0.0,0.0,0.0,0.0,0.0,0.0,0.0,0.0,0.0,0.0,0.0,0.0,0.0,0.0,0.0,0.0,0.0,0.0,0.0,0.0,0.0,0.0,0.0,0.0,-0.9479,-0.824,-0.811,-0.9261,-0.8817,-0.8859,0.0,0.0,0.0,0.0,0.0,0.0,0.0,0.0,0.0,0.0,0.0,0.0,0.0,0.0,0.0,0.0,0.0,0.0,0.0,0.0,0.0,0.0,0.0,0.0,0.0,0.0,0.0,0.0,0.0,0.0,0.0,0.0,0.0,0.0,0.0,0.0,0.0,0.0,0.0,0.0,0.0,0.0,0.0,0.0,0.0,0.0,0.0,0.0,0.0,0.0,0.0,0.0,0.0,0.0,0.0,0.0,0.0,0.0,0.0,0.0,0.0,0.0,0.0,0.0,0.0,0.0,0.0,0.0,0.0,0.0,0.0,0.0,0.0,0.0,0.0,0.0,0.0,0.0,0.0,0.0,0.0,0.0,0.0,0.0,0.0,0.0,0.0,0.0,0.0,0.0,0.0,0.0,0.0,0.0,0.0,0.0,0.0,0.0,0.0,0.0,0.0,0.0,0.0,0.0,0.0,0.0,0.0,0.0,0.0,-0.7272,-0.6709,-0.7429,-0.9435,-0.8402,-0.8487,0.0,0.0,0.0,0.0,0.0,0.0,0.0,0.0,0.0,0.0,0.0,0.0,0.0,0.0,0.0,0.0,0.0,0.0,0.0,0.0,0.0,0.0,0.0,0.0,0.0,0.0,0.0,0.0,0.0,0.0,0.0,0.0,0.0,0.0,0.0,0.0,0.0,0.0,0.0,0.0,0.0,0.0,0.0,0.0,0.0,0.0,0.0,0.0,0.0,0.0,0.0,0.0,0.0,0.0,0.0,0.0,0.0,0.0,0.0,0.0,0.0,0.0,0.0,0.0,0.0,0.0,0.0,0.0,0.0,0.0,0.0,0.0,0.0,0.0,0.0,0.0,0.0,0.0,0.0,0.0,0.0,0.0,0.0,0.0,0.0,0.0,0.0,0.0,0.0,0.0,0.0,0.0,0.0,0.0,0.0,0.0,0.0,0.0,0.0,0.0,0.0,0.0,0.0,0.0,0.0,0.0,0.0,0.0,0.0,-0.5829,0.0,-0.6942,-0.8656,-0.8032,-0.8211,0.0,0.0,0.0,0.0,0.0,0.0,0.0,0.0,0.0,0.0,0.0,0.0,0.0,0.0,0.0,0.0,0.0,0.0,0.0,0.0,0.0,0.0,0.0,0.0,0.0,0.0,0.0,0.0,0.0,0.0,0.0,0.0,0.0,0.0,0.0,0.0,0.0,0.0,0.0,0.0,0.0,0.0,0.0,0.0,0.0,0.0,0.0,0.0,0.0,0.0,0.0,0.0,0.0,0.0,0.0,0.0,0.0,0.0,0.0,0.0,0.0,0.0,0.0,0.0,0.0,0.0,0.0,0.0,0.0,0.0,0.0,0.0,0.0,0.0,0.0,0.0,0.0,0.0,0.0,0.0,0.0,0.0,0.0,0.0,0.0,0.0,0.0,0.0,0.0,0.0,0.0,0.0,0.0,0.0,0.0,0.0,0.0,0.0,0.0,0.0,0.0,0.0,0.0,0.0,0.0,0.0,0.0,0.0,-0.5926,-0.5642,-0.628,-0.6792,-0.6968,-0.7821,-0.8137,0.0,0.0,0.0,0.0,0.0,0.0,0.0,0.0,0.0,0.0,0.0,0.0,0.0,0.0,0.0,0.0,0.0,0.0,0.0,0.0,0.0,0.0,0.0,0.0,0.0,0.0,0.0,0.0,0.0,0.0,0.0,0.0,0.0,0.0,0.0,0.0,0.0,0.0,0.0,0.0,0.0,0.0,0.0,0.0,0.0,0.0,0.0,0.0,0.0,0.0,0.0,0.0,0.0,0.0,0.0,0.0,0.0,0.0,0.0,0.0,0.0,0.0,0.0,0.0,0.0,0.0,0.0,0.0,0.0,0.0,0.0,0.0,0.0,0.0,0.0,0.0,0.0,0.0,0.0,0.0,0.0,0.0,0.0,0.0,0.0,0.0,0.0,0.0,0.0,0.0,0.0,0.0,0.0,0.0,0.0,0.0,0.0,0.0,0.0,0.0,0.0,0.0,0.0,0.0,0.0,0.0,0.0,0.0,0.0,-0.555,-0.6067,-0.6841,-0.7831,-0.7861,-0.8155,0.0,0.0,0.0,0.0,0.0,0.0,0.0,0.0,0.0,0.0,0.0,0.0,0.0,0.0,0.0,0.0,0.0,0.0,0.0,0.0,0.0,0.0,0.0,0.0,0.0,0.0,0.0,0.0,0.0,0.0,0.0,0.0,0.0,0.0,0.0,0.0,0.0,0.0,0.0,0.0,0.0,0.0,0.0,0.0,0.0,0.0,0.0,0.0,0.0,0.0,0.0,0.0,0.0,0.0,0.0,0.0,0.0,0.0,0.0,0.0,0.0,0.0,0.0,0.0,0.0,0.0,0.0,0.0,0.0,0.0,0.0,0.0,0.0,0.0,0.0,0.0,0.0,0.0,0.0,0.0,0.0,0.0,0.0,0.0,0.0,0.0,0.0,0.0,0.0,0.0,0.0,0.0,0.0,0.0,0.0,0.0,0.0,0.0,0.0,0.0,0.0,0.0,0.0,0.0,0.0,0.0,0.0,0.0,0.0,-0.5783,-0.635,-0.7013,-0.7769,-0.7846,-0.8042,-0.8409,0.0,0.0,0.0,0.0,0.0,0.0,0.0,0.0,0.0,0.0,0.0,0.0,0.0,0.0,0.0,0.0,0.0,0.0,0.0,0.0,0.0,0.0,0.0,0.0,0.0,0.0,0.0,0.0,0.0,0.0,0.0,0.0,0.0,0.0,0.0,0.0,0.0,0.0,0.0,0.0,0.0,0.0,0.0,0.0,0.0,0.0,0.0,0.0,0.0,0.0,0.0,0.0,0.0,0.0,0.0,0.0,0.0,0.0,0.0,0.0,0.0,0.0,0.0,0.0,0.0,0.0,0.0,0.0,0.0,0.0,0.0,0.0,0.0,0.0,0.0,0.0,0.0,0.0,0.0,0.0,0.0,0.0,0.0,0.0,0.0,0.0,0.0,0.0,0.0,0.0,0.0,0.0,0.0,0.0,0.0,0.0,0.0,0.0,0.0,0.0,0.0,0.0,0.0,0.0,0.0,0.0,0.0,0.0,-0.6236,-0.7004,-0.7296,-0.7089,-0.782,-0.7897,0.0,0.0,0.0,0.0,0.0,0.0,0.0,0.0,0.0,0.0,0.0,0.0,0.0,0.0,0.0,0.0,0.0,0.0,0.0,0.0,0.0,0.0,0.0,0.0,0.0,0.0,0.0,0.0,0.0,0.0,0.0,0.0,0.0,0.0,0.0,0.0,0.0,0.0,0.0,0.0,0.0,0.0,0.0,0.0,0.0,0.0,0.0,0.0,0.0,0.0,0.0,0.0,0.0,0.0,0.0,0.0,0.0,0.0,0.0,0.0,0.0,0.0,0.0,0.0,0.0,0.0,0.0,0.0,0.0,0.0,0.0,0.0,0.0,0.0,0.0,0.0,0.0,0.0,0.0,0.0,0.0,0.0,0.0,0.0,0.0,0.0,0.0,0.0,0.0,0.0,0.0,0.0,0.0,0.0,0.0,0.0,0.0,0.0,0.0,0.0,0.0,0.0,0.0,0.0,0.0,0.0,0.0,0.0,0.0,-0.6844,-0.7398,-0.788,-0.8281,-0.8435,-0.8636,0.0,0.0,0.0,0.0,0.0,0.0,0.0,0.0,0.0,0.0,0.0,0.0,0.0,0.0,0.0,0.0,0.0,0.0,0.0,0.0,0.0,0.0,0.0,0.0,0.0,0.0,0.0,0.0,0.0,0.0,0.0,0.0,0.0,0.0,0.0,0.0,0.0,0.0,0.0,0.0,0.0,0.0,0.0,0.0,0.0,0.0,0.0,0.0,0.0,0.0,0.0,0.0,0.0,0.0,0.0,0.0,0.0,0.0,0.0,0.0,0.0,0.0,0.0,0.0,0.0,0.0,0.0,0.0,0.0,0.0,0.0,0.0,0.0,0.0,0.0,0.0,0.0,0.0,0.0,0.0,0.0,0.0,0.0,0.0,0.0,0.0,0.0,0.0,0.0,0.0,0.0,0.0,0.0,0.0,0.0,0.0,0.0,0.0,0.0,0.0,0.0,0.0,0.0,0.0,0.0,0.0,0.0,0.0,-0.6764,-0.7189,-0.7675,-0.8227,-0.8955,-0.9091,-0.9093,0.0,0.0,0.0,0.0,0.0,0.0,0.0,0.0,0.0,0.0,0.0,0.0,0.0,0.0,0.0,0.0,0.0,0.0,0.0,0.0,0.0,0.0,0.0,0.0,0.0,0.0,0.0,0.0,0.0,0.0,0.0,0.0,0.0,0.0,0.0,0.0,0.0,0.0,0.0,0.0,0.0,0.0,0.0,0.0,0.0,0.0,0.0,0.0,0.0,0.0,0.0,0.0,0.0,0.0,0.0,0.0,0.0,0.0,0.0,0.0,0.0,0.0,0.0,0.0,0.0,0.0,0.0,0.0,0.0,0.0,0.0,0.0,0.0,0.0,0.0,0.0,0.0,0.0,0.0,0.0,0.0,0.0,0.0,0.0,0.0,0.0,0.0,0.0,0.0,0.0,0.0,0.0,0.0,0.0,0.0,0.0,0.0,0.0,0.0,0.0,0.0,0.0,0.0,0.0,0.0,0.0,0.0,0.0,-0.695,-0.7415,-0.7807,-0.8301,-0.9032,-0.9651,-0.9395,0.0,0.0,0.0,0.0,0.0,0.0,0.0,0.0,0.0,0.0,0.0,0.0,0.0,0.0,0.0,0.0,0.0,0.0,0.0,0.0,0.0,0.0,0.0,0.0,0.0,0.0,0.0,0.0,0.0,0.0,0.0,0.0,0.0,0.0,0.0,0.0,0.0,0.0,0.0,0.0,0.0,0.0,0.0,0.0,0.0,0.0,0.0,0.0,0.0,0.0,0.0,0.0,0.0,0.0,0.0,0.0,0.0,0.0,0.0,0.0,0.0,0.0,0.0,0.0,0.0,0.0,0.0,0.0,0.0,0.0,0.0,0.0,0.0,0.0,0.0,0.0,0.0,0.0,0.0,0.0,0.0,0.0,0.0,0.0,0.0,0.0,0.0,0.0,0.0,0.0,0.0,0.0,0.0,0.0,0.0,0.0,0.0,0.0,0.0,0.0,0.0,0.0,0.0,0.0,0.0,0.0,0.0,0.0,-0.7139,-0.7419,-0.7807,-0.7961,-0.7932,-0.9054,-0.9644,0.0,0.0,0.0,0.0,0.0,0.0,0.0,0.0,0.0,0.0,0.0,0.0,0.0,0.0,0.0,0.0,0.0,0.0,0.0,0.0,0.0,0.0,0.0,0.0,0.0,0.0,0.0,0.0,0.0,0.0,0.0,0.0,0.0,0.0,0.0,0.0,0.0,0.0,0.0,0.0,0.0,0.0,0.0,0.0,0.0,0.0,0.0,0.0,-0.8198,0.0,0.0,0.0,0.0,0.0,0.0,0.0,0.0,0.0,0.0,0.0,0.0,0.0,0.0,0.0,0.0,0.0,0.0,0.0,0.0,0.0,0.0,0.0,0.0,0.0,0.0,0.0,0.0,0.0,0.0,0.0,0.0,0.0,0.0,0.0,0.0,0.0,0.0,0.0,0.0,0.0,0.0,0.0,0.0,0.0,0.0,0.0,0.0,0.0,0.0,0.0,0.0,0.0,0.0,0.0,0.0,0.0,0.0,0.0,-0.7139,-0.7475,-0.7712,-0.7983,-0.8354,-0.9347,-0.9649,0.0,0.0,0.0,0.0,0.0,0.0,0.0,0.0,0.0,0.0,0.0,0.0,0.0,0.0,0.0,0.0,0.0,0.0,0.0,0.0,0.0,0.0,0.0,0.0,0.0,0.0,0.0,0.0,0.0,0.0,0.0,0.0,0.0,0.0,0.0,0.0,0.0,0.0,0.0,0.0,0.0,0.0,0.0,0.0,0.0,0.0,0.0,0.0,0.0,0.0,0.0,0.0,0.0,0.0,0.0,0.0,0.0,0.0,0.0,0.0,0.0,0.0,0.0,0.0,0.0,0.0,0.0,0.0,0.0,0.0,0.0,0.0,0.0,0.0,0.0,0.0,0.0,0.0,0.0,0.0,0.0,0.0,0.0,0.0,0.0,0.0,0.0,0.0,0.0,0.0,0.0,0.0,0.0,0.0,0.0,0.0,0.0,0.0,0.0,0.0,0.0,0.0,0.0,0.0,0.0,0.0,0.0,-0.6615,-0.7112,-0.7543,-0.7587,-0.8117,-0.9112,-0.9838,-0.9667,-0.8622,0.0,0.0,0.0,0.0,0.0,0.0,0.0,0.0,0.0,0.0,0.0,0.0,0.0,0.0,0.0,0.0,0.0,0.0,0.0,0.0,0.0,0.0,0.0,0.0,0.0,0.0,0.0,0.0,0.0,0.0,0.0,0.0,0.0,0.0,0.0,0.0,0.0,0.0,-0.5194,-0.5599,0.0,0.0,0.0,0.0,0.0,0.0,0.0,0.0,-0.8376,0.0,0.0,0.0,0.0,0.0,0.0,0.0,0.0,0.0,0.0,0.0,0.0,0.0,0.0,0.0,0.0,0.0,0.0,0.0,0.0,0.0,0.0,0.0,0.0,0.0,0.0,0.0,0.0,0.0,0.0,0.0,0.0,0.0,0.0,0.0,0.0,0.0,0.0,0.0,0.0,0.0,0.0,0.0,0.0,0.0,0.0,0.0,0.0,0.0,0.0,0.0,0.0,0.0,0.0,0.0,0.0,-0.6573,-0.6702,-0.6956,-0.7397,-0.7533,-0.8009,-0.8851,-0.9737,-0.997,-0.9568,0.0,0.0,0.0,0.0,0.0,0.0,0.0,0.0,0.0,0.0,0.0,0.0,0.0,0.0,0.0,0.0,0.0,0.0,0.0,0.0,0.0,0.0,0.0,0.0,0.0,0.0,0.0,0.0,0.0,0.0,0.0,0.0,0.0,0.0,0.0,0.0,0.0,0.0,0.0,-0.5976,-0.6242,0.0,0.0,0.0,0.0,0.0,0.0,0.0,0.0,-0.9491,0.0,0.0,0.0,0.0,0.0,0.0,0.0,0.0,0.0,0.0,0.0,0.0,0.0,0.0,0.0,0.0,0.0,0.0,0.0,0.0,0.0,0.0,0.0,0.0,0.0,0.0,0.0,0.0,0.0,0.0,0.0,0.0,0.0,0.0,0.0,0.0,0.0,0.0,0.0,0.0,0.0,0.0,0.0,0.0,0.0,0.0,0.0,0.0,0.0,0.0,0.0,0.0,0.0,0.0,0.0,-0.6447,-0.662,-0.6919,-0.7398,-0.7864,-0.8532,-0.9512,-1.0058,-1.0362,0.0,0.0,0.0,0.0,0.0,0.0,0.0,0.0,0.0,0.0,0.0,0.0,0.0,0.0,0.0,0.0,0.0,0.0,0.0,0.0,0.0,0.0,0.0,0.0,0.0,0.0,0.0,0.0,0.0,0.0,0.0,0.0,0.0,0.0,0.0,0.0,0.0,0.0,0.0,0.0,-0.5996,-0.6207,-0.644,0.0,0.0,0.0,0.0,0.0,0.0,-0.8947,-0.9485,0.0,0.0,0.0,0.0,0.0,0.0,0.0,0.0,0.0,0.0,0.0,0.0,0.0,0.0,0.0,0.0,0.0,0.0,0.0,0.0,0.0,0.0,0.0,0.0,0.0,0.0,0.0,0.0,0.0,0.0,0.0,0.0,0.0,0.0,0.0,0.0,0.0,0.0,0.0,0.0,0.0,0.0,0.0,0.0,0.0,0.0,0.0,0.0,0.0,0.0,0.0,0.0,0.0,0.0,0.0,-0.6296,-0.6562,-0.6875,-0.734,-0.8055,-0.8947,-1.0009,-1.0345,-1.0673,0.0,0.0,0.0,0.0,0.0,0.0,0.0,0.0,0.0,0.0,0.0,0.0,0.0,0.0,0.0,0.0,0.0,0.0,0.0,0.0,0.0,0.0,0.0,0.0,0.0,0.0,0.0,0.0,0.0,0.0,0.0,0.0,0.0,0.0,0.0,0.0,0.0,0.0,0.0,0.0,0.0,-0.6263,-0.6514,-0.644,0.0,0.0,0.0,0.0,-0.8939,-0.9051,0.0,0.0,0.0,0.0,0.0,0.0,0.0,0.0,0.0,0.0,0.0,0.0,0.0,0.0,0.0,0.0,0.0,0.0,0.0,0.0,0.0,0.0,0.0,0.0,0.0,0.0,0.0,0.0,0.0,0.0,0.0,0.0,0.0,0.0,0.0,0.0,0.0,0.0,0.0,0.0,0.0,0.0,0.0,0.0,0.0,0.0,0.0,0.0,0.0,0.0,0.0,0.0,0.0,0.0,0.0,0.0,-0.6286,-0.6457,-0.6712,-0.7132,-0.7801,-0.8611,-0.9559,-1.0182,-1.0562,0.0,0.0,0.0,0.0,0.0,0.0,0.0,0.0,0.0,0.0,0.0,0.0,0.0,0.0,0.0,0.0,0.0,0.0,0.0,0.0,0.0,0.0,0.0,0.0,0.0,0.0,0.0,0.0,0.0,0.0,0.0,0.0,0.0,0.0,0.0,0.0,0.0,0.0,0.0,0.0,0.0,-0.6536,-0.6373,-0.6595,-0.6688,0.0,0.0,-0.7525,-0.9435,-0.9687,0.0,0.0,0.0,0.0,0.0,0.0,0.0,0.0,0.0,0.0,0.0,0.0,0.0,0.0,0.0,0.0,0.0,0.0,0.0,0.0,0.0,0.0,0.0,0.0,0.0,0.0,0.0,0.0,0.0,0.0,0.0,0.0,0.0,0.0,0.0,0.0,0.0,0.0,0.0,0.0,0.0,0.0,0.0,0.0,0.0,0.0,0.0,0.0,0.0,0.0,0.0,0.0,0.0,0.0,0.0,-0.5766,-0.6122,-0.6356,-0.6607,-0.6917,-0.7978,-0.8738,-0.9144,-0.9958,-1.0338,0.0,0.0,0.0,0.0,0.0,0.0,0.0,0.0,0.0,0.0,0.0,0.0,0.0,0.0,0.0,0.0,0.0,0.0,0.0,0.0,0.0,0.0,0.0,0.0,0.0,0.0,0.0,0.0,0.0,0.0,0.0,0.0,0.0,0.0,0.0,0.0,0.0,0.0,0.0,0.0,0.0,0.0,-0.6742,-0.6759,0.0,0.0,0.0,-0.8345,-0.9684,0.0,0.0,0.0,0.0,0.0,0.0,0.0,0.0,0.0,0.0,0.0,0.0,0.0,0.0,0.0,0.0,0.0,0.0,0.0,0.0,0.0,0.0,0.0,0.0,0.0,0.0,0.0,0.0,0.0,0.0,0.0,0.0,0.0,0.0,0.0,0.0,0.0,0.0,0.0,0.0,0.0,0.0,0.0,0.0,0.0,0.0,0.0,0.0,0.0,0.0,0.0,0.0,0.0,0.0,0.0,0.0,0.0,-0.5918,-0.621,-0.6513,-0.6857,-0.809,-0.8841,-0.8986,-0.9832,0.0,0.0,0.0,0.0,0.0,0.0,0.0,0.0,0.0,0.0,0.0,0.0,0.0,0.0,0.0,0.0,0.0,0.0,0.0,0.0,0.0,0.0,0.0,0.0,0.0,0.0,0.0,-0.8426,0.0,0.0,0.0,0.0,0.0,0.0,0.0,0.0,0.0,0.0,0.0,0.0,0.0,0.0,-0.6627,-0.698,-0.7027,-0.7115,0.0,0.0,-0.914,-1.0162,-1.0865,-1.1476,0.0,0.0,0.0,0.0,0.0,0.0,0.0,0.0,0.0,0.0,0.0,0.0,0.0,0.0,0.0,0.0,0.0,0.0,0.0,0.0,0.0,0.0,0.0,0.0,0.0,0.0,0.0,0.0,0.0,0.0,0.0,0.0,0.0,0.0,0.0,0.0,0.0,0.0,0.0,0.0,0.0,0.0,0.0,0.0,0.0,0.0,0.0,0.0,0.0,0.0,0.0,0.0,0.0,0.0,-0.5491,-0.5623,-0.5908,-0.6435,-0.7227,-0.7963,-0.8636,-0.927,-0.9949,-1.0057,0.0,0.0,0.0,0.0,0.0,0.0,0.0,0.0,0.0,0.0,0.0,0.0,0.0,0.0,0.0,0.0,0.0,0.0,0.0,0.0,0.0,0.0,0.0,0.0,0.0,0.0,0.0,0.0,0.0,0.0,0.0,0.0,0.0,0.0,0.0,0.0,0.0,0.0,0.0,0.0,0.0,-0.6984,-0.6838,-0.7383,-0.8078,0.0,-0.9107,-0.9683,-1.0913,-1.153,-1.1787,-1.1493,0.0,0.0,0.0,0.0,0.0,0.0,0.0,0.0,0.0,0.0,0.0,0.0,0.0,0.0,0.0,0.0,0.0,0.0,0.0,0.0,0.0,0.0,0.0,0.0,0.0,0.0,0.0,0.0,0.0,0.0,0.0,0.0,0.0,0.0,0.0,0.0,0.0,0.0,0.0,0.0,0.0,0.0,0.0,0.0,0.0,0.0,0.0,0.0,0.0,0.0,0.0,0.0,0.0,-0.5232,-0.5484,-0.5739,-0.6327,-0.7214,-0.7664,-0.8397,-0.9394,-0.9673,-0.9642,0.0,0.0,0.0,0.0,0.0,0.0,0.0,0.0,0.0,0.0,0.0,0.0,0.0,0.0,0.0,0.0,0.0,0.0,0.0,0.0,0.0,0.0,0.0,0.0,0.0,0.0,0.0,0.0,-0.8377,-0.7983,-0.6961,0.0,0.0,0.0,0.0,0.0,0.0,0.0,0.0,0.0,0.0,-0.7152,-0.7337,-0.8038,0.0,0.0,-1.0204,-1.1241,-1.1775,-1.2335,-1.253,-1.2038,-1.1946,0.0,0.0,0.0,0.0,0.0,0.0,0.0,0.0,0.0,0.0,0.0,0.0,0.0,0.0,0.0,0.0,0.0,0.0,0.0,0.0,0.0,0.0,0.0,0.0,0.0,0.0,0.0,0.0,0.0,0.0,0.0,0.0,0.0,0.0,0.0,0.0,0.0,0.0,0.0,0.0,0.0,0.0,0.0,0.0,0.0,0.0,0.0,0.0,0.0,0.0,0.0,0.0,-0.4966,-0.523,-0.5518,-0.6177,-0.7246,-0.7473,-0.821,-0.9451,-0.9495,-0.9384,0.0,0.0,0.0,0.0,0.0,0.0,0.0,0.0,0.0,0.0,0.0,0.0,0.0,0.0,0.0,0.0,0.0,0.0,0.0,0.0,0.0,0.0,0.0,0.0,0.0,0.0,0.0,0.0,-0.8088,-0.7396,-0.6515,0.0,0.0,0.0,0.0,0.0,0.0,0.0,0.0,0.0,0.0,-0.7536,-0.8033,-0.8706,-0.9376,-1.0028,-1.1177,-1.2093,-1.2389,-1.2793,-1.2904,-1.2301,0.0,0.0,0.0,0.0,0.0,0.0,0.0,0.0,0.0,0.0,0.0,0.0,0.0,0.0,0.0,0.0,0.0,0.0,0.0,0.0,0.0,0.0,0.0,0.0,0.0,0.0,0.0,-0.4503,0.0,0.0,-0.4306,0.0,0.0,0.0,0.0,0.0,0.0,0.0,0.0,0.0,0.0,0.0,0.0,0.0,0.0,0.0,0.0,0.0,0.0,0.0,0.0,0.0,0.0,-0.4772,-0.4904,-0.523,-0.6069,-0.7358,-0.7433,-0.8095,-0.9447,-0.949,-0.9384,-0.9095,0.0,0.0,0.0,0.0,0.0,0.0,0.0,0.0,0.0,0.0,0.0,0.0,0.0,0.0,0.0,0.0,0.0,0.0,0.0,0.0,0.0,0.0,0.0,0.0,0.0,0.0,-0.8818,-0.7342,-0.6449,0.0,0.0,0.0,0.0,0.0,0.0,0.0,0.0,0.0,0.0,-0.7267,-0.8098,-0.8919,-0.9336,-1.0186,-1.1904,-1.1985,-1.2046,-1.2698,-1.2817,-1.2596,0.0,0.0,0.0,0.0,0.0,0.0,0.0,0.0,0.0,0.0,0.0,0.0,0.0,0.0,0.0,0.0,0.0,0.0,0.0,0.0,0.0,0.0,0.0,0.0,0.0,0.0,0.0,-0.3937,-0.448,0.0,0.0,0.0,0.0,0.0,0.0,0.0,0.0,0.0,0.0,0.0,-0.4509,-0.4474,0.0,0.0,0.0,0.0,0.0,0.0,0.0,0.0,0.0,0.0,0.0,0.0,-0.4668,-0.4901,-0.5245,-0.6136,-0.7616,-0.7489,-0.8245,-0.9948,-0.9703,-0.93,-0.8848,0.0,0.0,0.0,0.0,0.0,0.0,0.0,0.0,0.0,0.0,0.0,0.0,0.0,0.0,0.0,0.0,0.0,0.0,0.0,0.0,0.0,0.0,0.0,0.0,0.0,-0.9683,0.0,0.0,0.0,0.0,0.0,0.0,0.0,0.0,0.0,0.0,0.0,-0.7034,-0.6984,-0.791,-0.8763,-0.9239,-1.0486,-1.156,0.0,0.0,0.0,0.0,0.0,0.0,0.0,0.0,0.0,0.0,0.0,0.0,0.0,0.0,-1.2004,-1.1516,-1.1349,-1.1309,-1.1375,0.0,0.0,0.0,0.0,0.0,0.0,0.0,0.0,0.0,0.0,0.0,0.0,0.0,0.0,-0.3925,0.0,-0.4651,0.0,0.0,0.0,0.0,0.0,0.0,0.0,0.0,-0.4761,-0.4757,-0.4753,-0.4716,-0.4651,0.0,-0.4376,-0.4213,0.0,0.0,0.0,0.0,0.0,0.0,0.0,0.0,-0.4702,-0.5123,-0.5449,-0.6371,-0.779,-0.7636,-0.8275,-0.982,-0.9456,-0.9113,-0.8848,-0.859,-0.8373,0.0,0.0,0.0,0.0,0.0,0.0,0.0,0.0,0.0,0.0,0.0,0.0,0.0,0.0,0.0,0.0,0.0,0.0,0.0,0.0,0.0,0.0,0.0,-0.9243,0.0,0.0,0.0,0.0,0.0,0.0,0.0,0.0,0.0,-0.7227,-0.7633,-0.8029,-0.8029,-0.8818,-0.9627,-1.0211,0.0,0.0,0.0,0.0,0.0,0.0,0.0,-1.3039,-1.2538,-1.2335,-1.2181,-1.2037,-1.2178,-1.2305,-1.2305,0.0,0.0,-1.1762,-1.165,-1.1618,-1.1646,-1.1668,-1.1642,-1.1477,-1.1624,-1.1725,0.0,0.0,0.0,0.0,0.0,0.0,0.0,0.0,-0.3019,-0.3883,0.0,-0.4698,0.0,0.0,0.0,0.0,0.0,-0.4621,0.0,0.0,-0.4909,-0.4911,-0.4804,-0.4801,-0.4779,-0.4706,-0.4695,-0.4566,-0.4306,-0.404,0.0,0.0,0.0,0.0,0.0,0.0,-0.4889,-0.5542,-0.5861,-0.6693,-0.8005,-0.7823,-0.8149,-0.9046,-0.8848,-0.883,-0.9053,-0.883,-0.8698,-0.8698,-0.9019,0.0,0.0,0.0,0.0,0.0,0.0,0.0,0.0,0.0,0.0,0.0,0.0,0.0,0.0,0.0,0.0,0.0,0.0,0.0,0.0,-0.951,0.0,0.0,0.0,0.0,0.0,0.0,0.0,0.0,0.0,0.0,-0.8127,-0.8938,-0.9645,-0.9583,0.0,0.0,0.0,0.0,-1.2271,-1.3437,-1.338,-1.3247,-1.322,-1.322,-1.312,-1.2851,0.0,0.0,-1.2345,-1.2305,-1.2305,-1.2305,-1.2305,-1.2291,-1.2265,-1.2087,-1.1948,-1.2021,-1.1902,-1.1778,-1.1866,-1.1793,-1.1765,0.0,0.0,0.0,0.0,0.0,-0.0214,-0.1119,-0.2402,-0.2747,-0.358,-0.4781,-0.4744,0.0,0.0,0.0,0.0,0.0,0.0,-0.4635,-0.4793,-0.4833,-0.4874,-0.4963,-0.4966,-0.4947,-0.4909,-0.4825,-0.4703,-0.4586,-0.4395,-0.4158,-0.382,0.0,0.0,0.0,0.0,-0.4929,-0.5281,-0.5809,-0.6649,-0.7641,-0.7609,-0.7965,-0.8789,-0.8746,-0.874,-0.8818,-0.8746,-0.8704,-0.8704,-0.9025,0.0,0.0,0.0,0.0,0.0,0.0,0.0,0.0,0.0,0.0,0.0,0.0,0.0,0.0,0.0,0.0,0.0,0.0,0.0,-0.9427,-0.9351,-0.9081,0.0,0.0,0.0,0.0,0.0,0.0,0.0,0.0,0.0,-1.0025,-1.0046,-1.0084,0.0,0.0,-1.1613,-1.193,-1.2643,-1.3215,-1.3546,-1.3754,0.0,-1.3273,-1.3347,-1.338,-1.3126,-1.2931,-1.2683,-1.2351,-1.2305,-1.2305,-1.2305,-1.2305,-1.2245,-1.208,-1.2249,-1.2315,-1.2153,-1.2075,-1.2007,-1.1848,-1.1725,-1.1643,0.0,0.0,0.0,0.0,0.0,-0.0331,-0.1003,-0.1953,-0.2388,-0.3249,-0.4387,-0.4382,-0.4517,-0.4675,-0.4463,0.0,0.0,0.0,-0.4712,-0.4868,-0.4906,-0.4906,-0.5015,-0.5018,-0.5018,-0.501,-0.4852,-0.4795,-0.4724,-0.4588,-0.4336,-0.4008,0.0,0.0,-0.3805,-0.452,-0.5056,-0.5401,-0.6118,-0.6861,-0.7639,-0.7668,-0.7906,-0.8438,-0.8366,-0.843,-0.8698,-0.8579,-0.865,-0.8848,-0.8955,-0.9336,0.0,0.0,0.0,0.0,0.0,0.0,0.0,0.0,0.0,0.0,0.0,-0.9234,-0.8432,0.0,0.0,0.0,-0.9383,-0.9512,-0.9422,-0.9421,0.0,0.0,0.0,0.0,0.0,0.0,0.0,-0.9756,-1.064,-1.1327,-1.1549,-1.1406,-1.1293,-1.1298,-1.1969,-1.251,-1.2618,0.0,-1.3513,-1.3781,-1.3874,-1.3828,-1.3601,-1.3701,-1.364,-1.3273,-1.2846,-1.2525,-1.2345,-1.2305,-1.2265,-1.2178,-1.2225,-1.2171,-1.177,-1.2168,-1.2415,-1.1867,-1.1784,-1.1762,-1.1621,-1.1534,-1.1498,0.0,0.0,0.0,0.0,0.0,-0.0715,-0.106,-0.1179,-0.1921,-0.2765,-0.3678,-0.3706,-0.413,-0.4851,-0.4637,0.0,-0.4703,-0.4706,-0.4829,-0.5018,-0.5018,-0.5018,-0.5018,-0.5018,-0.5012,-0.4963,-0.486,-0.4795,-0.4755,-0.4588,-0.4417,-0.4284,-0.4019,-0.3878,-0.3859,-0.4527,-0.5174,-0.575,-0.6482,-0.7203,-0.7835,-0.7857,-0.7925,-0.8037,-0.7798,-0.7986,-0.8609,-0.8417,-0.8525,-0.9023,-0.8866,-0.9247,-1.0272,0.0,0.0,0.0,0.0,0.0,0.0,0.0,0.0,0.0,0.0,0.0,0.0,0.0,0.0,0.0,-0.9352,0.0,-0.9983,-0.9644,0.0,0.0,0.0,-0.8761,-0.9041,-0.9663,-1.0266,-1.0825,0.0,0.0,-1.2677,-1.277,-1.2835,-1.2817,-1.3033,-1.3307,-1.3533,-1.3333,-1.3407,-1.3895,-1.3733,-1.3666,-1.3861,-1.3928,-1.3754,-1.3227,-1.2699,-1.2371,-1.2311,-1.2305,-1.2191,-1.2027,-1.2131,-1.2138,-1.1529,-1.2067,-1.2262,-1.141,-1.1313,-1.1302,-1.1315,-1.1348,-1.1397,0.0,0.0,0.0,0.0,0.0,-0.0164,-0.0615,-0.1278,-0.1452,-0.2007,-0.2789,-0.2718,-0.3092,-0.381,-0.4393,-0.4712,-0.4792,-0.4755,-0.4871,-0.5015,-0.5018,-0.5018,-0.5018,-0.5018,-0.493,-0.4849,-0.4906,-0.483,-0.4569,-0.4627,-0.449,-0.4164,-0.3978,-0.3887,-0.3834,-0.4375,-0.4894,-0.5418,-0.6135,-0.6816,-0.7433,-0.7558,-0.7606,-0.7633,-0.7576,-0.7778,-0.8227,-0.8192,-0.8361,-0.8776,-0.9181,-0.9521,-0.9775,-1.0328,0.0,0.0,0.0,0.0,0.0,0.0,0.0,0.0,0.0,-0.8838,-0.7973,0.0,-0.8183,0.0,-0.9352,-0.9804,-0.9868,-1.0049,0.0,0.0,-1.0001,-1.0009,-1.0725,-1.0672,-1.0887,-1.1559,-1.1949,-1.2251,-1.2398,-1.2643,-1.2878,-1.3066,-1.316,-1.3233,-1.33,-1.326,-1.3253,-1.3394,-1.3367,-1.334,-1.342,-1.342,-1.33,-1.2958,-1.277,-1.261,-1.2345,-1.2305,-1.2278,-1.2211,-1.2251,-1.2151,-1.181,-1.1962,-1.1888,-1.1491,-1.1654,-1.1829,-1.14,-1.1435,-1.156,0.0,0.0,0.0,0.0,0.0,0.0,-0.0252,-0.0713,-0.0739,-0.1177,-0.1983,-0.2264,-0.2597,-0.2945,-0.3417,-0.3821,-0.4162,-0.4198,-0.4441,-0.4855,-0.4874,-0.4898,-0.4901,-0.4991,-0.4944,-0.4879,-0.4931,-0.4793,-0.4637,-0.4627,-0.4471,-0.4273,-0.4102,-0.3982,-0.3939,-0.4368,-0.4682,-0.4928,-0.5855,-0.647,-0.682,-0.7139,-0.7354,-0.7419,-0.7419,-0.7535,-0.7836,-0.7842,-0.8014,-0.8311,-0.8644,-0.8988,-0.9324,-0.9778,-1.0051,0.0,0.0,0.0,0.0,0.0,0.0,0.0,0.0,0.0,0.0,0.0,-0.8345,-0.9011,-0.9539,-0.9962,-1.025,-1.0535,-1.0758,-1.0981,-1.0812,-1.0918,-1.1575,-1.1439,-1.1481,-1.2008,-1.2204,-1.2305,-1.2305,-1.2445,-1.2703,-1.2953,-1.2893,-1.2959,-1.3273,-1.326,-1.3206,-1.3206,-1.3093,-1.306,-1.318,-1.3093,-1.2991,-1.2817,-1.2677,-1.2522,-1.2331,-1.2305,-1.2265,-1.2151,-1.2211,-1.2158,-1.1777,-1.1904,-1.1931,-1.1632,-1.2184,-1.2508,-1.1961,-1.198,-1.2178,0.0087,0.0087,0.0087,0.0087,0.0087,0.0085,0.0042,0.0,0.0,-0.0407,-0.1211,-0.197,-0.2284,-0.2193,-0.2296,-0.2657,-0.3303,-0.3406,-0.3841,-0.4548,-0.4725,-0.4774,-0.4777,-0.492,-0.4961,-0.4942,-0.4814,-0.4758,-0.4723,-0.4564,-0.4498,-0.4473,-0.4194,-0.4086,-0.4102,-0.4315,-0.4483,-0.4629,-0.5677,-0.6245,-0.6356,-0.6825,-0.7155,-0.7301,-0.7306,-0.7333,-0.7473,-0.7467,-0.7596,-0.7823,-0.7869,-0.8189,-0.8831,-0.8969,-0.9377,0.0,-1.0272,0.0,0.0,0.0,0.0,0.0,0.0,0.0,0.0,-0.8303,-0.8686,-0.9418,-0.9784,-1.0211,-1.082,-1.0918,-1.1076,-1.138,-1.1447,-1.1608,-1.1891,-1.196,-1.2053,-1.2271,-1.2305,-1.2305,-1.2305,-1.2305,-1.2449,-1.2723,-1.2623,-1.2699,-1.33,-1.3194,-1.3046,-1.3093,-1.2866,-1.2811,-1.2966,-1.2884,-1.2723,-1.269,-1.2485,-1.2311,-1.2311,-1.2305,-1.2225,-1.2031,-1.2151,-1.2131,-1.1588,-1.1971,-1.2111,-1.1677,-1.2641,-1.326,-1.2641,-1.2685,-1.306,0.0514,0.0566,0.0566,0.0571,0.0579,0.0567,0.0346,0.0,0.0,-0.0082,-0.0316,-0.1153,-0.1514,-0.1535,-0.2166,-0.254,-0.2709,-0.3285,-0.3653,-0.3817,-0.4458,-0.4723,-0.4723,-0.4747,-0.4706,-0.4618,-0.4648,-0.4624,-0.4401,-0.4482,-0.4457,-0.433,-0.4189,-0.4086,-0.4078,0.0,0.0,0.0,-0.5908,-0.6541,-0.714,-0.7132,-0.7176,-0.737,-0.7214,0.0,-0.7344,-0.7344,-0.7414,-0.7595,-0.7778,0.0,0.0,0.0,0.0,0.0,0.0,0.0,0.0,0.0,0.0,0.0,-0.7931,-0.7925,-0.7979,-0.8357,-0.8849,-0.9456,-0.9882,-1.0279,-1.062,-1.1013,-1.1323,-1.1507,-1.1739,-1.1982,-1.2175,-1.2211,-1.2251,-1.2291,-1.2305,-1.2305,-1.2291,-1.2305,-1.2449,-1.271,-1.273,-1.277,-1.2924,-1.2699,-1.2492,-1.2465,-1.2452,-1.2412,-1.2465,-1.2438,-1.2418,-1.2378,-1.2351,-1.2305,-1.2305,-1.2305,-1.2305,-1.2211,-1.2258,-1.2278,-1.2138,-1.2238,-1.2251,-1.2144,-1.2999,-1.3457,-1.2522,-1.3044,-1.3635,0.0625,0.0,0.0682,0.0685,0.0,0.0693,0.0559,0.0295,0.0291,0.0284,0.0275,-0.0271,-0.0494,-0.0556,-0.1025,-0.1471,-0.182,-0.2204,-0.2553,-0.2903,-0.3295,-0.3708,-0.4065,-0.4118,-0.4331,-0.4597,-0.4597,-0.4536,-0.4387,-0.4384,-0.4357,-0.4298,-0.424,-0.4208,-0.4202,-0.3994,-0.4264,-0.5064,-0.5814,-0.6402,-0.6781,-0.6986,-0.7139,-0.7229,-0.7155,0.0,0.0,0.0,0.0,0.0,0.0,0.0,0.0,0.0,0.0,-0.8876,-0.9024,-0.9014,-0.883,-0.8778,-0.8547,-0.7955,-0.7901,-0.8009,-0.8261,-0.8674,-0.9125,-0.9648,-0.9934,-1.0267,-1.0759,-1.1003,-1.1278,-1.1623,-1.1758,-1.1837,-1.1926,-1.1886,-1.1835,-1.1784,-1.1961,-1.2084,-1.1982,-1.2188,-1.2351,-1.2522,-1.2435,-1.2415,-1.2536,-1.2569,-1.2516,-1.2338,-1.2305,-1.2305,-1.2305,-1.2305,-1.2305,-1.2305,-1.2305,-1.2305,-1.2305,-1.2305,-1.2305,-1.2305,-1.2305,-1.2305,-1.2291,-1.2191,-1.224,-1.2802,-1.3377,-1.3768,-1.3426,-1.402,-1.4518,0.073,0.0734,0.0789,0.0789,0.0739,0.0764,0.0757,0.0728,0.0,0.0,0.0,0.043,0.0381,0.0328,0.0182,-0.0212,-0.0842,-0.098,-0.1349,-0.188,-0.2165,-0.2569,-0.3159,-0.3407,-0.3835,-0.4402,-0.4453,-0.4439,-0.4471,-0.4344,-0.4303,-0.4303,-0.4303,-0.4303,-0.4284,-0.415,-0.4246,-0.4633,-0.5469,-0.6032,-0.6261,-0.6695,-0.6993,-0.7149,-0.7106,-0.7106,-0.7106,-0.7106,-0.7106,-0.7106,-0.7106,-0.7166,-0.7284,-0.7284,-0.7634,-0.8335,-0.8415,-0.8494,-0.8593,-0.862,-0.8441,-0.7955,-0.7943,-0.8153,-0.8614,-0.8878,-0.9251,-0.9793,-0.9877,-1.0168,-1.0812,-1.0861,-1.1019,-1.1462,-1.1465,-1.1449,-1.1524,-1.1394,-1.1331,-1.1299,-1.1607,-1.1748,-1.1683,-1.1939,-1.2161,-1.2101,-1.2002,-1.1919,-1.2138,-1.2421,-1.2576,-1.2351,-1.2305,-1.2305,-1.2305,-1.2305,-1.2305,-1.2305,-1.2305,-1.2305,-1.2305,-1.2305,-1.2305,-1.2305,-1.2305,-1.2305,-1.2285,-1.2084,-1.2244,-1.3215,-1.3592,-1.3901,-1.4408,-1.4951,-1.525,0.1199,0.1221,0.1185,0.1198,0.1214,0.1198,0.1215,0.1185,0.075,0.0591,0.0588,0.0576,0.0562,0.0546,0.051,0.0425,0.0236,-0.0483,-0.0894,-0.1008,-0.1785,-0.2193,-0.2294,-0.2945,-0.3288,-0.3457,-0.4025,-0.4325,-0.4322,-0.4308,-0.4303,-0.4303,-0.4303,-0.4303,-0.4314,-0.4556,-0.4709,-0.4773,-0.4741,-0.5326,-0.6487,-0.6409,-0.6661,-0.7325,-0.7192,-0.7106,-0.7106,-0.7106,-0.7106,-0.7106,-0.7106,-0.7166,-0.7284,-0.7284,-0.7419,-0.7655,-0.775,-0.783,-0.7851,-0.7949,-0.8002,-0.794,-0.8105,-0.8301,-0.8339,-0.8585,-0.8987,-0.9516,-0.9769,-1.0055,-1.0339,-1.0422,-1.051,-1.0728,-1.076,-1.0893,-1.1265,-1.1089,-1.1118,-1.1463,-1.148,-1.149,-1.164,-1.1742,-1.1734,-1.1567,-1.1636,-1.1633,-1.1552,-1.1959,-1.2294,-1.2311,-1.2305,-1.2305,-1.2305,-1.2305,-1.2305,-1.2305,-1.2305,-1.2305,-1.2305,-1.2305,-1.2305,-1.2305,-1.2305,-1.2305,-1.2298,-1.2107,-1.2309,-1.2954,-1.3415,-1.3737,-1.4071,-1.4863,-1.5397,0.1936,0.1918,0.1498,0.1301,0.1297,0.1324,0.131,0.1297,0.1061,0.0982,0.0981,0.0815,0.0762,0.0745,0.067,0.0579,0.0517,0.0139,-0.0069,-0.0135,-0.0504,-0.0873,-0.1242,-0.1577,-0.2011,-0.2512,-0.3218,-0.3623,-0.3725,-0.4097,-0.4303,-0.4303,-0.4303,-0.4303,-0.4317,-0.4304,-0.4327,-0.4321,-0.4723,-0.5238,-0.5892,-0.6092,-0.6393,-0.6744,-0.6975,-0.7106,-0.7106,-0.7106,-0.7106,-0.7106,-0.7106,-0.7139,-0.7192,-0.7198,-0.7252,-0.7392,-0.744,-0.7515,-0.7595,-0.7729,-0.7788,-0.7788,-0.7976,-0.8147,-0.8279,-0.8686,-0.9083,-0.9468,-0.963,-0.9805,-1.0051,-1.0081,-1.0176,-1.0418,-1.0411,-1.0477,-1.0654,-1.0533,-1.0527,-1.0858,-1.0994,-1.1143,-1.1307,-1.1537,-1.1675,-1.1535,-1.1528,-1.1331,-1.0937,-1.1359,-1.1811,-1.189,-1.2045,-1.2181,-1.2268,-1.2305,-1.2305,-1.2305,-1.2305,-1.2305,-1.2305,-1.2305,-1.2305,-1.2305,-1.2305,-1.2305,-1.2291,-1.2245,-1.2556,-1.3281,-1.3457,-1.3752,-1.4391,-1.4888,-1.508,0.2821,0.2749,0.2121,0.1756,0.1571,0.1571,0.1453,0.1297,0.1297,0.1297,0.1258,0.11,0.0969,0.0948,0.0838,0.0741,0.0705,0.067,0.0625,0.0574,0.0506,0.0202,-0.0269,-0.0403,-0.0906,-0.161,-0.2345,-0.2813,-0.3153,-0.3692,-0.4131,-0.4267,-0.4303,-0.4289,-0.4257,-0.4013,-0.3889,-0.3912,-0.4564,-0.4979,-0.5144,-0.5582,-0.5905,-0.6209,-0.6647,-0.6972,-0.7085,-0.7106,-0.7106,-0.7106,-0.7106,-0.7106,-0.7106,-0.7106,-0.7139,-0.7225,-0.7284,-0.7365,-0.7494,-0.7595,-0.767,-0.7702,-0.7895,-0.8137,-0.8387,-0.889,-0.9251,-0.9402,-0.948,-0.958,-0.9775,-0.9817,-0.9901,-1.0081,-1.0077,-1.0101,-1.019,-1.0085,-1.0124,-1.0359,-1.0679,-1.0879,-1.1044,-1.129,-1.1401,-1.1319,-1.1179,-1.0827,-1.0512,-1.0767,-1.1137,-1.141,-1.1738,-1.2027,-1.2231,-1.2268,-1.2305,-1.2305,-1.2305,-1.2305,-1.2298,-1.2265,-1.2204,-1.2178,-1.2111,-1.2064,-1.208,-1.2207,-1.2649,-1.3377,-1.3557,-1.3809,-1.4693,-1.4828,-1.4823,0.3677,0.3677,0.353,0.31,0.2433,0.2393,0.2002,0.1414,0.1336,0.1297,0.1335,0.1297,0.1241,0.118,0.1201,0.1165,0.1022,0.0934,0.0849,0.0744,0.0573,0.0472,0.0337,-0.0202,-0.0538,-0.0706,-0.1374,-0.2045,-0.2651,-0.3013,-0.352,-0.42,-0.4303,-0.4208,-0.4132,-0.397,-0.3882,-0.3799,-0.3787,-0.4024,-0.4543,-0.4629,-0.5148,-0.6182,-0.6263,-0.6561,-0.6999,-0.7106,-0.7106,-0.7106,-0.7106,-0.7106,-0.7106,-0.7106,-0.7106,-0.7112,-0.7225,-0.7338,-0.7467,-0.7521,-0.7568,-0.7705,-0.8124,-0.8445,-0.8627,-0.9087,-0.9366,-0.9201,-0.932,-0.9496,-0.9514,-0.9532,-0.9606,-0.9646,-0.9636,-0.9759,-1.0186,-1.0055,-1.0182,-1.0967,-1.0821,-1.0809,-1.0985,-1.0943,-1.0736,-1.0571,-1.0364,-1.0162,-1.0019,-1.026,-1.0565,-1.0966,-1.1524,-1.1957,-1.2077,-1.2187,-1.2268,-1.2268,-1.2305,-1.2291,-1.2238,-1.2114,-1.1946,-1.1891,-1.1724,-1.1568,-1.1654,-1.178,-1.2342,-1.3112,-1.3486,-1.3778,-1.4504,-1.4693,-1.4706,0.4496,0.4455,0.3986,0.3599,0.3288,0.3249,0.3093,0.2741,0.2237,0.2002,0.1923,0.1492,0.1289,0.1238,0.1234,0.1237,0.1149,0.1071,0.0978,0.0978,0.0909,0.0875,0.0808,0.0605,0.0403,0.0202,-0.047,-0.1007,-0.1506,-0.2309,-0.2979,-0.3431,-0.3766,-0.3964,-0.3973,-0.389,-0.38,-0.378,-0.3671,-0.3722,-0.3996,-0.4325,-0.4708,-0.5144,-0.55,-0.5769,-0.6046,-0.6376,-0.6561,-0.6588,-0.6896,-0.7106,-0.7106,-0.7106,-0.7106,-0.7106,-0.7139,-0.7225,-0.7246,-0.7333,-0.7481,-0.7665,-0.7552,-0.7664,-0.8089,-0.8022,-0.7938,-0.8196,-0.8928,-0.935,-0.9022,-0.9253,-0.9544,-0.9709,-0.9751,-0.9889,-1.0238,-1.0202,-1.034,-1.0797,-1.0791,-1.0719,-1.0816,-1.0617,-1.0358,-1.0124,-0.9961,-0.9871,-0.9733,-0.9901,-1.0113,-1.0368,-1.0933,-1.1533,-1.1877,-1.204,-1.2114,-1.2114,-1.2114,-1.2124,-1.2064,-1.2013,-1.1859,-1.1643,-1.1476,-1.147,-1.1745,-1.2432,-1.3059,-1.3381,-1.3715,-1.413,-1.4022,-1.43,-1.4398,0.5356,0.5237,0.4691,0.4338,0.4142,0.4142,0.3988,0.3752,0.3132,0.2743,0.2431,0.1884,0.1486,0.1281,0.1221,0.1191,0.1154,0.1131,0.1105,0.1111,0.1109,0.1109,0.1109,0.1109,0.1009,0.0808,0.0336,-0.01,-0.0531,-0.1659,-0.2338,-0.2568,-0.3107,-0.3456,-0.3545,-0.3647,-0.3738,-0.3731,-0.3649,-0.3613,-0.3669,-0.4024,-0.4325,-0.4515,-0.4869,-0.5144,-0.5304,-0.5714,-0.5964,-0.5964,-0.6372,-0.6593,-0.6615,-0.6756,-0.6918,-0.7063,-0.6959,-0.693,-0.6903,-0.6882,-0.6956,-0.7143,-0.6827,-0.6873,-0.7259,-0.7092,-0.6967,-0.7089,-0.8204,-0.8727,-0.8657,-0.892,-0.9368,-0.9709,-0.9853,-1.0009,-1.025,-1.0346,-1.0509,-1.0779,-1.0827,-1.0755,-1.0622,-1.0412,-1.0196,-0.9877,-0.9853,-0.9811,-0.9586,-0.9745,-0.9952,-0.9986,-1.0547,-1.1077,-1.1608,-1.1853,-1.1909,-1.1977,-1.1957,-1.1903,-1.1822,-1.1819,-1.1645,-1.1316,-1.1263,-1.1363,-1.1645,-1.253,-1.351,-1.371,-1.3958,-1.4169,-1.404,-1.4169,-1.41,0.6257,0.6219,0.618,0.567,0.4965,0.4965,0.4535,0.3947,0.3791,0.3327,0.2666,0.2433,0.1977,0.1252,0.1248,0.1179,0.1094,0.1086,0.1104,0.1111,0.1109,0.1109,0.1109,0.1109,0.1076,0.1042,0.0972,0.0529,-0.029,-0.1061,-0.1554,-0.1755,-0.2358,-0.2658,-0.2775,-0.3256,-0.3558,-0.3613,-0.3593,-0.3613,-0.3613,-0.3638,-0.3941,-0.438,-0.4519,-0.4763,-0.5199,-0.5304,-0.5332,-0.5332,-0.5441,-0.5441,-0.5469,-0.5959,-0.6485,-0.6912,-0.6649,-0.6421,-0.6349,-0.6069,-0.5917,-0.6022,-0.6196,-0.6354,-0.6589,-0.676,-0.6694,-0.6235,-0.6961,-0.7679,-0.8296,-0.8555,-0.8939,-0.9521,-0.9793,-1.0033,-1.0298,-1.0527,-1.0803,-1.1003,-1.0972,-1.0773,-1.0388,-1.0304,-1.0027,-0.9706,-0.9712,-0.9793,-0.9624,-0.9733,-0.9937,-1.0198,-1.047,-1.0756,-1.1053,-1.1411,-1.1717,-1.1872,-1.1829,-1.1709,-1.1585,-1.1476,-1.1236,-1.1002,-1.0894,-1.1038,-1.1466,-1.2219,-1.3194,-1.3588,-1.3646,-1.3769,-1.3489,-1.364,-1.3662,0.63,0.63,0.63,0.6103,0.5825,0.5828,0.5673,0.5356,0.4807,0.4419,0.3951,0.2978,0.2303,0.1956,0.144,0.116,0.1086,0.1101,0.1086,0.1109,0.1109,0.1109,0.1109,0.1109,0.1109,0.1106,0.1057,0.0871,0.0533,-0.0154,-0.0574,-0.0894,-0.1754,-0.2246,-0.2453,-0.3076,-0.3452,-0.3477,-0.3557,-0.3613,-0.3585,-0.3613,-0.3722,-0.3885,-0.3941,-0.4021,-0.4187,-0.457,-0.4791,-0.4791,-0.5117,-0.5304,-0.5332,-0.55,-0.5719,-0.59,-0.5873,-0.5838,-0.583,-0.5762,-0.5765,-0.5906,-0.5625,-0.5616,-0.5801,-0.5709,-0.5514,-0.5517,-0.5712,-0.6297,-0.7171,-0.8083,-0.9075,-0.9856,-1.01,-1.0298,-1.0683,-1.0743,-1.0822,-1.0991,-1.0809,-1.0478,-1.0298,-1.0009,-0.97,-0.957,-0.96,-0.9639,-0.9594,-0.9739,-1.0085,-1.0386,-1.0769,-1.1278,-1.1902,-1.1462,-1.1319,-1.1654,-1.1752,-1.1748,-1.1695,-1.1515,-1.1303,-1.1209,-1.0915,-1.1103,-1.1714,-1.2497,-1.3362,-1.3771,-1.3786,-1.3056,-1.2689,-1.3117,-1.329,0.63,0.63,0.63,0.63,0.63,0.63,0.63,0.6219,0.567,0.5276,0.4807,0.3795,0.3139,0.2732,0.1973,0.1544,0.1504,0.1259,0.1109,0.1109,0.1109,0.1109,0.1109,0.1109,0.1109,0.1071,0.1047,0.1018,0.0957,0.0538,0.0264,0.0087,-0.1045,-0.1706,-0.1958,-0.277,-0.3249,-0.3302,-0.3444,-0.353,-0.353,-0.3557,-0.3613,-0.3613,-0.3613,-0.3613,-0.3613,-0.3996,-0.4215,-0.4242,-0.457,-0.4846,-0.5007,-0.5034,-0.5117,-0.5274,-0.5274,-0.528,-0.5251,-0.5267,-0.5311,-0.541,-0.5042,-0.4896,-0.5147,-0.4821,-0.4755,-0.4891,-0.5057,-0.5448,-0.6366,-0.766,-0.8877,-0.9599,-0.9975,-1.0298,-1.0671,-1.0641,-1.0635,-1.0731,-1.0436,-1.0208,-1.0124,-0.9775,-0.9667,-0.9766,-0.9824,-0.9862,-1.0104,-1.0419,-1.0614,-1.0832,-1.1237,-1.1657,-1.2009,-1.1703,-1.177,-1.2055,-1.1691,-1.1709,-1.1787,-1.1567,-1.145,-1.1329,-1.1431,-1.1621,-1.21,-1.2848,-1.3403,-1.3872,-1.3281,-1.2444,-1.2497,-1.2795,-1.3039,0.63,0.63,0.63,0.63,0.63,0.63,0.63,0.6257,0.6219,0.5786,0.516,0.4885,0.4351,0.3645,0.2792,0.2367,0.2165,0.1531,0.1176,0.1109,0.1109,0.1109,0.1109,0.1109,0.1106,0.1104,0.1014,0.1017,0.0953,0.0866,0.0813,0.0649,-0.0336,-0.0979,-0.1118,-0.2211,-0.2942,-0.3049,-0.3246,-0.3388,-0.3416,-0.353,-0.3585,-0.3613,-0.3613,-0.3613,-0.3613,-0.3638,-0.3669,-0.3669,-0.3669,-0.3913,-0.4408,-0.4491,-0.4712,-0.5044,-0.494,-0.479,-0.4745,-0.4557,-0.4458,-0.4478,-0.4359,-0.4386,-0.4461,-0.4531,-0.4592,-0.4691,-0.4891,-0.5352,-0.6032,-0.7045,-0.8019,-0.8549,-0.9413,-0.9979,-1.0045,-1.0172,-1.0339,-1.031,-1.0112,-0.9898,-0.9865,-0.9782,-0.9836,-1.0238,-1.0485,-1.0719,-1.1185,-1.1568,-1.1803,-1.1736,-1.1973,-1.2365,-1.2178,-1.1971,-1.2322,-1.2536,-1.1891,-1.1575,-1.1741,-1.1682,-1.1588,-1.1543,-1.1957,-1.2172,-1.2691,-1.3339,-1.3363,-1.3522,-1.2641,-1.1996,-1.2097,-1.2374,-1.2986,0.63,0.63,0.63,0.63,0.63,0.63,0.63,0.63,0.63,0.6145,0.5828,0.5276,0.4819,0.444,0.3601,0.2868,0.2375,0.1973,0.1544,0.1209,0.1109,0.1109,0.1109,0.1109,0.1065,0.1048,0.1006,0.0975,0.0934,0.0917,0.0898,0.0734,0.0112,-0.028,-0.0448,-0.1596,-0.2324,-0.2406,-0.2907,-0.3246,-0.336,-0.3444,-0.3502,-0.3585,-0.3613,-0.3613,-0.3613,-0.3613,-0.3613,-0.3613,-0.3613,-0.3694,-0.3833,-0.3888,-0.3983,-0.4216,-0.4228,-0.4224,-0.4316,-0.433,-0.4303,-0.4303,-0.4303,-0.4303,-0.4303,-0.4367,-0.4464,-0.4558,-0.4691,-0.4924,-0.5299,-0.6051,-0.7233,-0.8616,-0.9442,-0.9928,-1.0081,-1.0208,-1.0286,-1.0262,-1.0063,-0.9925,-0.9959,-0.9959,-1.0301,-1.0579,-1.0912,-1.1387,-1.1855,-1.2282,-1.2653,-1.2899,-1.3072,-1.3157,-1.3191,-1.2781,-1.2484,-1.2513,-1.1969,-1.1477,-1.16,-1.1686,-1.1655,-1.1809,-1.2241,-1.2696,-1.3261,-1.3425,-1.3332,-1.302,-1.2303,-1.1892,-1.1668,-1.2011,-1.2589,0.63,0.63,0.63,0.63,0.63,0.63,0.63,0.63,0.63,0.63,0.618,0.5747,0.547,0.5249,0.4389,0.3707,0.325,0.2764,0.228,0.1812,0.1244,0.1244,0.1444,0.1478,0.1434,0.1341,0.1123,0.0997,0.093,0.0907,0.0887,0.0788,0.028,0.0,0.0,-0.1035,-0.1679,-0.1959,-0.2434,-0.2854,-0.3165,-0.3332,-0.3444,-0.3502,-0.3585,-0.3613,-0.3613,-0.3613,-0.3613,-0.3613,-0.3613,-0.3613,-0.3616,-0.3652,-0.3709,-0.3794,-0.3936,-0.4039,-0.4121,-0.4227,-0.4303,-0.4303,-0.4303,-0.4303,-0.4303,-0.4303,-0.4367,-0.4464,-0.4561,-0.4761,-0.5156,-0.5976,-0.7151,-0.8447,-0.903,-0.9558,-0.9878,-1.0009,-0.9997,-1.001,-1.0073,-1.0104,-1.0192,-1.056,-1.0975,-1.1226,-1.1617,-1.2081,-1.2537,-1.3063,-1.3524,-1.3818,-1.3852,-1.4073,-1.4402,-1.3746,-1.2783,-1.2428,-1.2047,-1.1651,-1.1473,-1.1492,-1.1482,-1.1763,-1.2137,-1.2462,-1.2993,-1.2859,-1.2708,-1.2277,-1.2034,-1.1759,-1.1577,-1.1725,-1.222,0.63,0.63,0.63,0.63,0.63,0.63,0.63,0.63,0.63,0.63,0.6257,0.618,0.6215,0.603,0.5154,0.4668,0.4487,0.3671,0.3149,0.2748,0.2013,0.1678,0.2112,0.2181,0.211,0.1926,0.1407,0.1089,0.1012,0.0939,0.09,0.0842,0.0,0.0,0.0,-0.0559,-0.1118,-0.1511,-0.182,-0.2212,-0.28,-0.3107,-0.333,-0.3388,-0.3502,-0.3585,-0.3613,-0.3613,-0.3613,-0.3613,-0.3613,-0.3613,-0.3632,-0.3717,-0.3756,-0.3815,-0.3977,-0.4075,-0.4134,-0.423,-0.43,-0.4303,-0.4303,-0.4303,-0.4303,-0.4303,-0.4303,-0.4334,-0.4464,-0.4791,-0.5418,-0.6268,-0.7228,-0.8074,-0.8636,-0.9047,-0.9432,-0.9526,-0.9606,-0.9679,-1.0053,-1.0491,-1.0493,-1.1069,-1.1741,-1.2205,-1.2412,-1.2805,-1.3318,-1.3787,-1.4287,-1.4456,-1.442,-1.4338,-1.448,-1.3622,-1.2656,-1.1992,-1.1716,-1.149,-1.134,-1.1406,-1.1402,-1.1675,-1.2005,-1.2357,-1.252,-1.2483,-1.2375,-1.2161,-1.1912,-1.1619,-1.1507,-1.1569,-1.1694,0.63,0.63,0.63,0.63,0.63,0.63,0.63,0.63,0.63,0.63,0.63,0.63,0.63,0.6224,0.5758,0.5219,0.4725,0.4261,0.3685,0.3215,0.2882,0.2714,0.2882,0.2917,0.2648,0.2206,0.1934,0.1545,0.1052,0.1027,0.0968,0.0898,0.0703,0.0646,0.0561,0.0056,-0.028,-0.0532,-0.098,-0.1538,-0.2127,-0.2294,-0.274,-0.336,-0.3416,-0.3471,-0.3585,-0.3613,-0.3613,-0.3613,-0.3613,-0.3613,-0.3616,-0.3654,-0.372,-0.3808,-0.3898,-0.3971,-0.4092,-0.4194,-0.4261,-0.4303,-0.4167,-0.4303,-0.4303,-0.4303,-0.4303,-0.4303,-0.4367,-0.4461,-0.4794,-0.558,-0.6658,-0.8004,-0.8759,-0.9253,-0.9446,-0.9478,-0.9478,-0.9574,-1.0085,-1.0448,-1.0789,-1.1466,-1.2266,-1.2574,-1.2942,-1.3297,-1.3732,-1.3882,-1.4121,-1.4685,-1.4764,-1.4488,-1.4128,-1.3304,-1.2435,-1.1598,-1.1256,-1.1111,-1.1175,-1.14,-1.1415,-1.1484,-1.1958,-1.2314,-1.2388,-1.238,-1.2196,-1.1941,-1.1468,-1.1066,-1.1083,-1.1139,-1.1209,0.63,0.63,0.63,0.63,0.63,0.63,0.63,0.63,0.63,0.63,0.63,0.63,0.63,0.6269,0.6006,0.5636,0.5158,0.4936,0.4613,0.4217,0.4151,0.3984,0.3751,0.3651,0.3418,0.3037,0.2618,0.2131,0.1576,0.1371,0.1185,0.0924,0.0887,0.0888,0.086,0.0592,0.0252,-0.0028,-0.0392,-0.0867,-0.1482,-0.1595,-0.1845,-0.2404,-0.2573,-0.277,-0.3132,-0.2965,-0.3021,-0.3444,-0.3613,-0.3613,-0.3624,-0.3686,-0.3759,-0.3833,-0.3914,-0.3909,-0.3739,-0.3757,-0.3647,-0.3447,-0.3389,-0.3556,-0.3725,-0.3861,-0.3894,-0.4267,-0.4303,-0.4431,-0.4888,-0.584,-0.699,-0.7999,-0.8952,-0.9484,-0.9484,-0.9478,-0.9478,-0.9663,-1.0149,-1.0825,-1.1113,-1.2052,-1.2711,-1.3122,-1.3322,-1.3565,-1.3745,-1.3794,-1.3879,-1.4313,-1.4188,-1.3703,-1.3481,-1.2848,-1.2519,-1.1703,-1.1062,-1.0863,-1.094,-1.1201,-1.1136,-1.1248,-1.1788,-1.2102,-1.1949,-1.1826,-1.1682,-1.1326,-1.0855,-1.0803,-1.0933,-1.0832,-1.0902,0.63,0.63,0.63,0.63,0.63,0.63,0.63,0.63,0.63,0.63,0.63,0.63,0.63,0.6289,0.6078,0.5905,0.5757,0.5532,0.5426,0.5232,0.516,0.4924,0.4453,0.442,0.4237,0.3967,0.3414,0.2799,0.2274,0.2011,0.1597,0.1261,0.1085,0.0938,0.0926,0.0852,0.0618,0.0252,0.014,-0.0224,-0.0727,-0.0923,-0.1119,-0.1369,-0.1677,-0.204,-0.2319,-0.2207,-0.232,-0.336,-0.3416,-0.3286,-0.3368,-0.3542,-0.3588,-0.3559,-0.354,-0.3473,-0.3203,-0.3075,-0.2914,-0.2603,-0.2549,-0.2581,-0.3353,-0.3589,-0.3758,-0.4267,-0.4308,-0.4641,-0.5332,-0.6772,-0.7588,-0.8113,-0.8941,-0.9347,-0.955,-0.9546,-0.9522,-0.9596,-1.0353,-1.1178,-1.1869,-1.2584,-1.3188,-1.3217,-1.3543,-1.3891,-1.3794,-1.3635,-1.3623,-1.3696,-1.3289,-1.2602,-1.2489,-1.2385,-1.2256,-1.1925,-1.1241,-1.086,-1.0725,-1.0817,-1.0715,-1.0864,-1.129,-1.1297,-1.106,-1.0984,-1.1045,-1.0968,-1.0701,-1.0909,-1.1115,-1.0807,-1.0713,0.63,0.63,0.63,0.63,0.63,0.63,0.63,0.63,0.63,0.63,0.63,0.63,0.63,0.6293,0.6105,0.5909,0.5793,0.5647,0.5508,0.5409,0.5395,0.5329,0.5123,0.509,0.4766,0.4288,0.4004,0.3484,0.2956,0.2673,0.2405,0.1827,0.1703,0.1482,0.0997,0.0962,0.0869,0.0701,0.0673,0.0364,-0.0056,-0.0224,-0.0504,-0.0951,-0.1314,-0.1593,-0.1789,-0.1818,-0.193,-0.2125,-0.2184,-0.2203,-0.2307,-0.2339,-0.2418,-0.2475,-0.248,-0.243,-0.2357,-0.2694,-0.306,-0.2774,-0.3052,-0.3894,-0.3997,-0.3969,-0.4066,-0.4319,-0.4413,-0.4775,-0.5472,-0.6036,-0.6986,-0.7936,-0.8682,-0.9291,-0.982,-0.9736,-0.9666,-0.9912,-1.0474,-1.1069,-1.1519,-1.2754,-1.3231,-1.33,-1.3701,-1.4175,-1.3912,-1.3518,-1.3272,-1.3114,-1.2498,-1.192,-1.1895,-1.1893,-1.1935,-1.1876,-1.1338,-1.0958,-1.0824,-1.0593,-1.0559,-1.0569,-1.0715,-1.0624,-1.0593,-1.0678,-1.0871,-1.0697,-1.062,-1.0805,-1.0921,-1.0672,-1.0646,0.63,0.63,0.63,0.63,0.63,0.63,0.63,0.63,0.63,0.63,0.63,0.63,0.63,0.6293,0.6166,0.6023,0.5789,0.5579,0.5477,0.5405,0.5395,0.5395,0.5395,0.5382,0.5085,0.4597,0.4484,0.4055,0.3547,0.3251,0.2947,0.2382,0.232,0.1955,0.1431,0.1299,0.1177,0.0925,0.0897,0.0729,0.0477,0.0421,0.028,-0.0168,-0.0448,-0.0671,-0.1147,-0.0924,-0.1064,-0.1203,-0.1148,-0.125,-0.1728,-0.1848,-0.1882,-0.1926,-0.1939,-0.1799,-0.1837,-0.1858,-0.195,-0.1777,-0.2383,-0.2945,-0.3375,-0.3628,-0.4106,-0.4389,-0.4593,-0.4799,-0.5215,-0.5793,-0.6576,-0.7208,-0.8247,-0.9025,-0.9516,-0.9768,-0.9919,-1.0223,-1.0859,-1.1291,-1.1992,-1.2846,-1.3471,-1.364,-1.3991,-1.435,-1.3639,-1.3243,-1.2714,-1.2349,-1.1758,-1.1337,-1.1346,-1.1393,-1.1574,-1.1501,-1.131,-1.1079,-1.0992,-1.0718,-1.0471,-1.0495,-1.053,-1.0561,-1.0568,-1.0628,-1.0747,-1.0821,-1.0802,-1.0807,-1.0767,-1.0734,-1.0774,0.63,0.63,0.63,0.63,0.63,0.63,0.63,0.63,0.63,0.63,0.63,0.63,0.63,0.6296,0.6293,0.6119,0.5793,0.5552,0.5402,0.5399,0.5395,0.5395,0.5395,0.5382,0.5281,0.5128,0.4943,0.4503,0.4103,0.3837,0.3532,0.2997,0.2874,0.2561,0.2083,0.1905,0.1679,0.1204,0.1148,0.0981,0.0841,0.0841,0.0729,0.0617,0.0505,0.014,-0.0308,-0.0224,-0.0168,-0.0673,-0.028,-0.0601,-0.1238,-0.1614,-0.1693,-0.1636,-0.1514,-0.1311,-0.1039,-0.0978,-0.0889,-0.0236,-0.0942,-0.1593,-0.2306,-0.3057,-0.3685,-0.4214,-0.4524,-0.4734,-0.4815,-0.5322,-0.5858,-0.6458,-0.7713,-0.8527,-0.9136,-0.9773,-1.0096,-1.0434,-1.0876,-1.1307,-1.1999,-1.2813,-1.3417,-1.3955,-1.4285,-1.428,-1.3538,-1.2976,-1.2477,-1.1957,-1.1482,-1.1086,-1.1047,-1.1183,-1.1321,-1.1364,-1.1227,-1.1156,-1.1063,-1.0674,-1.0398,-1.036,-1.0371,-1.0434,-1.055,-1.0673,-1.0794,-1.0929,-1.0969,-1.0902,-1.0848,-1.0795,-1.0882,0.63,0.63,0.63,0.63,0.63,0.63,0.63,0.63,0.63,0.63,0.63,0.63,0.63,0.6296,0.6296,0.6119,0.5769,0.5532,0.5395,0.5395,0.5395,0.5395,0.5395,0.5392,0.5281,0.5133,0.5063,0.4895,0.4716,0.4662,0.4195,0.3744,0.3606,0.3251,0.2728,0.2519,0.2263,0.1706,0.1595,0.1372,0.1065,0.0926,0.0897,0.0841,0.0785,0.0561,0.0309,0.0196,0.0084,-0.0112,-0.0028,-0.0116,0.0,0.0,0.0,0.0,0.0,0.0,0.0,-0.0733,-0.0936,-0.1075,-0.1411,-0.1784,-0.2248,-0.2837,-0.3391,-0.3801,-0.435,-0.4801,-0.4947,-0.5187,-0.5704,-0.6429,-0.7157,-0.7986,-0.9192,-0.9913,-1.0244,-1.0623,-1.0959,-1.1225,-1.19,-1.2509,-1.3035,-1.3441,-1.3711,-1.3635,-1.3123,-1.2692,-1.2331,-1.185,-1.134,-1.1019,-1.0755,-1.0984,-1.1143,-1.1353,-1.1278,-1.1134,-1.0965,-1.0551,-1.0321,-1.0289,-1.0296,-1.0364,-1.0499,-1.0675,-1.0881,-1.1049,-1.1042,-1.1022,-1.1076,-1.1122,-1.1102,0.63,0.63,0.63,0.63,0.63,0.63,0.63,0.63,0.63,0.63,0.63,0.63,0.63,0.6279,0.6166,0.5973,0.5694,0.5508,0.5402,0.5395,0.5395,0.5395,0.5395,0.5395,0.5354,0.5267,0.5243,0.5093,0.4908,0.4884,0.466,0.4403,0.4281,0.3892,0.3319,0.3155,0.2822,0.2376,0.1986,0.1706,0.1344,0.1121,0.0926,0.0897,0.0897,0.0869,0.1011,0.0943,0.0768,0.0622,0.0579,0.0355,0.0,0.0,0.0,0.0,0.0,0.0,0.0,-0.0366,-0.0471,-0.0572,-0.1176,-0.157,-0.1845,-0.2346,-0.3062,-0.3591,-0.3867,-0.4481,-0.4924,-0.4979,-0.5362,-0.6015,-0.6861,-0.7927,-0.8955,-0.9906,-1.0464,-1.0875,-1.1382,-1.1603,-1.1544,-1.2121,-1.2642,-1.294,-1.3172,-1.292,-1.2569,-1.234,-1.2077,-1.1686,-1.1211,-1.1107,-1.0864,-1.0979,-1.1101,-1.1236,-1.131,-1.1204,-1.1006,-1.0633,-1.0387,-1.0265,-1.0289,-1.0322,-1.0502,-1.0711,-1.0956,-1.1182,-1.1329,-1.143,-1.1436,-1.1443,-1.143,0.63,0.63,0.63,0.63,0.63,0.63,0.63,0.63,0.63,0.63,0.63,0.6296,0.6279,0.6211,0.601,0.5803,0.5576,0.5467,0.5402,0.5395,0.5395,0.5395,0.5395,0.5395,0.5385,0.5371,0.5371,0.5223,0.4995,0.4979,0.488,0.4733,0.4712,0.451,0.3994,0.3846,0.3447,0.2955,0.246,0.2151,0.1873,0.1539,0.1261,0.1261,0.126,0.1455,0.1709,0.167,0.1529,0.1388,0.1273,0.1038,0.0514,0.0,0.0,0.0195,0.0099,0.0,0.0,0.0,0.0,0.0,0.0,-0.0872,-0.1255,-0.1861,-0.2793,-0.3559,-0.4103,-0.4375,-0.4896,-0.5018,-0.5171,-0.5667,-0.6857,-0.808,-0.8765,-0.9636,-1.055,-1.1112,-1.1744,-1.1929,-1.1781,-1.1626,-1.2104,-1.2361,-1.2558,-1.2265,-1.1928,-1.1955,-1.1706,-1.1372,-1.1118,-1.1118,-1.1088,-1.1144,-1.1181,-1.1199,-1.1261,-1.1218,-1.1058,-1.0821,-1.0592,-1.0378,-1.0326,-1.0383,-1.058,-1.0771,-1.1022,-1.1316,-1.1678,-1.1806,-1.1718,-1.1717,-1.1757,0.63,0.63,0.63,0.63,0.63,0.63,0.63,0.63,0.63,0.63,0.63,0.6289,0.6224,0.6023,0.5812,0.5675,0.5614,0.5638,0.5657,0.5657,0.5557,0.5524,0.5428,0.5395,0.5395,0.5395,0.5395,0.5264,0.5142,0.5108,0.5002,0.4921,0.4887,0.4773,0.4618,0.4474,0.4256,0.3745,0.3432,0.3077,0.2631,0.2436,0.2374,0.2374,0.2374,0.2374,0.2387,0.2339,0.2222,0.2107,0.2019,0.1927,0.1773,0.1277,0.1042,0.079,0.0,0.0,0.0,0.0,0.0,0.0,0.0,0.0,-0.0582,-0.1454,-0.2547,-0.3734,-0.4265,-0.4701,-0.4898,-0.4979,-0.521,-0.5747,-0.6591,-0.7702,-0.8542,-0.9787,-1.0663,-1.0962,-1.1446,-1.1818,-1.1892,-1.1669,-1.1521,-1.1744,-1.1861,-1.1595,-1.1409,-1.1484,-1.1484,-1.1223,-1.1117,-1.1117,-1.1111,-1.1186,-1.1186,-1.1192,-1.1217,-1.1236,-1.1107,-1.0918,-1.0797,-1.0607,-1.051,-1.0426,-1.0533,-1.0757,-1.1109,-1.1443,-1.1742,-1.1864,-1.1886,-1.196,-1.2024,0.63,0.63,0.63,0.63,0.63,0.63,0.63,0.63,0.63,0.63,0.63,0.63,0.617,0.5924,0.6018,0.6112,0.6127,0.6312,0.6507,0.6342,0.6178,0.598,0.5881,0.5591,0.5395,0.5491,0.5392,0.5378,0.53,0.5272,0.5186,0.5029,0.5002,0.4951,0.4955,0.483,0.4677,0.4332,0.3952,0.3423,0.2945,0.2741,0.271,0.271,0.2738,0.2877,0.3079,0.3056,0.297,0.2837,0.276,0.2473,0.2166,0.1825,0.166,0.1636,0.143,0.0,0.0,0.0,0.0,0.0,0.0,0.0,0.0,-0.0722,-0.1776,-0.2968,-0.3365,-0.3992,-0.482,-0.4979,-0.5171,-0.5673,-0.6668,-0.7548,-0.8656,-0.9906,-1.085,-1.0999,-1.1155,-1.1446,-1.1706,-1.1484,-1.1298,-1.1409,-1.1527,-1.1372,-1.1223,-1.1223,-1.1223,-1.1155,-1.1117,-1.1117,-1.1111,-1.1143,-1.1149,-1.1155,-1.1155,-1.1136,-1.113,-1.1003,-1.0888,-1.0809,-1.0764,-1.0673,-1.056,-1.0878,-1.1316,-1.1583,-1.1839,-1.1941,-1.2044,-1.2104,-1.2184,0.649,0.63,0.63,0.63,0.63,0.63,0.63,0.63,0.63,0.63,0.6311,0.6363,0.6208,0.6044,0.6409,0.6622,0.6408,0.7092,0.7321,0.719,0.6957,0.6695,0.6531,0.6145,0.5984,0.5885,0.5818,0.5741,0.5646,0.547,0.5317,0.5189,0.5189,0.5142,0.5026,0.4961,0.4897,0.4766,0.435,0.3921,0.3544,0.3366,0.3298,0.3245,0.3228,0.336,0.3787,0.3773,0.365,0.3658,0.353,0.3267,0.2887,0.2583,0.2404,0.2313,0.2104,0.1582,0.0914,0.0,0.0,0.0,0.0,0.0,0.0,-0.0156,-0.0823,-0.2504,-0.2973,-0.3756,-0.4582,-0.5054,-0.521,-0.5938,-0.6969,-0.777,-0.8651,-0.996,-1.083,-1.1005,-1.1117,-1.1117,-1.126,-1.1192,-1.1117,-1.1117,-1.1117,-1.1117,-1.1117,-1.1117,-1.1117,-1.1117,-1.1117,-1.1117,-1.1111,-1.1111,-1.1111,-1.1123,-1.1123,-1.1123,-1.1123,-1.1093,-1.1015,-1.0979,-1.0948,-1.0911,-1.0791,-1.1175,-1.155,-1.166,-1.1834,-1.2098,-1.2228,-1.2268,-1.2261,0.6988,0.63,0.6338,0.6296,0.63,0.63,0.63,0.63,0.6293,0.6318,0.6405,0.664,0.6442,0.6199,0.684,0.7122,0.6539,0.7125,0.7545,0.7611,0.7354,0.7349,0.7218,0.7158,0.7092,0.6994,0.6601,0.6334,0.617,0.5719,0.5547,0.5378,0.5337,0.5358,0.5303,0.5162,0.5042,0.4972,0.4738,0.4719,0.4556,0.447,0.4416,0.4413,0.4389,0.4444,0.4612,0.4393,0.4288,0.4324,0.4134,0.4059,0.3699,0.3343,0.3151,0.305,0.2716,0.2306,0.1922,0.1227,0.0615,0.0,0.0,0.0,0.0,0.0,-0.1567,-0.2348,-0.2895,-0.3834,-0.4657,-0.5168,-0.5323,-0.5899,-0.6857,-0.7736,-0.8703,-1.0003,-1.0796,-1.1017,-1.1141,-1.1184,-1.1117,-1.1117,-1.1117,-1.1117,-1.1117,-1.1117,-1.1117,-1.1117,-1.1117,-1.1117,-1.1117,-1.1117,-1.1117,-1.1123,-1.1141,-1.116,-1.1128,-1.1166,-1.116,-1.1123,-1.1038,-1.1057,-1.1052,-1.1046,-1.1052,-1.1248,-1.1427,-1.1611,-1.1791,-1.1998,-1.2114,-1.2157,-1.2157,0.7595,0.771,0.7253,0.6756,0.63,0.63,0.63,0.6279,0.6162,0.6357,0.671,0.7134,0.722,0.7205,0.7803,0.8202,0.8064,0.8639,0.8804,0.8717,0.8461,0.8149,0.7967,0.7679,0.7354,0.7386,0.712,0.6728,0.6367,0.6075,0.5752,0.5557,0.5428,0.5392,0.5358,0.533,0.5266,0.5176,0.5063,0.5019,0.4985,0.4914,0.483,0.4819,0.4796,0.4765,0.4787,0.4633,0.459,0.4548,0.4405,0.4314,0.4303,0.3961,0.3861,0.3825,0.3422,0.3237,0.2704,0.185,0.0784,0.0,0.0,0.0,0.0,0.0,0.0,-0.2074,-0.2815,-0.356,-0.4818,-0.5168,-0.5398,-0.5902,-0.663,-0.7587,-0.8574,-0.9807,-1.0524,-1.0653,-1.1041,-1.1291,-1.1226,-1.1117,-1.1117,-1.1117,-1.1117,-1.1117,-1.1117,-1.1117,-1.1117,-1.1117,-1.1117,-1.116,-1.1166,-1.1172,-1.1178,-1.1176,-1.1169,-1.1075,-1.1031,-1.1098,-1.1062,-1.1111,-1.0962,-1.082,-1.0828,-1.1083,-1.1267,-1.1462,-1.1646,-1.1822,-1.1929,-1.204,-1.1929,0.8399,0.8627,0.8093,0.7522,0.7026,0.7026,0.7026,0.6957,0.6806,0.6855,0.7296,0.7892,0.8063,0.8172,0.8874,0.9117,0.9129,0.9461,0.9734,0.9561,0.9148,0.884,0.8624,0.8398,0.8209,0.7977,0.7744,0.7447,0.7181,0.6662,0.6207,0.5818,0.5524,0.5428,0.5395,0.5395,0.5395,0.5361,0.527,0.5196,0.5179,0.5029,0.4948,0.4935,0.4925,0.4874,0.4825,0.4694,0.4603,0.454,0.4449,0.4328,0.4303,0.4303,0.4303,0.4303,0.4247,0.4092,0.3479,0.2169,0.0873,0.0,0.0,0.0,0.0,0.0,0.0,-0.2231,-0.2582,-0.3169,-0.4742,-0.521,-0.5404,-0.5828,-0.6749,-0.7672,-0.8266,-0.9241,-0.9809,-1.0286,-1.0848,-1.1543,-1.1507,-1.1443,-1.128,-1.1226,-1.1117,-1.1117,-1.1117,-1.1117,-1.1117,-1.1117,-1.1117,-1.1172,-1.1232,-1.1202,-1.1176,-1.1301,-1.1218,-1.0839,-1.0798,-1.0782,-1.0481,-1.0056,-1.0019,-1.0319,-1.0265,-1.0082,-1.0616,-1.131,-1.1515,-1.1744,-1.1781,-1.1818,-1.1558,0.9387,0.8742,0.8699,0.8665,0.8627,0.8623,0.8551,0.8367,0.8245,0.8115,0.8184,0.8949,0.8969,0.8739,0.965,0.98,0.9518,0.9757,0.9925,0.9781,0.9512,0.9406,0.935,0.9215,0.899,0.9189,0.8791,0.8393,0.8226,0.7279,0.6662,0.6141,0.5719,0.5395,0.5395,0.5395,0.5395,0.5392,0.5375,0.5365,0.533,0.5189,0.511,0.5108,0.5047,0.5029,0.4903,0.474,0.464,0.4581,0.4408,0.4334,0.4303,0.4303,0.4303,0.4303,0.4303,0.4343,0.4354,0.2426,0.1175,0.0334,0.0,0.0,0.0,0.0,0.0,-0.2231,-0.2542,-0.3327,-0.4423,-0.5299,-0.5503,-0.5905,-0.68,-0.7328,-0.7896,-0.866,-0.9275,-0.9914,-1.0999,-1.1868,-1.1856,-1.1778,-1.1558,-1.1383,-1.1184,-1.1129,-1.1172,-1.1141,-1.1148,-1.1298,-1.1304,-1.1286,-1.1329,-1.122,-1.1193,-1.1313,-1.1087,-1.0606,-1.0089,-0.9752,-0.939,-0.9013,-0.9155,-0.9533,-0.9193,-0.8813,-0.9642,-1.0464,-1.1366,-1.17,-1.1669,-1.1558,-1.1298,1.0067,1.0244,0.9722,0.9803,1.0094,0.915,0.8703,0.8742,0.8953,0.9026,0.9078,0.9732,0.9932,0.9886,1.0107,1.0331,1.0061,1.0002,1.0124,0.9883,0.9642,0.9508,0.9478,0.9478,0.9478,0.9446,0.9183,0.885,0.8425,0.7804,0.7116,0.6498,0.5851,0.5458,0.5395,0.5395,0.5395,0.5395,0.5392,0.5392,0.5388,0.5341,0.5274,0.5306,0.5248,0.5123,0.5003,0.4771,0.4677,0.4553,0.4398,0.43,0.4303,0.4303,0.4303,0.4303,0.4275,0.379,0.333,0.2117,0.177,0.1015,0.0,0.0,0.0,0.0,0.0,-0.1999,-0.2434,-0.3376,-0.4621,-0.5255,-0.557,-0.5802,-0.6411,-0.6628,-0.717,-0.8119,-0.8908,-0.951,-1.0421,-1.1445,-1.1861,-1.2018,-1.1872,-1.1685,-1.1471,-1.1413,-1.1425,-1.1274,-1.1226,-1.1459,-1.1561,-1.1516,-1.1399,-1.1164,-1.0915,-1.0869,-1.0556,-1.0023,-0.9499,-0.8884,-0.8674,-0.847,-0.8589,-0.8703,-0.8437,-0.8322,-0.8813,-0.9561,-1.0308,-1.0913,-1.0956,-1.0956,-1.0919,1.0625,1.1037,1.055,1.0588,1.0887,0.9981,0.9492,0.9489,0.9838,0.9944,0.9923,1.0343,1.0587,1.0635,1.0743,1.0761,1.0551,1.0346,1.0256,0.9985,0.966,0.9552,0.9478,0.9478,0.9478,0.9478,0.9446,0.9215,0.8882,0.8587,0.767,0.6597,0.5947,0.5686,0.5524,0.5395,0.5395,0.5395,0.5395,0.5395,0.5392,0.5385,0.5385,0.5385,0.5309,0.5183,0.4987,0.4827,0.4664,0.4498,0.44,0.4303,0.4303,0.4303,0.4303,0.4303,0.4304,0.3755,0.306,0.2473,0.2027,0.1287,0.0495,0.0,0.0,0.0,0.0,-0.1622,-0.2292,-0.3283,-0.4402,-0.4967,-0.5577,-0.5845,-0.6021,-0.6271,-0.6699,-0.7657,-0.8325,-0.8958,-1.006,-1.1026,-1.1805,-1.2069,-1.2168,-1.1964,-1.1808,-1.1696,-1.1567,-1.1489,-1.1399,-1.1645,-1.1714,-1.1549,-1.1301,-1.0973,-1.0728,-1.0487,-0.9873,-0.9139,-0.8642,-0.8035,-0.8,-0.7863,-0.771,-0.7599,-0.7714,-0.7863,-0.8016,-0.8351,-0.8912,-0.9518,-1.0056,-1.0169,-1.0164,1.1099,1.1117,1.1068,1.1056,1.1068,1.0962,1.0831,1.0707,1.0929,1.0875,1.0707,1.0887,1.1015,1.1063,1.1099,1.1039,1.0888,1.0538,1.031,1.0118,0.9769,0.9592,0.949,0.9478,0.9478,0.9478,0.9478,0.9446,0.9382,0.8786,0.7772,0.6854,0.64,0.6042,0.5719,0.5458,0.5428,0.5395,0.5395,0.5395,0.5395,0.5395,0.5359,0.5326,0.5223,0.5024,0.4858,0.4691,0.4528,0.4398,0.4303,0.4303,0.4303,0.4303,0.4303,0.4357,0.4542,0.4027,0.3181,0.2591,0.1946,0.1122,0.0468,0.0,0.0,0.0,0.0,-0.1511,-0.2312,-0.3085,-0.3911,-0.4713,-0.5514,-0.5689,-0.5844,-0.6159,-0.6474,-0.7102,-0.7669,-0.86,-0.9911,-1.0907,-1.1531,-1.1907,-1.1664,-1.1549,-1.1348,-1.1419,-1.1398,-1.1722,-1.1726,-1.1858,-1.1842,-1.1583,-1.1217,-1.0651,-0.9904,-0.9488,-0.8689,-0.8017,-0.7581,-0.7301,-0.715,-0.6949,-0.6567,-0.6528,-0.6911,-0.6988,-0.6914,-0.7326,-0.7817,-0.8613,-0.9263,-0.9069,-0.8988,1.0906,1.1087,1.0912,1.0936,1.1105,1.1117,1.1063,1.1021,1.1093,1.1051,1.1003,1.1038,1.1111,1.1117,1.1111,1.1003,1.084,1.0605,1.0316,1.0069,0.9802,0.9678,0.957,0.9478,0.9478,0.9478,0.9478,0.9478,0.935,0.8856,0.849,0.7934,0.6887,0.6367,0.598,0.5657,0.5491,0.5395,0.5395,0.5395,0.5395,0.5395,0.5326,0.5223,0.5123,0.4924,0.4725,0.4625,0.4461,0.4331,0.43,0.4303,0.4303,0.4303,0.4306,0.4327,0.4391,0.4109,0.2822,0.2512,0.1917,0.0,0.0,0.0,0.0,0.0,0.0,-0.1517,-0.2289,-0.3105,-0.4014,-0.4829,-0.5459,-0.5707,-0.5878,-0.608,-0.6407,-0.673,-0.7364,-0.8188,-0.9531,-1.0168,-1.0842,-1.0936,-1.0745,-1.0762,-1.0815,-1.09,-1.1188,-1.1484,-1.1548,-1.1663,-1.1443,-1.0994,-1.0654,-1.0128,-0.9222,-0.839,-0.7768,-0.7223,-0.6954,-0.6691,-0.6401,-0.6306,-0.632,-0.6313,-0.6374,-0.6426,-0.6535,-0.6458,-0.6907,-0.7748,-0.836,-0.8183,-0.8158,1.0683,1.0888,1.0785,1.0833,1.1087,1.1117,1.1117,1.1117,1.1117,1.1117,1.1117,1.1111,1.1117,1.1117,1.1105,1.0996,1.0857,1.0581,1.0328,1.016,0.9859,0.9666,0.9546,0.9478,0.9478,0.9478,0.9484,0.9478,0.9394,0.9119,0.8753,0.7874,0.7055,0.6568,0.6013,0.5591,0.5428,0.5395,0.5395,0.5395,0.5395,0.5395,0.5259,0.5123,0.5024,0.4824,0.4628,0.4528,0.4398,0.4334,0.4303,0.4303,0.4303,0.4303,0.4303,0.4333,0.4418,0.3692,0.2589,0.2373,0.1428,0.0,0.0,0.0,0.0,0.0,0.0,-0.1616,-0.2345,-0.3118,-0.4117,-0.4997,-0.5416,-0.5796,-0.5919,-0.6046,-0.6273,-0.6552,-0.7182,-0.7886,-0.8623,-0.9206,-0.9573,-0.969,-0.9833,-0.9958,-1.0063,-1.0166,-1.0538,-1.1035,-1.0984,-1.0932,-1.0627,-1.0217,-0.9884,-0.9445,-0.8635,-0.7859,-0.7352,-0.6849,-0.6455,-0.6375,-0.6334,-0.6337,-0.6354,-0.6347,-0.6344,-0.6378,-0.6438,-0.6351,-0.6303,-0.688,-0.7447,-0.7469,-0.7555,1.0501,1.0731,1.0719,1.0839,1.1099,1.1117,1.1117,1.1117,1.1117,1.1117,1.1117,1.1117,1.1117,1.1105,1.1051,1.1027,1.0803,1.0574,1.0304,1.0244,0.9859,0.9618,0.9508,0.9478,0.9478,0.9516,0.9564,0.9592,0.9564,0.9309,0.8727,0.7554,0.7386,0.683,0.5914,0.5557,0.5428,0.5395,0.5359,0.5326,0.5359,0.5359,0.5292,0.5057,0.4891,0.4694,0.4561,0.4431,0.4303,0.4303,0.4303,0.4303,0.4303,0.4303,0.4303,0.4338,0.4465,0.3547,0.2654,0.2283,0.1419,0.0,0.0,0.0,0.0,0.0,0.0,0.0,-0.2503,-0.3384,-0.4397,-0.5004,-0.5427,-0.5654,-0.5781,-0.6048,-0.6371,-0.659,-0.6941,-0.7505,-0.7812,-0.8367,-0.8607,-0.8742,-0.8656,-0.8954,-0.9275,-0.9331,-0.9484,-1.0112,-1.0341,-1.0159,-0.9809,-0.948,-0.9118,-0.8643,-0.8045,-0.7377,-0.6951,-0.6753,-0.6583,-0.6447,-0.6354,-0.6422,-0.6461,-0.6429,-0.6416,-0.6443,-0.6429,-0.6344,-0.631,-0.6313,-0.651,-0.682,-0.7046,1.0642,1.0713,1.0719,1.0876,1.1099,1.1117,1.1117,1.1117,1.1117,1.1117,1.1117,1.1117,1.1117,1.1099,1.0942,1.0882,1.0749,1.0485,1.0202,1.0057,0.9805,0.9624,0.9508,0.9478,0.949,0.9588,0.9672,0.9805,0.9781,0.953,0.9098,0.8209,0.7749,0.6863,0.6009,0.5653,0.5428,0.5359,0.5292,0.5259,0.5329,0.5193,0.5057,0.4891,0.4728,0.4561,0.4431,0.4334,0.4303,0.4303,0.4303,0.4303,0.4303,0.4303,0.4303,0.4322,0.4398,0.3556,0.2674,0.2114,0.1445,0.0,0.0,0.0,0.0,0.0,0.0,0.0,-0.2754,-0.365,-0.4499,-0.4974,-0.5389,-0.5556,-0.5683,-0.6046,-0.6464,-0.6647,-0.6778,-0.6978,-0.7186,-0.7412,-0.7684,-0.7699,-0.7564,-0.7785,-0.8214,-0.8325,-0.81,-0.843,-0.9368,-0.9304,-0.9052,-0.8677,-0.834,-0.8056,-0.7533,-0.721,-0.686,-0.6716,-0.6702,-0.663,-0.6546,-0.6586,-0.6617,-0.6549,-0.6488,-0.6454,-0.6457,-0.6378,-0.6364,-0.6388,-0.6419,-0.664,-0.6792,1.0463,1.0387,1.0628,1.087,1.1087,1.1117,1.1117,1.1117,1.1117,1.1117,1.1117,1.1117,1.1117,1.1117,1.0948,1.0767,1.0647,1.0412,1.0166,0.9934,0.9775,0.9636,0.9552,0.9496,0.9598,0.9682,0.9943,1.0063,1.0033,0.9747,0.9298,0.8334,0.7598,0.6942,0.6152,0.5594,0.5332,0.5256,0.5156,0.5123,0.5163,0.5027,0.4891,0.4728,0.4628,0.4495,0.4367,0.4303,0.4303,0.4303,0.4303,0.4303,0.4303,0.4303,0.4303,0.4314,0.4193,0.3751,0.2643,0.1979,0.1504,0.0,0.0,0.0,0.0,0.0,0.0,-0.1928,-0.2587,-0.3454,-0.4663,-0.5314,-0.5499,-0.5669,-0.5714,-0.5935,-0.6377,-0.6715,-0.6818,-0.6915,-0.7048,-0.7066,-0.7275,-0.7275,-0.7175,-0.719,-0.7503,-0.7594,-0.7301,-0.7214,-0.8037,-0.8459,-0.8245,-0.7945,-0.7578,-0.7396,-0.7168,-0.6924,-0.679,-0.6766,-0.6759,-0.679,-0.6793,-0.6766,-0.6742,-0.6719,-0.6658,-0.6583,-0.6535,-0.646,-0.646,-0.6437,-0.6504,-0.6528,-0.6696,1.0542,1.0288,1.0567,1.0979,1.131,1.1254,1.1298,1.1372,1.1372,1.1372,1.1453,1.1409,1.1298,1.1111,1.1051,1.087,1.0599,1.0298,1.0069,0.9835,0.9636,0.9564,0.9558,0.9544,0.9787,0.9985,1.0184,1.0292,1.0334,0.9997,0.9327,0.8097,0.7353,0.68,0.5792,0.5326,0.5236,0.51,0.499,0.4924,0.4861,0.4794,0.4691,0.4658,0.4558,0.4464,0.4367,0.4303,0.4303,0.4303,0.4303,0.4303,0.4303,0.4303,0.4303,0.4308,0.4311,0.3496,0.2486,0.2076,0.1247,0.0,0.0,0.0,0.0,0.0,0.0,-0.1772,-0.2429,-0.3335,-0.4543,-0.543,-0.5568,-0.5804,-0.5851,-0.594,-0.6394,-0.6792,-0.6875,-0.6922,-0.6906,-0.6913,-0.6886,-0.6886,-0.6862,-0.6881,-0.6861,-0.6848,-0.689,-0.7006,-0.7425,-0.769,-0.7574,-0.7252,-0.6992,-0.7037,-0.7004,-0.6937,-0.6842,-0.6844,-0.6834,-0.6905,-0.6876,-0.6858,-0.6834,-0.6848,-0.6783,-0.6695,-0.6607,-0.6542,-0.6508,-0.6504,-0.6485,-0.6562,-0.6688,1.2199,1.1935,1.107,1.1379,1.2345,1.204,1.2077,1.2489,1.2526,1.2562,1.2415,1.2415,1.2114,1.1093,1.087,1.0671,1.0424,1.016,0.9865,0.9588,0.9594,0.952,0.958,0.979,1.013,1.0281,1.0354,1.0436,1.0254,1.0114,0.9448,0.8074,0.7736,0.6887,0.5542,0.522,0.5055,0.4928,0.4812,0.4709,0.4664,0.4631,0.4625,0.4558,0.4461,0.4367,0.4303,0.4303,0.4303,0.4303,0.4303,0.4303,0.4303,0.4303,0.4303,0.4244,0.4241,0.3385,0.2583,0.2063,0.0,0.0,0.0,0.0,0.0,0.0,0.0,0.0,-0.2103,-0.3079,-0.4207,-0.5092,-0.5487,-0.5891,-0.6091,-0.6325,-0.6677,-0.6832,-0.6869,-0.694,-0.7004,-0.696,-0.6886,-0.6869,-0.6875,-0.6844,-0.6797,-0.6793,-0.6851,-0.6898,-0.6956,-0.6977,-0.7048,-0.6984,-0.6959,-0.7051,-0.7045,-0.6987,-0.6953,-0.698,-0.6957,-0.7021,-0.7014,-0.6983,-0.6943,-0.6967,-0.6883,-0.6814,-0.6685,-0.6583,-0.6545,-0.6518,-0.6515,-0.6593,-0.6753]}]]